[[{"header":{"parameterUnit":"m.s-1","parameterCategory":1,"la1":30.6,"la2":28.766,"lo1":-90.7593,"lo2":-88.6598,"dy":0.0162,"dx":0.0183,"nx":116,"ny":114,"refTime":"2023-03-02T06:00:00:Z","depth":0,"parameterNumber":2,"parameterNumberName":"U-component_of_WINDS"},"data":[0.0,0.0,0.0,0.0,0.0,0.0,0.0,0.0,0.0,0.0,0.0,0.0,0.0,0.0,0.0,0.0,0.0,0.0,0.0,0.0,0.0,0.0,0.0,0.0,0.0,0.0,0.0,0.0,0.0,0.0,0.0,0.0,0.0,0.0,0.0,0.0,0.0,0.0,0.0,0.0,0.0,0.0,0.0,0.0,0.0,0.0,0.0,0.0,0.0,0.0,0.0,0.0,0.0,0.0,0.0,0.0,0.0,0.0,0.0,0.0,0.0,0.0,0.0,0.0,0.0,0.0,0.0,0.0,0.0,0.0,0.0,0.0,0.0,0.0,0.0,0.0,0.0,0.0,0.0,0.0,0.0,0.0,0.0,0.0,0.0,0.0,0.0,0.0,0.0,0.0,0.0,0.0,0.0,0.0,0.0,0.0,0.0,0.0,0.0,0.0,0.0,0.0,0.0,0.0,0.0,0.0,0.0,0.0,0.0,0.0,0.0,0.0,0.0,0.0,0.0,0.0,0.0,0.0,0.0,0.0,0.0,0.0,0.0,0.0,0.0,0.0,0.0,0.0,0.0,0.0,0.0,0.0,0.0,0.0,0.0,0.0,0.0,0.0,0.0,0.0,0.0,0.0,0.0,0.0,0.0,0.0,0.0,0.0,0.0,0.0,0.0,0.0,0.0,0.0,0.0,0.0,0.0,0.0,0.0,0.0,0.0,0.0,0.0,0.0,0.0,0.0,0.0,0.0,0.0,0.0,0.0,0.0,0.0,0.0,0.0,0.0,0.0,0.0,0.0,0.0,0.0,0.0,0.0,0.0,0.0,0.0,0.0,0.0,0.0,0.0,0.0,0.0,0.0,0.0,0.0,0.0,0.0,0.0,0.0,0.0,0.0,0.0,0.0,0.0,0.0,0.0,0.0,0.0,0.0,0.0,0.0,0.0,0.0,0.0,0.0,0.0,0.0,0.0,0.0,0.0,0.0,0.0,0.0,0.0,0.0,0.0,0.0,0.0,0.0,0.0,0.0,0.0,0.0,0.0,0.0,0.0,0.0,0.0,0.0,0.0,0.0,0.0,0.0,0.0,0.0,0.0,0.0,0.0,0.0,0.0,0.0,0.0,0.0,0.0,0.0,0.0,0.0,0.0,0.0,0.0,0.0,0.0,0.0,0.0,0.0,0.0,0.0,0.0,0.0,0.0,0.0,0.0,0.0,0.0,0.0,0.0,0.0,0.0,0.0,0.0,0.0,0.0,0.0,0.0,0.0,0.0,0.0,0.0,0.0,0.0,0.0,0.0,0.0,0.0,0.0,0.0,0.0,0.0,0.0,0.0,0.0,0.0,0.0,0.0,0.0,0.0,0.0,0.0,0.0,0.0,0.0,0.0,0.0,0.0,0.0,0.0,0.0,0.0,0.0,0.0,0.0,0.0,0.0,0.0,0.0,0.0,0.0,0.0,0.0,0.0,0.0,0.0,0.0,0.0,0.0,0.0,0.0,0.0,0.0,0.0,0.0,0.0,0.0,0.0,0.0,0.0,0.0,0.0,0.0,0.0,0.0,0.0,0.0,0.0,0.0,0.0,0.0,0.0,0.0,0.0,0.0,0.0,0.0,0.0,0.0,0.0,0.0,0.0,0.0,0.0,0.0,0.0,0.0,0.0,0.0,0.0,0.0,0.0,0.0,0.0,0.0,0.0,0.0,0.0,0.0,0.0,0.0,0.0,0.0,0.0,0.0,0.0,0.0,0.0,0.0,0.0,0.0,0.0,0.0,0.0,0.0,0.0,0.0,0.0,0.0,0.0,0.0,0.0,0.0,0.0,0.0,0.0,0.0,0.0,0.0,0.0,0.0,0.0,0.0,0.0,0.0,0.0,0.0,0.0,0.0,0.0,0.0,0.0,0.0,0.0,0.0,0.0,0.0,0.0,0.0,0.0,0.0,0.0,0.0,0.0,0.0,0.0,0.0,0.0,0.0,0.0,0.0,0.0,0.0,0.0,0.0,0.0,0.0,0.0,0.0,0.0,0.0,0.0,0.0,0.0,0.0,0.0,0.0,0.0,0.0,0.0,0.0,0.0,0.0,0.0,0.0,0.0,0.0,0.0,0.0,0.0,0.0,0.0,0.0,0.0,0.0,0.0,0.0,0.0,0.0,0.0,0.0,0.0,0.0,0.0,0.0,0.0,0.0,0.0,0.0,0.0,0.0,0.0,0.0,0.0,0.0,0.0,0.0,0.0,0.0,0.0,0.0,0.0,0.0,0.0,0.0,0.0,0.0,0.0,0.0,0.0,0.0,0.0,0.0,0.0,0.0,0.0,0.0,0.0,0.0,0.0,0.0,0.0,0.0,0.0,0.0,0.0,0.0,0.0,0.0,0.0,0.0,0.0,0.0,0.0,0.0,0.0,0.0,0.0,0.0,0.0,0.0,0.0,0.0,0.0,0.0,0.0,0.0,0.0,0.0,0.0,0.0,0.0,0.0,0.0,0.0,0.0,0.0,0.0,0.0,0.0,0.0,0.0,0.0,0.0,0.0,0.0,0.0,0.0,0.0,0.0,0.0,0.0,0.0,0.0,0.0,0.0,0.0,0.0,0.0,0.0,0.0,0.0,0.0,0.0,0.0,0.0,0.0,0.0,0.0,0.0,0.0,0.0,0.0,0.0,0.0,0.0,0.0,0.0,0.0,0.0,0.0,0.0,0.0,0.0,0.0,0.0,0.0,0.0,0.0,0.0,0.0,0.0,0.0,0.0,0.0,0.0,0.0,0.0,0.0,0.0,0.0,0.0,0.0,0.0,0.0,0.0,0.0,0.0,0.0,0.0,0.0,0.0,0.0,0.0,0.0,0.0,0.0,0.0,0.0,0.0,0.0,0.0,0.0,0.0,0.0,0.0,0.0,0.0,0.0,0.0,0.0,0.0,0.0,0.0,0.0,0.0,0.0,0.0,0.0,0.0,0.0,0.0,0.0,0.0,0.0,0.0,0.0,0.0,0.0,0.0,0.0,0.0,0.0,0.0,0.0,0.0,0.0,0.0,0.0,0.0,0.0,0.0,0.0,0.0,0.0,0.0,0.0,0.0,0.0,0.0,0.0,0.0,0.0,0.0,0.0,0.0,0.0,0.0,0.0,0.0,0.0,0.0,0.0,0.0,0.0,0.0,0.0,0.0,0.0,0.0,0.0,0.0,0.0,0.0,0.0,0.0,0.0,0.0,0.0,0.0,0.0,0.0,0.0,0.0,0.0,0.0,0.0,0.0,0.0,0.0,0.0,0.0,0.0,0.0,0.0,0.0,0.0,0.0,0.0,0.0,0.0,0.0,0.0,0.0,0.0,0.0,0.0,0.0,0.0,0.0,0.0,0.0,0.0,0.0,0.0,0.0,0.0,0.0,0.0,0.0,0.0,0.0,0.0,0.0,0.0,0.0,0.0,0.0,0.0,0.0,0.0,0.0,0.0,0.0,0.0,0.0,0.0,0.0,0.0,0.0,0.0,0.0,0.0,0.0,0.0,0.0,0.0,0.0,0.0,0.0,0.0,0.0,0.0,0.0,0.0,0.0,0.0,0.0,0.0,0.0,0.0,0.0,0.0,0.0,0.0,0.0,0.0,0.0,0.0,0.0,0.0,0.0,0.0,0.0,0.0,0.0,0.0,0.0,0.0,0.0,0.0,0.0,0.0,0.0,0.0,0.0,0.0,0.0,0.0,0.0,0.0,0.0,0.0,0.0,0.0,0.0,0.0,0.0,0.0,0.0,0.0,0.0,0.0,0.0,0.0,0.0,0.0,0.0,0.0,0.0,0.0,0.0,0.0,0.0,0.0,0.0,0.0,0.0,0.0,0.0,0.0,0.0,0.0,0.0,0.0,0.0,0.0,0.0,0.0,0.0,0.0,0.0,0.0,0.0,0.0,0.0,0.0,0.0,0.0,0.0,0.0,0.0,0.0,0.0,0.0,0.0,0.0,0.0,0.0,0.0,0.0,0.0,0.0,0.0,0.0,0.0,0.0,0.0,0.0,0.0,0.0,0.0,0.0,0.0,0.0,0.0,0.0,0.0,0.0,0.0,0.0,0.0,0.0,0.0,0.0,0.0,0.0,0.0,0.0,0.0,0.0,0.0,0.0,0.0,0.0,0.0,0.0,0.0,0.0,0.0,0.0,0.0,0.0,0.0,0.0,0.0,0.0,0.0,0.0,0.0,0.0,0.0,0.0,0.0,0.0,0.0,0.0,0.0,0.0,0.0,0.0,0.0,0.0,0.0,0.0,0.0,0.0,0.0,0.0,0.0,0.0,0.0,0.0,0.0,0.0,0.0,0.0,0.0,0.0,0.0,0.0,0.0,0.0,0.0,0.0,0.0,0.0,0.0,0.0,0.0,0.0,0.0,0.0,0.0,0.0,0.0,0.0,0.0,0.0,0.0,0.0,0.0,0.0,0.0,0.0,0.0,0.0,0.0,0.0,0.0,0.0,0.0,0.0,0.0,0.0,0.0,0.0,0.0,0.0,0.0,0.0,0.0,0.0,0.0,0.0,0.0,0.0,0.0,0.0,0.0,0.0,0.0,0.0,0.0,0.0,0.0,0.0,0.0,0.0,0.0,0.0,0.0,0.0,0.0,0.0,0.0,0.0,0.0,0.0,0.0,0.0,0.0,0.0,0.0,0.0,0.0,0.0,0.0,0.0,0.0,0.0,0.0,0.0,0.0,0.0,0.0,0.0,0.0,0.0,0.0,0.0,0.0,0.0,0.0,0.0,0.0,0.0,0.0,0.0,0.0,0.0,0.0,0.0,0.0,0.0,0.0,0.0,0.0,0.0,0.0,0.0,0.0,0.0,0.0,0.0,0.0,0.0,0.0,0.0,0.0,0.0,0.0,0.0,0.0,0.0,0.0,0.0,0.0,0.0,0.0,0.0,0.0,0.0,0.0,0.0,0.0,0.0,0.0,0.0,0.0,0.0,0.0,0.0,0.0,0.0,0.0,0.0,0.0,0.0,0.0,0.0,0.0,0.0,0.0,0.0,0.0,0.0,0.0,0.0,0.0,0.0,0.0,0.0,0.0,0.0,0.0,0.0,0.0,0.0,0.0,0.0,0.0,0.0,0.0,0.0,0.0,0.0,0.0,0.0,0.0,0.0,0.0,0.0,0.0,0.0,0.0,0.0,0.0,0.0,0.0,0.0,0.0,0.0,0.0,0.0,0.0,0.0,0.0,0.0,0.0,0.0,0.0,0.0,0.0,0.0,0.0,0.0,0.0,0.0,0.0,0.0,0.0,0.0,0.0,0.0,0.0,0.0,0.0,0.0,0.0,0.0,0.0,0.0,0.0,0.0,0.0,0.0,0.0,0.0,0.0,0.0,0.0,0.0,0.0,0.0,0.0,0.0,0.0,0.0,0.0,0.0,0.0,0.0,0.0,0.0,0.0,0.0,0.0,0.0,0.0,0.0,0.0,0.0,0.0,0.0,0.0,0.0,0.0,0.0,0.0,0.0,0.0,0.0,0.0,0.0,0.0,0.0,0.0,0.0,0.0,0.0,0.0,0.0,0.0,0.0,0.0,0.0,0.0,0.0,0.0,0.0,0.0,0.0,0.0,0.0,0.0,0.0,0.0,0.0,0.0,0.0,0.0,0.0,0.0,0.0,0.0,0.0,0.0,0.0,0.0,0.0,0.0,0.0,0.0,0.0,0.0,0.0,0.0,0.0,0.0,0.0,0.0,0.0,0.0,0.0,0.0,0.0,0.0,0.0,0.0,0.0,0.0,0.0,0.0,0.0,0.0,0.0,0.0,0.0,0.0,0.0,0.0,0.0,0.0,0.0,0.0,0.0,0.0,0.0,0.0,0.0,0.0,0.0,0.0,0.0,0.0,0.0,0.0,0.0,0.0,0.0,0.0,0.0,0.0,0.0,0.0,0.0,0.0,0.0,0.0,0.0,0.0,0.0,0.0,0.0,0.0,0.0,0.0,0.0,0.0,0.0,0.0,0.0,0.0,0.0,0.0,0.0,0.0,0.0,0.0,0.0,0.0,0.0,0.0,0.0,0.0,0.0,0.0,0.0,0.0,0.0,0.0,0.0,0.0,0.0,0.0,0.0,0.0,0.0,0.0,0.0,0.0,0.0,0.0,-2.76,0.0,0.0,0.0,0.0,0.0,0.0,0.0,0.0,0.0,0.0,0.0,0.0,0.0,0.0,0.0,0.0,0.0,0.0,0.0,0.0,0.0,0.0,0.0,0.0,0.0,0.0,0.0,0.0,0.0,0.0,0.0,0.0,0.0,0.0,0.0,0.0,0.0,0.0,0.0,-2.7868,-2.8041,-2.8405,-2.8782,-2.9265,-2.9806,0.0,0.0,0.0,0.0,0.0,0.0,0.0,0.0,0.0,0.0,0.0,0.0,0.0,0.0,0.0,0.0,0.0,0.0,0.0,0.0,0.0,0.0,0.0,0.0,0.0,0.0,0.0,0.0,0.0,0.0,0.0,0.0,0.0,0.0,0.0,0.0,0.0,0.0,0.0,0.0,0.0,0.0,0.0,0.0,0.0,0.0,0.0,0.0,0.0,0.0,0.0,0.0,0.0,0.0,0.0,0.0,0.0,0.0,0.0,0.0,0.0,0.0,0.0,0.0,0.0,0.0,0.0,0.0,0.0,0.0,0.0,-2.76,0.0,0.0,0.0,0.0,0.0,0.0,0.0,0.0,0.0,0.0,0.0,0.0,0.0,0.0,0.0,0.0,0.0,0.0,0.0,0.0,0.0,0.0,0.0,0.0,0.0,0.0,0.0,0.0,0.0,0.0,0.0,0.0,0.0,0.0,0.0,-2.7299,-2.7299,-2.7299,-2.725,-2.7234,-2.7235,-2.7821,-2.8271,-2.8604,-2.8929,0.0,0.0,0.0,0.0,0.0,0.0,0.0,0.0,0.0,0.0,0.0,0.0,0.0,0.0,0.0,0.0,0.0,0.0,0.0,0.0,0.0,0.0,0.0,0.0,0.0,0.0,0.0,0.0,0.0,0.0,0.0,0.0,0.0,0.0,0.0,0.0,0.0,0.0,0.0,0.0,0.0,0.0,0.0,0.0,0.0,0.0,0.0,0.0,0.0,0.0,0.0,0.0,0.0,0.0,0.0,0.0,0.0,0.0,0.0,0.0,0.0,0.0,0.0,-2.76,-2.76,-2.76,-2.76,-2.76,-2.76,-2.76,-2.76,-2.76,0.0,0.0,0.0,0.0,0.0,0.0,0.0,0.0,0.0,0.0,0.0,0.0,0.0,0.0,0.0,0.0,0.0,0.0,0.0,0.0,0.0,0.0,-2.9972,-2.9248,-2.861,-2.8558,-2.823,0.0,0.0,0.0,0.0,0.0,0.0,0.0,-2.7299,-2.7299,-2.7299,-2.7122,-2.7024,-2.6959,-2.6927,-2.6945,-2.7063,-2.8647,-2.9402,-2.9488,0.0,0.0,0.0,0.0,0.0,0.0,0.0,0.0,0.0,0.0,0.0,0.0,0.0,0.0,0.0,0.0,0.0,0.0,0.0,0.0,0.0,0.0,0.0,0.0,0.0,0.0,0.0,0.0,0.0,0.0,0.0,0.0,0.0,0.0,0.0,0.0,0.0,0.0,0.0,0.0,0.0,-3.0384,-2.9924,0.0,0.0,0.0,0.0,0.0,0.0,0.0,0.0,0.0,0.0,0.0,0.0,0.0,-2.766,-2.76,-2.76,-2.76,-2.76,-2.76,-2.76,-2.76,-2.76,-2.76,-2.76,-2.76,0.0,-2.76,-2.76,0.0,0.0,0.0,0.0,0.0,0.0,0.0,0.0,0.0,0.0,0.0,0.0,0.0,0.0,0.0,0.0,0.0,0.0,0.0,0.0,0.0,-2.9334,-2.8575,-2.7851,-2.8161,-2.8092,-2.7351,0.0,0.0,0.0,0.0,-2.7299,-2.7299,-2.7299,-2.7266,-2.7184,-2.7104,-2.7006,-2.6942,-2.6909,-2.6875,-2.6892,-2.7657,-2.8169,-2.8509,-2.8544,0.0,0.0,0.0,0.0,0.0,0.0,0.0,0.0,0.0,0.0,0.0,0.0,0.0,0.0,0.0,0.0,0.0,0.0,0.0,0.0,0.0,0.0,0.0,0.0,0.0,0.0,0.0,0.0,0.0,0.0,0.0,0.0,0.0,0.0,0.0,0.0,0.0,0.0,0.0,-3.0547,-3.051,-3.0321,-3.0405,-3.0405,0.0,0.0,0.0,0.0,0.0,0.0,0.0,0.0,0.0,-2.8328,-2.8085,-2.787,-2.76,-2.76,-2.76,-2.76,-2.76,-2.76,-2.76,-2.76,-2.76,-2.76,-2.76,-2.76,-2.76,-2.76,-2.76,-2.76,0.0,0.0,0.0,0.0,-2.76,-2.76,0.0,0.0,0.0,0.0,0.0,0.0,0.0,0.0,0.0,0.0,0.0,0.0,-2.9817,-2.8972,-2.8178,-2.7627,-2.7902,-2.7885,-2.7333,-2.7299,0.0,0.0,0.0,-2.7299,-2.7299,-2.7266,-2.7185,-2.707,-2.707,-2.7039,-2.6958,-2.6958,-2.6958,-2.6975,-2.6892,-2.7131,-2.7554,-2.764,-2.8117,-2.885,0.0,0.0,0.0,0.0,0.0,0.0,0.0,0.0,0.0,0.0,0.0,0.0,0.0,0.0,0.0,0.0,0.0,0.0,0.0,0.0,0.0,0.0,0.0,0.0,0.0,0.0,0.0,0.0,0.0,0.0,0.0,0.0,0.0,0.0,0.0,0.0,0.0,-3.0568,-3.0447,-3.0342,-3.0426,-3.0447,0.0,0.0,0.0,0.0,0.0,0.0,-2.9303,-2.9182,-2.885,-2.8328,-2.8183,-2.7953,-2.76,-2.76,-2.76,-2.76,-2.76,-2.76,-2.76,-2.76,-2.76,-2.76,-2.76,-2.76,-2.76,-2.76,-2.76,-2.76,-2.76,-2.76,-2.76,-2.76,-2.76,-2.76,0.0,0.0,0.0,0.0,0.0,0.0,0.0,0.0,0.0,0.0,0.0,-3.0645,-3.0645,-2.9299,-2.8385,-2.8351,-2.773,-2.7333,-2.7299,-2.7299,-2.7299,-2.7299,-2.7299,-2.7299,-2.7299,-2.7184,-2.7087,-2.7007,-2.7007,-2.6975,-2.6909,-2.6909,-2.6909,-2.6893,-2.6758,-2.6792,-2.6944,-2.6826,-2.7182,-2.7875,-2.8014,0.0,0.0,0.0,0.0,0.0,0.0,0.0,0.0,0.0,0.0,0.0,0.0,0.0,0.0,0.0,0.0,0.0,0.0,0.0,0.0,0.0,0.0,0.0,0.0,0.0,0.0,0.0,0.0,0.0,0.0,0.0,0.0,0.0,0.0,0.0,0.0,0.0,0.0,-2.9897,-3.0236,0.0,0.0,0.0,0.0,-3.0485,-3.0447,-3.0262,-2.9793,-2.9348,-2.885,-2.8328,-2.787,-2.7625,-2.76,-2.76,-2.76,-2.76,-2.76,-2.76,-2.76,-2.76,-2.76,-2.76,-2.76,-2.76,-2.76,-2.76,-2.76,-2.76,-2.76,-2.76,-2.76,-2.76,-2.76,-2.76,0.0,0.0,0.0,0.0,0.0,0.0,0.0,0.0,0.0,-3.18,-3.1145,-3.0714,-3.0714,-3.0214,-2.9472,-2.8489,-2.8592,-2.8316,-2.7351,-2.7299,-2.7299,-2.7299,-2.7299,-2.7299,-2.7299,-2.725,-2.7168,-2.7054,-2.7054,-2.7006,-2.6893,-2.6893,-2.6842,-2.6758,-2.6725,-2.6742,-2.6758,-2.6725,-2.6894,-2.7216,-2.7182,-2.7657,0.0,0.0,0.0,0.0,0.0,0.0,0.0,0.0,0.0,0.0,0.0,0.0,0.0,0.0,0.0,0.0,0.0,0.0,0.0,0.0,0.0,0.0,0.0,0.0,0.0,0.0,0.0,0.0,0.0,0.0,0.0,0.0,0.0,0.0,0.0,0.0,0.0,-3.022,-3.0405,0.0,-3.0279,-3.0405,-3.0363,-3.007,-3.0049,-2.9837,-2.9371,-2.885,-2.8496,-2.8328,-2.7845,-2.76,-2.76,-2.76,-2.76,-2.76,-2.76,-2.76,-2.76,-2.76,-2.76,-2.76,-2.76,-2.76,-2.76,-2.76,-2.76,-2.76,-2.76,-2.76,-2.76,-2.76,-2.76,-2.76,0.0,0.0,0.0,0.0,0.0,0.0,0.0,0.0,0.0,-3.18,-3.1369,-3.1058,-3.1058,-3.0852,-3.0179,-2.8885,-2.8989,-2.861,-2.7368,-2.7299,-2.7299,-2.7299,-2.7299,-2.7299,-2.7299,-2.7266,-2.7185,-2.7071,-2.7071,-2.7006,-2.6893,-2.6893,-2.6842,-2.6758,-2.6725,-2.6691,-2.6691,-2.6742,-2.6792,-2.6842,-2.6792,-2.7114,-2.7589,0.0,0.0,0.0,0.0,0.0,0.0,0.0,0.0,0.0,0.0,0.0,0.0,0.0,0.0,0.0,0.0,0.0,0.0,0.0,0.0,0.0,0.0,0.0,0.0,0.0,0.0,0.0,0.0,0.0,0.0,0.0,0.0,0.0,0.0,0.0,-3.0156,-3.0447,-3.0506,-3.0506,-3.0506,-3.0506,-3.0363,-3.007,-3.0049,-2.9832,-2.9348,-2.9012,-2.8717,-2.8567,-2.81,-2.7845,-2.7845,-2.7685,-2.76,-2.76,-2.76,-2.76,-2.76,-2.76,-2.76,-2.76,-2.76,-2.76,-2.76,-2.76,-2.76,-2.76,-2.76,-2.76,-2.76,-2.76,-2.76,-2.76,0.0,0.0,0.0,0.0,0.0,0.0,0.0,-3.18,-3.18,-3.18,-3.18,-3.18,-3.18,-3.1145,-3.0386,-2.9575,-2.8851,-2.8109,-2.7351,-2.7299,-2.7299,-2.7299,-2.7299,-2.7299,-2.7299,-2.7168,-2.7071,-2.6991,-2.6991,-2.6975,-2.6893,-2.6893,-2.6893,-2.6893,-2.6758,-2.6691,-2.6708,-2.6842,-2.6842,-2.6725,-2.6842,-2.6809,-2.6793,0.0,0.0,0.0,0.0,0.0,0.0,0.0,0.0,0.0,0.0,0.0,0.0,0.0,0.0,0.0,0.0,0.0,0.0,0.0,0.0,0.0,0.0,0.0,0.0,0.0,0.0,0.0,0.0,0.0,0.0,0.0,0.0,0.0,-3.0447,-3.0506,-3.0468,-3.0506,-3.0506,-3.0506,-3.0506,-3.0506,-3.0506,-3.0506,-3.0506,-3.03,-2.9832,-2.9793,-2.9572,-2.9097,-2.8567,-2.8288,-2.828,-2.782,-2.76,-2.76,-2.76,-2.76,-2.76,-2.76,-2.76,-2.76,-2.76,-2.76,-2.76,-2.76,-2.76,-2.76,-2.76,-2.76,-2.76,-2.76,-2.76,-2.76,0.0,0.0,0.0,0.0,0.0,0.0,0.0,-3.18,-3.18,-3.18,-3.18,-3.18,-3.18,-3.161,-3.0955,-2.9627,-2.9317,-2.8661,-2.7385,-2.7299,-2.7299,-2.7299,-2.7299,-2.7299,-2.7299,-2.7168,-2.7086,-2.707,-2.7024,-2.6975,-2.6893,-2.6893,-2.6842,-2.6742,-2.6725,-2.6691,-2.6708,-2.6842,-2.6893,-2.6842,-2.6893,-2.6893,-2.6859,0.0,0.0,0.0,0.0,0.0,0.0,0.0,0.0,0.0,0.0,0.0,0.0,0.0,0.0,0.0,0.0,0.0,0.0,0.0,0.0,0.0,0.0,0.0,0.0,0.0,0.0,0.0,0.0,0.0,0.0,0.0,0.0,-3.0384,-3.0506,-3.0215,-3.0113,-3.0447,-3.0506,-3.0506,-3.0506,-3.0506,-3.0506,-3.0506,-3.0506,-3.03,-2.9832,-2.9793,-2.94,-2.8543,-2.8376,-2.8134,-2.7795,-2.766,-2.76,-2.76,-2.76,-2.76,-2.76,-2.76,-2.76,-2.76,-2.76,-2.76,-2.76,-2.76,-2.76,-2.76,-2.76,-2.76,-2.76,-2.76,-2.76,-2.76,0.0,0.0,0.0,0.0,0.0,0.0,0.0,-3.18,-3.18,-3.18,-3.18,-3.18,-3.18,-3.18,-3.13,-3.011,-2.9696,-2.9006,-2.7833,-2.7471,-2.7299,-2.7299,-2.7299,-2.7266,-2.7217,-2.7135,-2.707,-2.7023,-2.7007,-2.6942,-2.6809,-2.6859,-2.6842,-2.6691,-2.6691,-2.6742,-2.6792,-2.6892,-2.6942,-2.6925,-2.6975,-2.6958,-2.6893,-2.6742,-2.6996,-2.7453,-2.7419,-2.8163,-2.9194,-2.957,0.0,0.0,0.0,0.0,0.0,0.0,0.0,0.0,0.0,0.0,0.0,0.0,0.0,0.0,0.0,0.0,0.0,0.0,0.0,0.0,0.0,0.0,0.0,0.0,-3.0651,-3.0506,-3.0506,-3.0279,-3.0177,-3.0485,-3.0506,-3.0506,-3.0506,-3.0506,-3.0506,-3.0506,-3.0506,-3.03,-2.9832,-2.9984,-2.9661,-2.8662,-2.8826,-2.8614,-2.7894,-2.7894,-2.7795,-2.76,-2.76,-2.76,-2.76,-2.76,-2.76,0.0,-2.7899,-2.8034,-2.8049,-2.8319,-2.8438,0.0,0.0,0.0,0.0,0.0,-2.76,-2.76,0.0,0.0,0.0,0.0,0.0,0.0,0.0,-3.18,-3.18,-3.18,-3.18,-3.18,-3.18,-3.18,-3.1489,-3.0748,-2.9955,-2.9161,-2.8334,-2.7661,-2.7299,-2.7299,-2.7299,-2.7233,-2.7103,-2.7103,-2.7039,-2.6909,-2.6975,-2.6908,-2.6742,-2.6859,-2.6859,-2.6725,-2.6742,-2.6792,-2.6926,-2.6958,-2.6991,-2.7024,-2.707,-2.7023,-2.6909,-2.6775,-2.6725,-2.6742,-2.6859,-2.7284,-2.7908,-2.8692,0.0,0.0,0.0,0.0,0.0,0.0,0.0,0.0,0.0,0.0,0.0,0.0,0.0,0.0,0.0,0.0,0.0,0.0,0.0,0.0,0.0,0.0,0.0,0.0,-3.0589,-3.0506,-3.0506,-3.0506,-3.0506,-3.0506,-3.0506,-3.0506,-3.0506,-3.0506,-3.0506,-3.0506,-3.0506,-3.0321,-2.9897,0.0,0.0,0.0,0.0,-2.9355,-2.8384,-2.8312,-2.8131,-2.778,-2.7745,-2.775,-2.7824,-2.7824,-2.7824,-2.7854,-2.8442,-2.8712,-2.8757,-2.9367,-2.9606,-2.9487,-2.8289,-2.7824,-2.7824,-2.7824,-2.7824,-2.7824,0.0,0.0,0.0,0.0,0.0,0.0,0.0,-3.18,-3.18,-3.18,-3.18,-3.18,-3.18,-3.18,-3.1489,-3.0748,-2.9955,-2.8937,-2.7592,-2.7368,-2.7299,-2.7299,-2.7299,-2.7233,-2.7103,-2.7103,-2.7054,-2.6992,-2.6991,-2.6975,-2.6942,-2.6958,-2.6958,-2.6942,-2.6892,-2.6909,-2.6992,-2.6991,-2.704,-2.7086,-2.7103,-2.7055,-2.6992,-2.6958,-2.6909,-2.6859,-2.6893,-2.7284,-2.7824,-2.7994,-2.8958,-3.0125,-3.0277,-3.0717,0.0,0.0,0.0,0.0,0.0,0.0,0.0,0.0,0.0,0.0,0.0,0.0,0.0,0.0,0.0,0.0,0.0,0.0,0.0,-3.0712,-3.0589,-3.0506,-3.0506,-3.0506,-3.0506,-3.0506,-3.0506,-3.0506,-3.0506,-3.0506,-3.0506,-3.0506,-3.0506,-3.0447,-3.0363,-3.0447,0.0,-2.9683,-2.975,-2.9528,-2.8958,-2.8519,-2.8532,-2.8966,0.0,0.0,-2.9217,-2.9217,-2.9217,-2.9232,-2.9352,-2.9427,-2.9427,-2.9562,-2.9606,-2.9577,-2.9322,-2.9217,-2.9217,-2.9217,-2.9217,-2.9217,0.0,0.0,0.0,0.0,0.0,0.0,0.0,-3.18,-3.18,-3.18,-3.18,-3.18,-3.18,-3.18,-3.1645,-3.1282,-3.0179,-2.8868,-2.7385,-2.7299,-2.7299,-2.7299,-2.7299,-2.7233,-2.7103,-2.7103,-2.7071,-2.6991,-2.7023,-2.7023,-2.6991,-2.7023,-2.7023,-2.6991,-2.6958,-2.6991,-2.7055,-2.7055,-2.7104,-2.7201,-2.7201,-2.7185,-2.7138,-2.7041,-2.6992,-2.6959,-2.6959,-2.7147,-2.7454,-2.7827,-2.8456,-2.9237,-3.0002,-3.0459,-3.0777,0.0,0.0,0.0,0.0,0.0,0.0,0.0,0.0,0.0,0.0,0.0,0.0,0.0,0.0,-3.1151,0.0,0.0,-3.0831,-3.063,-3.0531,-3.0506,-3.0506,-3.0506,-3.0506,-3.0506,-3.0506,-3.0506,-3.0506,-3.0506,-3.0506,-3.0506,-3.0506,-3.0506,-3.0506,-3.0506,-3.0279,-2.9815,-3.0027,-2.9823,-2.9216,-2.916,-2.9249,-2.9451,-2.9203,-2.9292,-2.9606,-2.9606,-2.9606,-2.9621,-2.9909,-3.0043,-3.0073,-3.0417,-3.0552,-3.0552,-3.0552,-3.0163,-2.9606,-2.9606,-2.9606,-2.9606,0.0,0.0,0.0,0.0,0.0,0.0,0.0,0.0,-3.18,-3.18,-3.18,-3.18,-3.18,-3.18,-3.1731,-3.1593,-3.0455,-2.911,-2.7609,-2.7506,-2.7437,-2.7315,-2.7299,-2.7233,-2.7103,-2.7135,-2.7104,-2.7024,-2.7104,-2.7104,-2.7073,-2.7104,-2.7104,-2.7073,-2.7024,-2.7055,-2.7135,-2.7119,-2.7184,-2.7299,-2.7299,-2.7299,-2.7283,-2.7122,-2.704,-2.7024,-2.7024,-2.7007,-2.7093,-2.7674,-2.7981,-2.834,-2.9704,-3.0178,-3.0326,-3.0902,-3.1029,0.0,0.0,0.0,0.0,0.0,0.0,0.0,0.0,0.0,-3.119,-3.119,-3.1171,-3.1112,-3.0952,-3.0892,-3.0794,-3.0568,-3.0547,-3.0526,-3.0489,-3.0526,-3.0526,-3.0506,-3.0506,-3.0506,-3.0506,-3.0506,-3.0506,-3.0506,-3.0506,-3.0506,-3.0506,-3.0506,-3.0387,-3.0158,-3.0514,-3.0411,-2.981,-3.0194,-3.0295,-3.0068,-3.0003,-3.0024,-3.0145,-3.0008,-2.9968,-2.9983,-3.0492,-3.0702,-3.0746,-3.1271,-3.1511,-3.1511,-3.1511,-3.0853,-2.9968,-2.9968,-2.9968,-2.9968,0.0,0.0,0.0,0.0,0.0,0.0,0.0,0.0,0.0,-3.18,-3.18,-3.18,-3.18,-3.18,-3.1541,-3.0869,-3.0679,-2.9903,-2.8385,-2.8282,-2.7971,-2.7333,-2.7299,-2.7233,-2.7103,-2.7217,-2.7217,-2.7086,-2.7217,-2.7266,-2.7267,-2.7266,-2.7266,-2.725,-2.7136,-2.7168,-2.7266,-2.7152,-2.7184,-2.7299,-2.7299,-2.7299,-2.7299,-2.7283,-2.7185,-2.7086,-2.7086,-2.7055,-2.7008,-2.7093,-2.7554,-2.822,-2.9001,-2.968,-3.0206,-3.023,-3.0226,-3.0207,-3.0207,-3.07,-3.119,-3.119,-3.119,-3.119,0.0,0.0,-3.119,-3.119,-3.1112,-3.1015,-3.0995,-3.0834,-3.0712,-3.0671,-3.0671,-3.063,-3.0526,-3.0609,-3.063,-3.051,-3.0506,-3.0506,-3.0506,-3.0506,-3.0506,-3.0506,-3.0506,-3.0506,-3.0506,-3.0506,-3.0782,-3.1384,-3.1461,-3.1527,-3.1613,-3.1724,-3.179,-3.182,-3.1391,-3.1501,-3.2057,-3.1528,-3.1286,-3.1286,-3.1361,-3.1391,-3.1391,-3.1466,-3.1511,-3.1511,-3.1511,-3.1406,-3.1286,-3.1286,-3.1286,-3.1286,0.0,0.0,0.0,0.0,0.0,0.0,0.0,0.0,0.0,0.0,-3.18,-3.18,-3.18,-3.18,-3.1489,-3.0748,-3.0714,-3.0231,-2.911,-2.8644,-2.8265,-2.7954,-2.7523,-2.7266,-2.7217,-2.7266,-2.7266,-2.7217,-2.7266,-2.7299,-2.7299,-2.7299,-2.7299,-2.7299,-2.7233,-2.725,-2.7299,-2.7233,-2.725,-2.7299,-2.7299,-2.7299,-2.7299,-2.7299,-2.7266,-2.7217,-2.7135,-2.7136,0.0,-2.7071,-2.7261,-2.7654,-2.8391,-2.8783,-2.9,-2.9406,-2.9487,-2.955,-2.9989,-3.0328,-3.0666,0.0,-3.119,-3.119,-3.119,-3.119,-3.119,-3.119,-3.1151,-3.1075,-3.1015,-3.0935,-3.0855,0.0,-3.0753,-3.0671,-3.063,-3.0609,-3.0568,-3.0506,-3.0506,-3.0506,-3.0506,-3.0506,-3.0506,-3.0506,-3.0506,-3.0688,-3.1118,-3.1135,-3.1466,-3.2216,-3.2249,-3.2334,-3.2538,-3.2579,-3.265,-3.2745,-3.2222,-3.2121,-3.237,-3.1783,-3.1511,-3.1511,-3.1511,-3.1511,-3.1511,-3.1511,-3.1511,-3.1511,-3.1511,-3.1511,-3.1511,-3.1511,-3.1511,-3.1511,0.0,0.0,0.0,0.0,0.0,0.0,0.0,0.0,0.0,0.0,0.0,-3.18,-3.18,-3.18,-3.1576,-3.1041,-3.0989,-3.0662,-2.9886,-2.9334,-2.8834,-2.842,-2.7885,-2.7506,-2.7299,-2.7299,-2.7299,-2.7299,-2.7299,-2.7299,-2.7299,-2.7299,-2.7299,-2.7299,-2.7299,-2.7299,-2.7299,-2.7299,-2.7299,-2.7299,-2.7299,-2.7299,-2.7299,-2.7299,-2.7299,-2.7282,-2.7184,-2.7217,-2.7282,-2.7152,-2.7103,-2.7223,-2.7996,-2.8135,-2.81,-2.8627,-2.8743,-2.8822,-2.9583,-2.9956,0.0,-3.1021,-3.119,-3.119,-3.119,-3.119,-3.119,-3.119,-3.1171,-3.1131,-3.1072,-3.0995,-3.0955,-3.0932,-3.0831,-3.077,-3.077,-3.0651,-3.0568,-3.0568,-3.0568,-3.0568,-3.0568,-3.0526,-3.0506,-3.0506,-3.0688,-3.1035,-3.1565,-3.1797,-3.2249,-3.2984,-3.3017,-3.3113,-3.3307,-3.3453,-3.3501,-3.3449,-3.2884,-3.2614,-3.2586,-3.1853,-3.1511,-3.1511,-3.1511,-3.1511,-3.1511,-3.1511,-3.1511,-3.1511,-3.1511,-3.1511,-3.1511,-3.1511,-3.1511,-3.1511,0.0,0.0,0.0,0.0,0.0,0.0,0.0,0.0,0.0,0.0,0.0,0.0,0.0,0.0,-3.1783,-3.1765,-3.1765,-3.1438,-3.0696,-3.0645,-2.9955,-2.8472,-2.8385,-2.8023,-2.7316,-2.7299,-2.7299,-2.7299,-2.7299,-2.7299,-2.7299,-2.7299,-2.7299,-2.7299,-2.7299,-2.7299,-2.7299,-2.7299,-2.7299,-2.7299,-2.7299,-2.7299,-2.7299,-2.7299,-2.7299,-2.7299,-2.7299,-2.7299,-2.7282,-2.7152,-2.7103,-2.7207,-2.7895,-2.8066,0.0,-2.8032,-2.7928,0.0,0.0,0.0,-3.0294,-3.1021,-3.119,-3.119,-3.119,-3.119,-3.119,-3.119,-3.1092,-3.1035,-3.1171,-3.1032,-3.0932,-3.0975,-3.0952,-3.0892,-3.0892,-3.0773,-3.0692,-3.0692,-3.0692,-3.0692,0.0,-3.0589,-3.0506,-3.0506,-3.1168,-3.1581,-3.1598,-3.2282,-3.2994,-3.3723,-3.3756,-3.387,-3.4052,-3.4586,-3.4578,-3.4075,-3.3475,-3.3172,-3.3145,-3.1992,-3.1511,-3.1511,-3.1511,-3.1511,-3.1511,-3.1511,-3.1511,-3.1511,-3.1511,-3.1511,-3.1511,-3.1511,-3.1511,-3.1511,0.0,0.0,0.0,0.0,0.0,0.0,0.0,0.0,0.0,0.0,0.0,0.0,0.0,0.0,0.0,0.0,-3.18,-3.1679,-3.1438,-3.0955,-3.0455,-2.9937,-2.9403,-2.8782,-2.804,-2.8023,-2.7782,-2.7299,-2.7299,-2.7299,-2.7299,-2.7299,-2.7299,-2.7299,-2.7299,-2.7299,-2.7299,-2.7299,-2.7299,-2.7299,-2.7299,-2.7299,-2.7299,-2.7299,-2.7299,-2.7299,0.0,-2.7233,-2.7152,-2.7055,-2.7023,0.0,-2.7265,0.0,0.0,-2.7148,0.0,0.0,0.0,0.0,-3.0294,-3.1021,-3.119,-3.119,-3.119,-3.119,-3.119,-3.119,-3.1171,-3.1151,-3.119,-3.1151,-3.1112,-3.1131,-3.1052,-3.0972,-3.0972,-3.0892,-3.0831,-3.0831,-3.0831,0.0,0.0,0.0,0.0,-3.1328,-3.1658,-3.2202,-3.3011,-3.3383,-3.3894,-3.4642,-3.4582,-3.4603,-3.4763,-3.4851,-3.4618,-3.4101,-3.3124,-3.2449,-3.2048,-3.1682,-3.1511,-3.1511,-3.1511,-3.1511,-3.1511,-3.1511,-3.1511,-3.1511,-3.1511,-3.1511,-3.1511,-3.1511,-3.1511,-3.1511,0.0,0.0,0.0,0.0,0.0,0.0,0.0,0.0,0.0,0.0,0.0,0.0,0.0,0.0,0.0,0.0,0.0,0.0,-3.18,-3.1351,-3.099,-3.0696,-3.0196,-2.9575,-2.8816,-2.8523,-2.8161,-2.7678,-2.7678,-2.7558,-2.7315,-2.7558,-2.754,-2.7299,-2.7575,-2.7678,-2.7713,-2.7971,-2.8092,-2.8092,-2.8092,-2.8092,-2.8092,-2.8092,-2.8092,0.0,-2.8092,-2.8026,-2.7823,-2.7244,-2.7024,0.0,0.0,0.0,0.0,0.0,0.0,0.0,0.0,-2.9736,-3.0294,-3.1021,-3.119,-3.119,-3.119,-3.119,-3.119,-3.119,-3.119,-3.119,-3.119,-3.119,-3.119,-3.119,-3.1092,-3.1015,-3.1055,-3.0972,-3.0912,-3.0915,-3.0952,-3.1033,0.0,0.0,0.0,-3.1859,-3.244,-3.31,-3.3831,-3.4262,-3.4651,-3.5088,-3.5018,-3.5058,-3.5175,-3.5041,-3.4602,-3.3901,-3.3135,-3.2355,-3.1597,-3.1539,-3.1511,-3.1511,-3.1511,-3.1511,-3.1511,-3.1511,-3.1511,-3.1511,-3.1511,-3.1511,-3.1511,-3.1511,-3.1511,-3.1511,0.0,0.0,0.0,0.0,0.0,0.0,0.0,0.0,0.0,0.0,0.0,0.0,0.0,0.0,0.0,0.0,0.0,0.0,-3.18,-3.18,-3.1489,-3.0782,-3.0766,-3.0368,-2.9592,-2.8885,-2.8506,-2.8454,-2.8454,-2.8092,-2.742,-2.8127,-2.8075,-2.7437,-2.8144,-2.8454,-2.8506,-2.9213,-2.9506,-2.9506,-2.9506,-2.9506,-2.9506,-2.9506,-2.9506,-2.9506,-2.9506,-2.9455,-2.918,0.0,0.0,0.0,0.0,0.0,0.0,0.0,0.0,-2.8246,-2.97,-3.0123,-3.0328,-3.1021,-3.119,-3.119,-3.119,-3.119,-3.119,-3.119,-3.119,-3.119,0.0,0.0,-3.119,-3.119,-3.1075,-3.1055,-3.1171,-3.1032,-3.0952,0.0,0.0,0.0,0.0,0.0,0.0,-3.2135,0.0,-3.4164,-3.4062,-3.486,-3.5245,-3.5111,-3.5111,-3.5175,-3.5314,-3.5111,-3.4545,-3.3582,-3.3417,-3.2803,-3.1784,-3.1597,-3.1511,-3.1511,-3.1511,-3.1511,-3.1511,-3.1511,-3.1511,-3.1511,-3.1511,-3.1511,-3.1511,-3.1511,-3.1511,-3.1511,0.0,0.0,0.0,0.0,0.0,0.0,0.0,0.0,0.0,0.0,0.0,0.0,0.0,0.0,0.0,0.0,0.0,0.0,-3.18,-3.18,-3.1714,-3.1524,-3.1524,-3.1162,-3.0403,-3.0196,-2.9817,-2.923,-2.923,-2.9127,-2.8937,-2.9127,-2.9127,-2.8954,-2.9144,-2.923,-2.923,-2.942,-2.9506,-2.9506,-2.9506,-2.9506,-2.9506,-2.9506,-2.9506,-2.9506,-2.9506,-2.9455,0.0,0.0,0.0,0.0,0.0,-2.8523,-2.8486,0.0,0.0,-2.9599,-2.9987,-3.0497,-3.0954,-3.114,-3.119,-3.119,-3.119,-3.119,-3.119,-3.119,-3.119,-3.119,0.0,0.0,0.0,-3.119,-3.1171,0.0,-3.119,-3.1151,0.0,-3.1151,0.0,-3.1438,-3.2185,-3.2777,0.0,0.0,-3.4199,-3.4583,-3.495,-3.526,-3.5446,-3.54,-3.5291,-3.5314,-3.5446,-3.4472,-3.3853,-3.3582,-3.2776,-3.2219,-3.194,-3.1784,-3.1727,-3.1727,-3.1568,-3.1511,-3.1511,-3.1511,-3.1511,-3.1511,-3.1511,-3.1511,-3.1511,-3.1511,-3.1511,-3.1511,0.0,0.0,0.0,0.0,0.0,0.0,0.0,0.0,0.0,0.0,0.0,0.0,0.0,0.0,0.0,0.0,0.0,0.0,0.0,-3.18,-3.18,-3.18,-3.18,-3.161,-3.1179,-3.0886,-3.0472,-3.0024,-3.0024,-2.9851,-2.9506,-2.9868,-2.9834,-2.9523,-2.9868,-3.0024,-3.0041,-3.0368,-3.0506,0.0,0.0,-3.0506,-3.0506,-3.0506,-3.0506,-3.0506,-3.0506,0.0,0.0,0.0,0.0,-2.914,-2.9102,-2.9066,-2.9098,-2.9399,0.0,-3.0176,-3.0497,-3.0886,-3.119,-3.119,-3.119,-3.119,-3.119,-3.119,-3.119,-3.119,-3.119,0.0,-3.119,0.0,0.0,0.0,0.0,0.0,-3.119,-3.119,-3.119,0.0,-3.1478,0.0,-3.2696,-3.3457,-3.4184,0.0,-3.4979,-3.5093,-3.5367,-3.5475,-3.552,-3.5492,-3.5423,-3.5423,-3.5492,-3.4833,-3.4252,-3.3777,-3.3108,-3.2532,-3.2066,-3.1898,-3.1799,-3.1799,0.0,-3.1511,-3.1511,-3.1511,-3.1511,-3.1511,-3.1511,-3.1511,-3.1511,-3.1511,-3.1511,-3.1511,0.0,0.0,0.0,0.0,0.0,0.0,0.0,0.0,0.0,0.0,0.0,0.0,0.0,0.0,0.0,0.0,0.0,0.0,0.0,0.0,0.0,-3.18,-3.18,-3.18,-3.18,-3.1162,-3.0852,-3.0852,-3.0852,-3.0489,-2.9834,-3.0524,-3.0472,-2.9834,-3.0524,-3.0852,-3.0904,-3.1524,-3.18,-3.18,-3.18,-3.18,-3.18,0.0,0.0,0.0,0.0,0.0,0.0,0.0,-3.061,-2.9483,-2.9408,-2.9391,-2.9493,-3.0095,-3.026,-3.0395,-3.1021,-3.119,-3.119,-3.119,-3.119,-3.119,-3.119,-3.119,-3.119,-3.119,0.0,-3.119,-3.119,-3.119,-3.119,-3.119,0.0,-3.119,-3.119,-3.119,-3.119,-3.119,-3.1853,-3.2598,-3.3339,-3.4066,-3.481,-3.5532,-3.56,-3.5571,-3.5514,-3.5571,-3.5571,-3.5514,-3.5514,-3.5514,-3.5514,-3.5487,-3.5021,-3.4095,-3.3903,-3.3339,-3.2425,-3.2163,-3.2025,-3.194,0.0,0.0,-3.1539,-3.1511,-3.1511,-3.1511,-3.1511,-3.1511,-3.1511,-3.1511,-3.1511,-3.1511,0.0,0.0,0.0,0.0,0.0,0.0,0.0,0.0,0.0,0.0,-3.2002,-3.1875,0.0,0.0,0.0,0.0,0.0,0.0,0.0,0.0,0.0,0.0,-3.18,-3.18,-3.18,0.0,0.0,0.0,0.0,-3.1541,-3.1403,-3.1541,-3.1524,-3.1403,-3.1541,-3.161,-3.161,-3.1748,-3.18,-3.18,-3.18,-3.18,-3.18,-3.18,0.0,0.0,0.0,0.0,0.0,0.0,-3.131,-3.1086,-3.0879,-3.0881,-3.0919,-3.0992,-3.1004,-3.1038,-3.1157,-3.119,-3.119,-3.119,-3.119,-3.119,-3.119,-3.119,0.0,0.0,-3.119,-3.119,-3.119,-3.119,-3.119,-3.119,0.0,0.0,0.0,0.0,-3.119,0.0,0.0,0.0,0.0,0.0,0.0,0.0,0.0,-3.56,-3.5577,-3.56,-3.56,-3.5577,-3.5577,-3.5577,-3.5577,-3.5155,-3.4857,-3.4649,-3.421,-3.3869,-3.3681,-3.3521,-3.3209,-3.2761,-3.2504,0.0,-3.1727,-3.1568,-3.1511,-3.1511,-3.1511,-3.1511,-3.1511,-3.1511,-3.1511,-3.1511,0.0,0.0,0.0,0.0,0.0,0.0,0.0,-3.2406,-3.2354,-3.2214,-3.2126,-3.202,-3.1965,-3.1893,-3.1839,0.0,0.0,0.0,0.0,0.0,0.0,0.0,0.0,0.0,0.0,0.0,0.0,0.0,0.0,0.0,0.0,0.0,0.0,0.0,0.0,0.0,0.0,-3.18,-3.18,0.0,0.0,0.0,0.0,0.0,0.0,0.0,0.0,0.0,0.0,0.0,-3.1519,-3.146,-3.1249,-3.1291,-3.1368,-3.1249,-3.119,-3.119,-3.119,-3.119,-3.119,-3.119,-3.119,-3.119,-3.119,0.0,0.0,0.0,-3.119,-3.119,-3.119,0.0,0.0,0.0,0.0,0.0,0.0,0.0,0.0,0.0,0.0,0.0,0.0,0.0,0.0,0.0,0.0,-3.56,-3.56,-3.56,-3.56,-3.56,-3.56,-3.56,-3.56,-3.5339,-3.5085,-3.4793,-3.4553,-3.4284,-3.4011,-3.3853,-3.3521,-3.2986,-3.2788,0.0,-3.1799,-3.1698,-3.1597,-3.1511,-3.1511,-3.1568,-3.1641,-3.1539,-3.1568,-3.1641,0.0,0.0,0.0,0.0,0.0,0.0,0.0,-3.2406,-3.2354,-3.2249,-3.2249,-3.2232,-3.2179,-3.202,-3.193,0.0,0.0,0.0,0.0,0.0,0.0,0.0,0.0,0.0,0.0,0.0,0.0,0.0,0.0,0.0,0.0,0.0,0.0,0.0,0.0,0.0,0.0,0.0,0.0,0.0,0.0,0.0,0.0,0.0,0.0,0.0,0.0,0.0,0.0,0.0,-3.1578,-3.1536,-3.1327,-3.1346,-3.1423,-3.1249,-3.119,-3.119,-3.119,-3.119,-3.119,-3.119,-3.119,-3.119,-3.119,-3.119,0.0,0.0,-3.119,-3.119,-3.119,0.0,-3.119,0.0,-3.119,0.0,0.0,0.0,0.0,0.0,0.0,0.0,0.0,0.0,0.0,0.0,0.0,0.0,-3.56,-3.56,-3.56,-3.56,-3.56,-3.56,-3.56,-3.56,-3.5402,-3.4975,-3.4975,-3.4745,-3.4333,-3.4227,-3.3887,-3.3365,-3.3235,0.0,0.0,-3.2025,-3.184,-3.1626,-3.1626,-3.1712,-3.1813,-3.1626,-3.1745,-3.1966,0.0,0.0,0.0,0.0,0.0,0.0,0.0,-3.2406,-3.2406,-3.2371,-3.2371,-3.2371,-3.2371,-3.2196,-3.202,0.0,0.0,0.0,0.0,0.0,0.0,0.0,0.0,0.0,0.0,0.0,0.0,0.0,0.0,0.0,0.0,0.0,0.0,0.0,0.0,0.0,0.0,0.0,0.0,0.0,0.0,0.0,0.0,0.0,0.0,0.0,0.0,0.0,0.0,0.0,0.0,-3.1744,-3.1536,-3.1387,-3.1312,-3.123,0.0,0.0,-3.119,-3.119,-3.119,-3.119,-3.119,-3.119,-3.119,0.0,0.0,-3.119,-3.119,-3.119,-3.119,-3.119,-3.119,-3.119,0.0,-3.119,0.0,0.0,0.0,0.0,0.0,0.0,0.0,0.0,0.0,0.0,0.0,0.0,-3.56,-3.56,-3.56,-3.56,-3.56,-3.56,-3.56,-3.56,-3.5577,-3.5532,-3.5532,-3.5492,-3.5447,-3.5447,-3.5138,-3.4625,-3.4496,0.0,0.0,-3.2761,-3.241,-3.194,-3.194,-3.1968,-3.1968,-3.1813,-3.2117,-3.2614,0.0,0.0,0.0,0.0,0.0,0.0,-3.2406,-3.2406,-3.2406,-3.2406,-3.2406,-3.2406,-3.2406,-3.2336,-3.2214,-3.2055,0.0,0.0,0.0,0.0,0.0,0.0,0.0,0.0,0.0,0.0,0.0,0.0,0.0,0.0,0.0,0.0,0.0,0.0,0.0,0.0,0.0,0.0,0.0,0.0,0.0,0.0,0.0,0.0,0.0,0.0,0.0,0.0,0.0,0.0,0.0,0.0,-3.1578,-3.1447,0.0,0.0,-3.1232,-3.119,-3.119,-3.119,-3.119,-3.119,-3.119,-3.119,-3.119,0.0,-3.119,-3.119,-3.119,-3.119,-3.119,-3.119,-3.119,-3.119,0.0,0.0,0.0,0.0,0.0,0.0,0.0,0.0,0.0,0.0,0.0,0.0,0.0,0.0,-3.56,-3.56,-3.56,-3.56,-3.56,-3.56,-3.56,-3.56,-3.56,-3.56,-3.56,-3.56,-3.56,-3.56,-3.5293,-3.4793,-3.4745,0.0,0.0,-3.3401,-3.3251,-3.3007,-3.3457,-3.3466,-3.3253,-3.3558,-3.3623,-3.359,0.0,0.0,0.0,0.0,0.0,-3.2406,-3.2406,-3.2406,-3.2406,-3.2406,-3.2406,-3.2406,-3.2406,-3.2406,-3.2319,-3.2108,-3.2002,0.0,0.0,0.0,0.0,0.0,0.0,0.0,0.0,0.0,0.0,0.0,0.0,0.0,0.0,0.0,0.0,0.0,0.0,0.0,0.0,0.0,0.0,0.0,0.0,0.0,0.0,0.0,0.0,0.0,0.0,0.0,0.0,0.0,0.0,0.0,0.0,0.0,0.0,0.0,-3.1291,-3.121,-3.1213,-3.123,-3.119,-3.119,-3.119,-3.119,0.0,0.0,-3.119,-3.119,-3.119,-3.119,-3.119,-3.119,-3.119,-3.119,0.0,-3.119,-3.119,0.0,0.0,0.0,0.0,0.0,0.0,0.0,0.0,0.0,0.0,0.0,0.0,-3.56,-3.56,-3.56,-3.56,-3.56,-3.56,-3.56,-3.56,-3.56,-3.56,-3.56,-3.56,-3.56,-3.5402,-3.5038,0.0,0.0,0.0,-3.4453,-3.4415,-3.4452,-3.4967,-3.4974,-3.4725,-3.509,-3.514,-3.4969,0.0,0.0,0.0,0.0,0.0,0.0,-3.2406,-3.2406,-3.2406,-3.2406,-3.2406,-3.2406,-3.2406,-3.2406,-3.2319,-3.2108,-3.209,0.0,0.0,0.0,0.0,0.0,0.0,0.0,0.0,0.0,-3.18,-3.18,-3.18,-3.18,0.0,0.0,0.0,0.0,0.0,0.0,0.0,0.0,0.0,0.0,0.0,0.0,0.0,0.0,0.0,0.0,0.0,0.0,0.0,0.0,0.0,0.0,0.0,0.0,0.0,0.0,-3.1363,-3.121,-3.1293,-3.1252,-3.119,-3.119,-3.119,-3.119,0.0,0.0,-3.119,-3.119,-3.119,-3.119,-3.119,-3.119,-3.119,-3.119,-3.119,0.0,-3.119,0.0,0.0,0.0,0.0,0.0,0.0,0.0,0.0,0.0,0.0,0.0,0.0,-3.56,-3.56,-3.56,-3.56,-3.56,-3.56,-3.56,-3.56,-3.56,-3.56,-3.56,-3.56,-3.56,-3.56,0.0,0.0,0.0,0.0,-3.5967,-3.609,-3.6273,-3.6289,-3.6289,-3.6263,-3.6055,-3.6411,-3.6885,0.0,0.0,0.0,0.0,0.0,0.0,0.0,-3.2406,-3.2406,-3.2406,-3.2406,-3.2406,-3.2406,-3.2406,-3.2319,-3.2108,-3.209,0.0,0.0,0.0,0.0,0.0,0.0,0.0,0.0,0.0,-3.18,-3.18,-3.18,-3.18,-3.18,-3.18,0.0,0.0,0.0,0.0,0.0,0.0,0.0,0.0,0.0,0.0,0.0,0.0,0.0,0.0,0.0,0.0,0.0,0.0,0.0,0.0,0.0,0.0,0.0,-3.1671,0.0,0.0,-3.1295,-3.1252,-3.121,-3.1271,-3.1232,-3.121,-3.1271,0.0,-3.119,-3.119,-3.119,-3.119,-3.119,-3.119,-3.119,-3.119,-3.119,0.0,0.0,0.0,0.0,0.0,0.0,0.0,0.0,0.0,0.0,0.0,0.0,0.0,0.0,-3.56,-3.56,-3.56,-3.56,-3.56,-3.56,-3.56,-3.56,-3.56,-3.56,-3.56,-3.56,-3.56,0.0,0.0,0.0,0.0,0.0,-3.7076,-3.734,-3.7444,-3.7953,-3.7893,-3.7564,-3.8031,-3.8074,-3.7854,0.0,0.0,0.0,0.0,0.0,0.0,0.0,-3.2406,-3.2406,-3.2406,-3.2406,-3.2406,-3.2406,-3.2406,-3.2319,-3.2108,-3.209,0.0,0.0,0.0,0.0,0.0,0.0,0.0,-3.18,-3.18,-3.18,-3.18,-3.18,-3.18,-3.18,-3.18,-3.18,-3.18,0.0,0.0,0.0,0.0,0.0,0.0,0.0,0.0,-3.18,0.0,0.0,0.0,0.0,0.0,0.0,0.0,0.0,0.0,0.0,0.0,0.0,0.0,0.0,0.0,0.0,-3.131,-3.1252,-3.1271,-3.1232,0.0,0.0,0.0,-3.119,-3.119,-3.119,-3.119,-3.119,-3.119,-3.119,-3.119,-3.119,0.0,0.0,0.0,0.0,0.0,0.0,0.0,0.0,0.0,0.0,0.0,0.0,0.0,0.0,-3.56,-3.56,-3.56,-3.56,-3.56,-3.56,-3.56,-3.56,-3.56,-3.56,-3.56,-3.56,-3.56,0.0,0.0,0.0,0.0,0.0,-3.8007,-3.8481,-3.8768,-3.9225,-3.9177,-3.8914,-3.9382,-3.9295,-3.8957,0.0,0.0,0.0,0.0,0.0,0.0,0.0,-3.2406,-3.2406,-3.2406,-3.2406,-3.2406,-3.2406,-3.2388,-3.2319,-3.2108,0.0,0.0,0.0,0.0,0.0,0.0,0.0,0.0,-3.18,-3.18,-3.18,-3.18,-3.18,-3.18,-3.18,-3.18,-3.18,-3.18,-3.18,-3.18,-3.18,-3.18,-3.18,-3.18,-3.18,-3.18,0.0,0.0,0.0,0.0,0.0,0.0,0.0,0.0,0.0,0.0,0.0,0.0,0.0,0.0,0.0,0.0,0.0,0.0,0.0,0.0,0.0,0.0,0.0,0.0,0.0,-3.119,-3.119,-3.119,-3.119,-3.119,-3.119,-3.119,-3.119,0.0,0.0,0.0,0.0,0.0,0.0,0.0,0.0,0.0,0.0,0.0,0.0,0.0,0.0,-3.56,-3.56,-3.56,-3.56,-3.56,-3.56,-3.56,-3.56,-3.56,-3.56,-3.56,-3.56,-3.56,0.0,0.0,0.0,0.0,0.0,-3.8751,-3.9486,-4.0096,-4.0096,-4.0096,-4.0096,-4.0096,-4.0096,-4.002,0.0,0.0,0.0,0.0,0.0,0.0,0.0,0.0,0.0,0.0,-3.2406,-3.2406,-3.2406,-3.2319,-3.2214,0.0,0.0,0.0,0.0,0.0,0.0,0.0,0.0,0.0,-3.18,-3.18,-3.18,-3.18,-3.18,-3.18,-3.18,-3.18,-3.18,-3.18,-3.18,-3.18,-3.18,-3.18,-3.18,-3.18,-3.18,-3.18,0.0,0.0,0.0,0.0,-3.18,-3.18,0.0,0.0,0.0,0.0,0.0,0.0,0.0,0.0,-3.1781,0.0,0.0,0.0,0.0,0.0,0.0,0.0,0.0,0.0,0.0,0.0,0.0,0.0,0.0,-3.119,-3.119,-3.119,0.0,0.0,0.0,0.0,0.0,0.0,0.0,0.0,0.0,0.0,0.0,0.0,0.0,0.0,0.0,-3.56,-3.56,-3.56,-3.56,-3.56,-3.56,-3.56,-3.56,-3.56,-3.56,-3.56,-3.56,-3.56,0.0,0.0,0.0,0.0,-3.8007,-3.9292,-3.9943,-4.0096,-4.0096,-4.0096,-4.0096,-4.0096,-4.0096,-4.007,0.0,0.0,0.0,0.0,0.0,0.0,0.0,0.0,0.0,0.0,0.0,-3.2406,-3.2406,-3.2284,0.0,0.0,0.0,0.0,0.0,0.0,0.0,0.0,0.0,-3.18,-3.18,-3.18,-3.18,-3.18,-3.18,-3.18,-3.18,-3.18,-3.18,-3.18,-3.18,-3.18,-3.18,-3.18,-3.18,-3.18,-3.18,0.0,0.0,0.0,0.0,0.0,-3.18,-3.18,0.0,-3.18,-3.18,-3.18,0.0,0.0,0.0,0.0,-3.18,-3.1764,-3.1709,-3.156,-3.1466,-3.154,0.0,0.0,0.0,0.0,0.0,0.0,0.0,0.0,0.0,0.0,0.0,0.0,0.0,0.0,0.0,0.0,0.0,0.0,0.0,0.0,0.0,0.0,0.0,0.0,0.0,0.0,0.0,-3.56,-3.56,-3.56,-3.56,-3.56,-3.56,-3.56,-3.56,-3.56,-3.56,-3.56,-3.56,-3.56,-3.56,0.0,0.0,0.0,-3.8024,-3.9503,-4.0096,-4.0096,-4.0096,-4.0096,-4.0096,-4.0096,-4.0096,-4.0096,0.0,0.0,0.0,0.0,0.0,0.0,0.0,0.0,0.0,0.0,0.0,0.0,0.0,0.0,0.0,0.0,0.0,0.0,0.0,0.0,0.0,0.0,-3.18,-3.18,-3.18,-3.18,-3.18,-3.18,-3.18,-3.18,-3.18,-3.18,-3.18,-3.18,-3.18,-3.18,-3.18,-3.18,-3.18,-3.18,-3.18,0.0,0.0,0.0,0.0,0.0,0.0,0.0,0.0,-3.18,-3.18,-3.18,-3.18,0.0,0.0,0.0,0.0,0.0,-3.18,-3.1727,-3.1615,-3.1557,-3.1536,-3.1517,0.0,0.0,0.0,0.0,0.0,0.0,0.0,0.0,0.0,0.0,0.0,0.0,0.0,0.0,0.0,0.0,0.0,0.0,0.0,0.0,0.0,0.0,0.0,0.0,0.0,-3.56,-3.56,-3.56,-3.56,-3.56,-3.56,-3.56,-3.56,-3.56,-3.56,-3.56,-3.56,-3.56,-3.56,0.0,0.0,0.0,-3.8024,-3.9503,-4.0096,-4.0096,-4.0096,-4.0096,-4.0096,-4.0096,-4.0096,-4.0096,0.0,0.0,0.0,0.0,0.0,0.0,0.0,0.0,0.0,0.0,0.0,0.0,0.0,0.0,0.0,0.0,0.0,0.0,0.0,0.0,0.0,-3.18,-3.18,-3.18,-3.18,-3.18,-3.18,-3.18,-3.18,-3.18,-3.18,-3.18,-3.18,-3.18,-3.18,-3.18,-3.18,-3.18,-3.18,-3.18,-3.18,0.0,0.0,0.0,0.0,0.0,0.0,0.0,0.0,-3.18,-3.18,-3.18,-3.18,0.0,0.0,0.0,0.0,0.0,-3.18,-3.1764,-3.1781,-3.1763,-3.1671,-3.1579,-3.1579,-3.1521,0.0,0.0,0.0,0.0,0.0,0.0,0.0,0.0,0.0,0.0,0.0,0.0,0.0,0.0,0.0,0.0,0.0,0.0,0.0,0.0,0.0,0.0,0.0,-3.56,-3.56,-3.56,-3.56,-3.56,-3.56,-3.56,-3.56,-3.56,-3.56,-3.56,-3.56,-3.56,-3.56,0.0,0.0,-3.7905,-3.8024,-3.9503,-4.0096,-4.0096,-4.0096,-4.0096,-4.0096,-4.0096,-4.0096,-4.0096,0.0,0.0,0.0,0.0,0.0,0.0,0.0,0.0,0.0,0.0,0.0,0.0,0.0,0.0,0.0,0.0,0.0,0.0,0.0,0.0,-3.18,-3.18,-3.18,-3.18,-3.18,-3.18,-3.18,-3.18,-3.18,-3.18,-3.18,-3.18,-3.18,-3.18,-3.18,-3.18,-3.18,-3.18,-3.18,-3.18,0.0,0.0,0.0,0.0,0.0,0.0,0.0,0.0,0.0,0.0,-3.18,-3.18,-3.18,0.0,0.0,0.0,0.0,0.0,-3.18,-3.18,-3.18,-3.18,-3.1709,-3.1598,-3.1598,-3.1485,0.0,0.0,0.0,0.0,0.0,0.0,0.0,0.0,0.0,0.0,0.0,0.0,0.0,0.0,0.0,0.0,0.0,0.0,0.0,0.0,0.0,0.0,0.0,0.0,-3.56,-3.56,-3.56,-3.56,-3.56,-3.56,-3.56,-3.56,-3.56,-3.56,-3.56,-3.56,-3.5836,-3.6315,0.0,-3.8125,-3.8582,-3.9673,-4.0096,-4.0096,-4.0096,-4.0096,-4.0096,-4.0096,-4.0096,-4.0096,0.0,0.0,0.0,0.0,0.0,0.0,0.0,0.0,0.0,0.0,0.0,0.0,0.0,0.0,0.0,0.0,0.0,0.0,0.0,-3.18,-3.18,-3.18,-3.18,-3.18,-3.18,-3.18,-3.18,-3.18,-3.18,-3.18,-3.18,-3.18,-3.18,-3.18,-3.18,-3.18,-3.18,-3.18,-3.18,-3.18,0.0,0.0,0.0,0.0,0.0,0.0,0.0,0.0,0.0,0.0,0.0,0.0,0.0,0.0,0.0,-3.18,-3.18,-3.18,-3.18,-3.18,-3.1818,-3.1893,0.0,-3.1635,-3.1598,-3.1543,0.0,0.0,0.0,0.0,0.0,0.0,0.0,0.0,0.0,0.0,0.0,0.0,0.0,0.0,0.0,0.0,0.0,0.0,0.0,0.0,0.0,0.0,0.0,0.0,-3.56,-3.56,-3.56,-3.56,-3.56,-3.56,-3.56,-3.56,-3.56,-3.56,-3.56,-3.5785,-3.6214,-3.6846,-3.7753,-3.8481,-3.9056,-3.9808,-4.0096,-4.0096,-4.0096,-4.0096,-4.0096,-4.0096,-4.0096,-4.0096,0.0,0.0,0.0,0.0,0.0,0.0,0.0,0.0,0.0,0.0,0.0,0.0,0.0,0.0,0.0,0.0,0.0,0.0,0.0,-3.18,-3.18,-3.18,-3.18,-3.18,-3.18,-3.18,-3.18,-3.18,-3.18,-3.18,-3.18,-3.18,-3.18,-3.18,-3.18,-3.18,-3.18,-3.18,-3.18,-3.18,-3.18,0.0,0.0,0.0,0.0,0.0,0.0,0.0,0.0,0.0,0.0,0.0,0.0,0.0,-3.18,-3.18,-3.18,-3.18,-3.18,-3.18,-3.1874,-3.2197,-3.202,-3.1746,-3.1617,-3.1876,0.0,-3.1468,0.0,0.0,0.0,0.0,0.0,0.0,0.0,0.0,0.0,0.0,0.0,0.0,0.0,0.0,0.0,0.0,0.0,0.0,0.0,0.0,0.0,0.0,0.0,-3.56,-3.56,-3.56,-3.56,-3.56,-3.56,-3.56,-3.56,-3.56,-3.5616,-3.6366,-3.6745,-3.688,-3.8294,-3.8937,-3.9056,-3.9808,-4.0096,-4.0096,-4.0096,-4.0096,-4.0096,-4.0096,-4.0096,-4.0096,0.0,0.0,0.0,0.0,0.0,0.0,0.0,0.0,0.0,0.0,0.0,0.0,0.0,0.0,0.0,0.0,0.0,0.0,0.0,-3.18,-3.18,-3.18,-3.18,-3.18,-3.18,-3.18,-3.18,-3.18,-3.18,-3.18,-3.18,-3.18,-3.18,-3.18,-3.18,-3.18,-3.18,-3.18,-3.18,-3.18,-3.18,-3.18,0.0,0.0,0.0,0.0,0.0,0.0,0.0,0.0,-3.18,-3.18,-3.18,-3.18,-3.18,-3.18,-3.18,-3.18,-3.18,-3.18,-3.1874,-3.2214,-3.2197,0.0,0.0,-3.2334,-3.2384,-3.2401,-3.2485,0.0,0.0,0.0,0.0,0.0,0.0,0.0,0.0,0.0,0.0,0.0,0.0,0.0,0.0,0.0,0.0,0.0,0.0,0.0,0.0,0.0,0.0,-3.56,-3.56,-3.56,-3.56,-3.56,-3.5836,-3.6332,-3.5836,-3.5853,-3.6349,-3.666,-3.7303,-3.8193,-3.8751,-3.9242,-3.9706,-3.9994,-3.9842,-3.9436,-3.9436,-3.9706,-4.0096,-4.0096,-4.0096,-4.0096,0.0,0.0,0.0,0.0,0.0,0.0,0.0,0.0,0.0,0.0,0.0,0.0,0.0,0.0,0.0,0.0,0.0,0.0,-3.18,-3.18,-3.18,-3.18,-3.18,-3.18,-3.18,-3.18,-3.18,-3.18,-3.18,-3.18,-3.18,-3.18,-3.18,-3.18,-3.18,-3.18,-3.18,-3.18,-3.18,-3.18,-3.18,-3.18,0.0,0.0,0.0,0.0,0.0,0.0,0.0,0.0,-3.18,-3.18,-3.18,-3.18,-3.18,-3.18,-3.18,-3.18,-3.18,-3.18,-3.1874,-3.2214,0.0,0.0,-3.2669,-3.2731,-3.2777,-3.2892,-3.2957,0.0,0.0,0.0,0.0,0.0,0.0,0.0,0.0,0.0,0.0,0.0,0.0,0.0,0.0,0.0,0.0,0.0,0.0,0.0,0.0,0.0,0.0,0.0,-3.56,-3.56,-3.56,-3.5836,-3.6265,-3.6795,-3.6485,-3.662,-3.7144,-3.7405,-3.8065,-3.9005,-3.9266,-3.9639,-4.0079,-3.9859,-3.9334,-3.8667,-3.8903,-3.9292,-3.9791,-4.0011,-4.0096,-4.0096,0.0,0.0,0.0,0.0,0.0,0.0,0.0,0.0,0.0,0.0,0.0,0.0,0.0,0.0,0.0,0.0,0.0,0.0,-3.18,-3.18,-3.18,-3.18,-3.18,-3.18,-3.18,-3.18,-3.18,-3.18,-3.18,-3.18,-3.18,-3.18,-3.18,-3.18,-3.18,-3.18,-3.18,-3.18,-3.18,-3.18,-3.18,-3.18,-3.18,0.0,0.0,0.0,0.0,0.0,0.0,0.0,-3.18,-3.18,-3.18,-3.18,-3.18,-3.18,-3.18,-3.18,-3.18,-3.18,0.0,0.0,0.0,0.0,-3.2715,-3.3063,-3.3154,-3.2616,0.0,-3.2734,0.0,0.0,0.0,0.0,0.0,0.0,0.0,0.0,0.0,0.0,0.0,0.0,0.0,0.0,0.0,0.0,0.0,0.0,0.0,0.0,0.0,0.0,-3.56,-3.56,-3.56,-3.64,-3.6795,-3.6829,-3.755,-3.7922,-3.7939,-3.8667,-3.8988,-3.9039,-3.9791,-4.0096,-4.0028,-3.9276,-3.8548,-3.7973,-3.87,-3.8988,-3.9089,-3.9842,-4.0096,-4.0096,0.0,0.0,0.0,0.0,0.0,0.0,0.0,0.0,0.0,0.0,0.0,0.0,0.0,0.0,0.0,0.0,0.0,0.0,-3.2144,-3.1984,-3.1966,-3.2126,-3.1929,-3.18,-3.18,-3.18,-3.18,-3.18,-3.18,-3.18,-3.18,-3.18,-3.18,-3.18,-3.18,-3.18,-3.18,-3.18,-3.18,-3.18,-3.18,-3.1947,-3.2126,0.0,0.0,0.0,0.0,0.0,0.0,0.0,0.0,0.0,-3.18,-3.18,-3.18,-3.18,-3.18,-3.18,-3.18,-3.18,0.0,-3.2214,0.0,0.0,0.0,-3.3063,0.0,0.0,0.0,0.0,0.0,0.0,0.0,0.0,0.0,0.0,0.0,0.0,0.0,0.0,0.0,0.0,0.0,0.0,0.0,0.0,0.0,0.0,0.0,0.0,0.0,0.0,-3.56,-3.56,-3.56,-3.64,-3.7043,-3.7584,-3.8311,-3.8667,-3.8684,-3.8903,-3.9276,-3.9791,-4.0011,-3.9808,-3.9249,-3.798,-3.7618,-3.7922,-3.8142,-3.8531,-3.9089,-3.9842,-4.0096,-4.0096,0.0,0.0,0.0,0.0,0.0,0.0,0.0,0.0,0.0,0.0,-3.2406,-3.2371,0.0,0.0,0.0,0.0,0.0,0.0,0.0,-3.2402,-3.2368,-3.2536,-3.2197,-3.2086,-3.2231,-3.2231,-3.2231,-3.2231,-3.1938,-3.18,-3.18,-3.18,-3.18,-3.1818,-3.1947,-3.1984,-3.2002,-3.2144,-3.2197,-3.2197,-3.2197,-3.2318,-3.247,0.0,0.0,0.0,0.0,0.0,0.0,0.0,0.0,0.0,-3.18,-3.18,-3.18,-3.18,-3.18,-3.18,-3.18,0.0,0.0,-3.2214,-3.2301,-3.242,-3.2892,0.0,0.0,0.0,0.0,0.0,0.0,0.0,0.0,0.0,0.0,0.0,0.0,0.0,0.0,0.0,0.0,0.0,0.0,0.0,0.0,0.0,0.0,0.0,0.0,0.0,0.0,0.0,-3.5622,-3.56,-3.56,-3.64,-3.7161,-3.7922,-3.865,-3.914,-3.9453,-3.9453,-3.969,-4.0079,-3.9791,-3.9225,-3.8464,-3.7303,-3.6857,-3.7026,-3.7347,-3.7905,-3.865,-3.9402,-3.9859,-4.0096,0.0,0.0,0.0,0.0,0.0,0.0,0.0,0.0,0.0,0.0,-3.2457,-3.2371,0.0,0.0,0.0,0.0,0.0,0.0,0.0,-3.2934,-3.297,-3.3057,-3.2713,-3.2667,-3.299,-3.3007,-3.3007,-3.3007,-3.2196,-3.18,-3.18,-3.18,-3.1818,-3.1856,-3.2162,-3.2318,-3.2369,-3.2684,-3.2795,-3.2795,-3.2795,-3.2811,-3.2795,-3.2437,0.0,0.0,0.0,0.0,0.0,0.0,0.0,0.0,-3.18,-3.1837,-3.1838,-3.1818,-3.1837,-3.1838,-3.1818,0.0,0.0,-3.2214,-3.2301,0.0,0.0,0.0,0.0,0.0,0.0,0.0,0.0,0.0,0.0,0.0,0.0,0.0,0.0,0.0,0.0,0.0,0.0,0.0,0.0,0.0,0.0,0.0,0.0,0.0,0.0,0.0,0.0,-3.5795,-3.5667,-3.5622,-3.56,-3.64,-3.7161,0.0,-3.865,-3.9402,-4.0096,-4.0096,-4.0062,-3.996,-3.9208,-3.8481,-3.7736,-3.6992,-3.6265,-3.5667,-3.6508,-3.7195,-3.7905,-3.87,-3.9436,-4.0011,0.0,0.0,0.0,0.0,0.0,0.0,0.0,0.0,0.0,0.0,0.0,0.0,0.0,0.0,0.0,0.0,0.0,0.0,0.0,-3.3166,-3.3409,-3.4187,-3.4195,-3.4066,-3.3854,-3.3835,-3.3835,-3.3835,-3.2472,-3.18,-3.18,-3.18,-3.1947,-3.2214,-3.2266,-3.2453,-3.27,-3.2763,-3.2795,-3.2795,-3.2795,-3.297,-3.3124,-3.2537,-3.247,0.0,0.0,0.0,0.0,0.0,0.0,0.0,-3.18,-3.1966,-3.2144,-3.1874,-3.2001,-3.2144,0.0,-3.18,0.0,0.0,0.0,0.0,0.0,0.0,0.0,0.0,0.0,0.0,0.0,0.0,0.0,0.0,0.0,0.0,0.0,0.0,0.0,0.0,0.0,0.0,0.0,0.0,0.0,0.0,0.0,0.0,0.0,0.0,0.0,-3.5795,-3.5773,-3.5706,-3.56,-3.64,-3.7161,0.0,-3.865,-3.9402,-4.0096,-4.0096,-3.9791,-3.9191,-3.8464,-3.7719,-3.6998,-3.618,-3.5752,-3.5667,-3.6508,-3.6897,-3.7202,-3.8497,-3.9089,-3.9334,0.0,0.0,0.0,0.0,0.0,0.0,0.0,0.0,0.0,0.0,0.0,0.0,0.0,0.0,0.0,0.0,0.0,0.0,0.0,0.0,-3.4367,-3.4869,-3.5277,-3.5291,-3.4929,-3.473,-3.473,-3.4911,-3.319,-3.2334,-3.2317,-3.2121,-3.2144,-3.2318,-3.2636,-3.2876,-3.3063,-3.3214,-3.3288,-3.3288,-3.3288,-3.3375,-3.348,-3.297,-3.2797,-3.2731,-3.2231,0.0,0.0,0.0,0.0,0.0,0.0,0.0,-3.2055,-3.2037,-3.2055,0.0,0.0,0.0,0.0,-3.242,0.0,0.0,0.0,0.0,0.0,0.0,0.0,0.0,0.0,0.0,0.0,0.0,0.0,0.0,0.0,0.0,0.0,0.0,0.0,0.0,0.0,0.0,0.0,0.0,0.0,0.0,0.0,-3.6101,-3.6058,-3.5993,-3.5861,-3.5773,-3.5706,-3.6051,-3.6603,-3.7381,-3.8125,-3.9039,-4.0096,-3.974,-3.9343,-3.8937,-3.7838,-3.7144,-3.6745,-3.5943,-3.56,-3.5633,-3.6062,-3.6451,-3.6948,-3.8058,-3.87,-3.9106,0.0,0.0,0.0,0.0,0.0,0.0,0.0,0.0,0.0,0.0,0.0,0.0,0.0,0.0,0.0,0.0,0.0,0.0,0.0,0.0,0.0,-3.5286,-3.6005,-3.631,-3.6102,-3.5695,-3.5673,-3.5988,-3.4107,-3.3189,-3.3171,-3.2581,-3.2369,-3.2487,-3.3047,-3.3335,-3.3408,-3.368,-3.3807,-3.3807,-3.3807,-3.3807,-3.3762,-3.3422,-3.3124,-3.2842,-3.252,-3.2214,-3.1966,-3.1966,0.0,0.0,0.0,0.0,-3.2037,-3.23,0.0,0.0,0.0,0.0,-3.2179,0.0,0.0,0.0,0.0,0.0,0.0,0.0,0.0,0.0,0.0,0.0,0.0,0.0,0.0,0.0,0.0,0.0,0.0,0.0,0.0,0.0,0.0,0.0,0.0,0.0,0.0,0.0,-3.6208,-3.6208,-3.6208,-3.6204,-3.5971,-3.5839,-3.5795,-3.5706,-3.6034,-3.6812,-3.7686,-3.8717,-3.9893,-3.914,-3.8802,-3.8734,-3.7405,-3.6728,-3.6535,-3.5853,-3.56,-3.56,-3.56,-3.6011,-3.6694,-3.7432,-3.8176,-3.8903,0.0,0.0,0.0,0.0,0.0,0.0,0.0,0.0,0.0,0.0,-3.3881,0.0,0.0,0.0,0.0,0.0,0.0,0.0,0.0,0.0,0.0,-3.5614,-3.6391,-3.6945,-3.7254,-3.6877,-3.67,-3.6742,-3.5157,-3.4365,-3.4349,-3.295,-3.262,-3.3169,-3.3262,-3.3465,-3.3734,-3.3793,-3.3807,-3.3807,-3.3807,-3.3807,-3.3762,-3.3422,-3.3258,-3.3184,-3.2842,-3.2699,-3.2684,-3.2684,-3.2684,0.0,0.0,0.0,0.0,0.0,0.0,0.0,0.0,0.0,-3.3047,0.0,0.0,0.0,0.0,0.0,0.0,0.0,0.0,0.0,0.0,0.0,0.0,0.0,0.0,0.0,0.0,0.0,0.0,0.0,0.0,0.0,0.0,0.0,0.0,0.0,0.0,0.0,-3.628,-3.628,-3.6255,-3.6187,-3.6182,-3.6053,-3.5795,-3.5773,-3.6118,-3.6829,-3.8193,-3.8954,-3.9106,-3.8379,-3.8058,-3.8007,-3.7144,-3.64,-3.5752,-3.5633,-3.56,-3.56,-3.56,-3.5667,-3.5853,-3.6637,-3.7398,-3.8159,0.0,0.0,0.0,0.0,0.0,0.0,0.0,0.0,0.0,0.0,0.0,-3.4061,0.0,0.0,0.0,0.0,0.0,0.0,0.0,0.0,0.0,-3.5693,-3.6455,-3.6985,-3.716,-3.7219,-3.7246,-3.7246,-3.5686,-3.4925,-3.4854,-3.3496,-3.3016,-3.3306,-3.3494,-3.3666,-3.3807,-3.3807,-3.3807,-3.3807,-3.3807,-3.3807,-3.3775,-3.3638,-3.3465,-3.3291,-3.3139,-3.297,-3.2795,-3.2795,-3.2795,-3.2795,-3.2795,0.0,0.0,0.0,0.0,0.0,-3.2569,0.0,0.0,0.0,0.0,0.0,0.0,0.0,0.0,0.0,0.0,0.0,0.0,0.0,0.0,0.0,0.0,0.0,0.0,0.0,0.0,0.0,0.0,0.0,0.0,0.0,0.0,0.0,0.0,-3.686,-3.6638,-3.6638,-3.6512,-3.6255,-3.6208,-3.6122,-3.6031,-3.5883,-3.6141,-3.6812,-3.7472,-3.7973,-3.8362,-3.7618,-3.728,-3.7229,-3.6468,-3.5943,-3.56,-3.56,-3.56,-3.56,-3.56,-3.56,-3.5701,-3.6485,-3.7263,-3.8024,0.0,0.0,0.0,0.0,0.0,0.0,0.0,0.0,0.0,0.0,0.0,0.0,0.0,0.0,0.0,0.0,0.0,0.0,0.0,0.0,0.0,0.0,-3.6308,-3.6835,-3.7051,-3.7447,-3.765,-3.765,-3.6074,-3.5287,-3.5217,-3.4003,-3.3422,-3.3437,-3.3694,-3.3807,-3.3807,-3.3807,-3.3807,-3.3807,-3.3807,-3.3807,-3.3807,-3.3807,-3.3634,-3.3422,-3.3422,-3.3258,-3.3045,-3.3045,-3.3045,-3.3045,-3.3045,0.0,0.0,0.0,0.0,0.0,0.0,0.0,0.0,0.0,0.0,0.0,0.0,0.0,0.0,0.0,0.0,0.0,0.0,0.0,0.0,0.0,0.0,0.0,0.0,0.0,0.0,0.0,0.0,0.0,0.0,0.0,0.0,0.0,0.0,-3.7377,-3.7075,-3.6958,-3.6761,-3.6471,-3.6297,-3.6208,-3.6204,-3.5971,-3.6258,-3.703,-3.6893,-3.7176,-3.7778,-3.7096,-3.6694,-3.6451,-3.5853,-3.56,-3.56,-3.56,-3.56,-3.56,-3.56,-3.56,-3.5667,-3.6265,-3.7094,-3.799,0.0,0.0,0.0,0.0,0.0,0.0,0.0,0.0,0.0,0.0,0.0,0.0,-3.4197,-3.4197,-3.4197,-3.4197,0.0,0.0,0.0,0.0,0.0,0.0,0.0,0.0,-3.7444,-3.7851,-3.8068,-3.8068,-3.6459,-3.5682,-3.5645,-3.4359,-3.3762,-3.3762,-3.3775,-3.3807,-3.3807,-3.3807,-3.3807,-3.3807,-3.3807,-3.3807,-3.3807,-3.3807,-3.3793,-3.3762,-3.3762,-3.3762,-3.3748,-3.3748,-3.3748,-3.3748,0.0,0.0,0.0,0.0,0.0,0.0,0.0,0.0,0.0,0.0,0.0,0.0,0.0,0.0,0.0,0.0,0.0,0.0,0.0,0.0,0.0,0.0,0.0,0.0,0.0,0.0,0.0,0.0,0.0,0.0,0.0,0.0,0.0,0.0,0.0,-3.7487,-3.7469,-3.7113,-3.688,-3.686,-3.6492,-3.6255,-3.6204,-3.6058,-3.6552,-3.7662,-3.7136,-3.7108,-3.7508,-3.703,-3.6366,-3.565,-3.5616,-3.56,-3.56,-3.56,-3.56,-3.56,-3.56,-3.56,-3.56,-3.565,-3.6597,-3.7922,0.0,0.0,0.0,0.0,0.0,0.0,0.0,0.0,0.0,0.0,0.0,0.0,0.0,-3.4197,-3.4197,-3.4197,-3.4161,0.0,0.0,0.0,0.0,0.0,0.0,0.0,-3.6761,-3.7448,-3.7661,-3.7451,-3.6583,-3.5753,-3.4981,-3.4164,-3.3807,-3.3807,-3.3807,-3.3807,-3.3807,-3.3807,-3.3807,-3.3807,-3.3807,-3.3807,-3.3807,-3.3807,-3.3807,0.0,0.0,0.0,0.0,0.0,0.0,0.0,0.0,0.0,0.0,0.0,0.0,0.0,0.0,0.0,0.0,0.0,0.0,0.0,0.0,0.0,0.0,0.0,0.0,0.0,0.0,0.0,0.0,0.0,0.0,0.0,0.0,0.0,0.0,0.0,0.0,0.0,0.0,0.0,0.0,0.0,0.0,0.0,-3.786,-3.7738,-3.756,-3.7284,-3.7151,-3.7036,-3.6902,-3.6865,-3.7025,-3.7382,-3.7186,-3.7166,-3.7306,-3.7024,-3.6762,-3.6481,-3.6178,-3.5871,-3.56,-3.56,-3.56,-3.56,-3.56,-3.56,-3.56,-3.56,-3.6282,-3.7246,0.0,0.0,0.0,0.0,0.0,0.0,0.0,0.0,0.0,-3.4197,0.0,0.0,0.0,0.0,-3.4197,-3.4197,-3.4161,-3.4086,-3.3972,-3.3972,0.0,0.0,0.0,0.0,0.0,-3.6813,-3.7114,-3.6866,-3.6258,-3.554,-3.471,-3.4092,-3.3807,-3.3807,-3.3807,-3.3807,-3.3807,-3.3807,-3.3807,-3.3807,-3.3807,-3.3807,-3.3807,0.0,0.0,0.0,0.0,0.0,0.0,0.0,0.0,0.0,0.0,0.0,0.0,0.0,0.0,0.0,-3.3522,0.0,0.0,0.0,0.0,0.0,0.0,0.0,0.0,0.0,0.0,0.0,0.0,0.0,0.0,0.0,0.0,0.0,0.0,0.0,0.0,0.0,0.0,0.0,0.0,0.0,0.0,0.0,0.0,0.0,-3.7881,-3.7769,-3.7643,-3.7506,-3.7505,-3.7451,-3.7378,-3.7378,-3.7415,-3.7506,-3.7323,-3.7304,-3.7433,-3.7173,-3.7058,-3.7039,-3.6741,-3.6308,-3.5805,-3.565,-3.56,-3.56,-3.56,-3.56,-3.56,-3.56,-3.6113,-3.6914,0.0,0.0,0.0,0.0,0.0,0.0,0.0,0.0,-3.4197,-3.4197,0.0,0.0,0.0,0.0,0.0,-3.4197,-3.4197,-3.4173,-3.4099,-3.4099,0.0,0.0,0.0,0.0,-3.5296,-3.6071,-3.6431,-3.6362,-3.5519,-3.5055,-3.4949,-3.4174,-3.3807,-3.3788,-3.3807,-3.3807,-3.3807,-3.3807,-3.3807,-3.3807,0.0,-3.3807,-3.3807,0.0,0.0,0.0,-3.3807,-3.3807,0.0,-3.3807,0.0,0.0,0.0,0.0,0.0,0.0,0.0,0.0,0.0,0.0,0.0,0.0,0.0,0.0,0.0,0.0,0.0,0.0,0.0,0.0,0.0,0.0,0.0,0.0,0.0,0.0,0.0,0.0,0.0,0.0,0.0,0.0,0.0,0.0,0.0,0.0,0.0,-3.6597,-3.7419,-3.7132,-3.7101,-3.7506,-3.7542,-3.7542,-3.7542,-3.7542,-3.7721,-3.8118,-3.7578,-3.7542,-3.7911,-3.7451,-3.7229,-3.7247,-3.721,-3.69,-3.6322,-3.5827,-3.5622,-3.5622,-3.56,-3.56,-3.56,-3.56,-3.6096,-3.688,0.0,0.0,0.0,0.0,0.0,0.0,-3.4197,-3.4197,-3.4197,0.0,0.0,0.0,-3.4197,-3.4197,-3.4185,-3.4136,-3.4124,-3.4099,-3.4036,-3.4023,-3.4023,-3.3998,-3.4238,-3.4689,-3.5351,-3.5539,-3.565,-3.5676,-3.5329,-3.4879,-3.4265,-3.3952,-3.3834,-3.3868,-3.3815,-3.3807,-3.3807,-3.3807,0.0,-3.3807,-3.3807,-3.3807,0.0,0.0,0.0,0.0,0.0,-3.3807,-3.3807,0.0,-3.3807,-3.3807,0.0,0.0,0.0,0.0,0.0,0.0,-3.3807,0.0,0.0,0.0,0.0,0.0,0.0,0.0,0.0,0.0,0.0,0.0,0.0,0.0,0.0,0.0,0.0,0.0,0.0,0.0,0.0,0.0,0.0,0.0,0.0,0.0,0.0,0.0,-3.5353,-3.572,-3.6578,-3.7073,-3.7658,-3.835,-3.8368,-3.8368,-3.8368,-3.8368,-3.8417,-3.853,-3.8366,-3.8366,-3.8465,-3.8232,-3.8132,-3.8115,-3.7773,-3.7542,-3.7322,-3.6501,-3.6156,-3.6067,-3.5717,-3.56,-3.56,-3.56,-3.5735,-3.6129,0.0,0.0,0.0,0.0,0.0,-3.4197,-3.4197,-3.4197,-3.4197,0.0,0.0,0.0,-3.4197,-3.4197,-3.4185,-3.4148,-3.4124,-3.4099,-3.4086,-3.4061,-3.4049,-3.4086,-3.4086,-3.434,-3.489,-3.4852,-3.4858,-3.4871,-3.4781,-3.4497,-3.3998,-3.3881,-3.3855,-3.3895,-3.3815,-3.3807,-3.3807,0.0,0.0,0.0,-3.3807,0.0,0.0,-3.3807,-3.3807,0.0,0.0,0.0,-3.3807,-3.3807,-3.3807,0.0,0.0,0.0,0.0,0.0,0.0,0.0,0.0,0.0,0.0,0.0,0.0,0.0,0.0,-3.3807,0.0,0.0,0.0,0.0,0.0,0.0,0.0,0.0,0.0,0.0,0.0,0.0,0.0,0.0,0.0,0.0,0.0,0.0,0.0,-3.4454,-3.4491,-3.4857,-3.5701,-3.6868,-3.7713,-3.8175,-3.8524,-3.8707,-3.8707,-3.8707,-3.8707,-3.8707,-3.8707,-3.8707,-3.8707,-3.8624,-3.8575,-3.8559,-3.8283,-3.8133,-3.8032,-3.7305,-3.6902,-3.6641,-3.6357,-3.6122,-3.5941,-3.5941,-3.5805,-3.5819,0.0,0.0,-3.4197,-3.4197,-3.4197,-3.4197,-3.4197,-3.4197,-3.4197,0.0,-3.4197,-3.4197,-3.4197,-3.4197,-3.4197,-3.4197,-3.4148,-3.4136,-3.4197,-3.4148,-3.4136,-3.4197,-3.4197,-3.4197,-3.4197,-3.4197,-3.4161,-3.4099,-3.4099,-3.4061,-3.3998,-3.3934,-3.3895,-3.3895,-3.3815,0.0,-3.3807,0.0,0.0,-3.3807,-3.3807,-3.3807,0.0,0.0,-3.3807,-3.3807,-3.3807,-3.3807,-3.3807,-3.3807,-3.3807,0.0,0.0,0.0,0.0,0.0,-3.3807,0.0,0.0,0.0,0.0,0.0,0.0,0.0,-3.3807,-3.3807,-3.3807,0.0,0.0,0.0,0.0,0.0,0.0,0.0,0.0,0.0,0.0,0.0,0.0,0.0,0.0,0.0,0.0,-3.3807,-3.3807,-3.3807,-3.3807,-3.4156,-3.4968,-3.6413,-3.7309,-3.7492,-3.8193,-3.8615,-3.8707,-3.8707,-3.8707,-3.8707,-3.8707,-3.8707,-3.8707,-3.8707,-3.8707,-3.8707,-3.8707,-3.8624,-3.8494,-3.8132,-3.7702,-3.7266,-3.7228,-3.6921,-3.6498,-3.6498,-3.6203,-3.6004,0.0,0.0,-3.4197,-3.4197,-3.4197,-3.4197,-3.4197,-3.4197,-3.4197,-3.4197,-3.4197,-3.4197,-3.4197,-3.4197,-3.4197,-3.4197,-3.4185,-3.4185,-3.4197,-3.4185,-3.4185,-3.4197,-3.4197,-3.4197,-3.4197,-3.4148,-3.4111,-3.4099,-3.4049,-3.4011,-3.3998,-3.3934,-3.3895,-3.3895,-3.3815,-3.3807,0.0,0.0,0.0,-3.3807,-3.3807,0.0,-3.3807,-3.3807,-3.3807,-3.3807,-3.3807,-3.3807,-3.3807,-3.3807,-3.3807,-3.3807,0.0,0.0,0.0,0.0,0.0,0.0,0.0,0.0,0.0,0.0,0.0,0.0,-3.3807,-3.3807,-3.3807,0.0,0.0,0.0,0.0,0.0,0.0,0.0,0.0,0.0,0.0,0.0,0.0,0.0,0.0,0.0,0.0,-3.3807,-3.3807,-3.3807,-3.3807,-3.4156,-3.4968,-3.5316,-3.6119,-3.7456,-3.7658,-3.8046,-3.8689,-3.8707,-3.8707,-3.8707,-3.8707,-3.8707,-3.8707,-3.8707,-3.8707,-3.8707,-3.8707,-3.8692,-3.8658,-3.8578,-3.8201,-3.7649,-3.734,-3.7152,-3.7039,-3.7039,-3.6981,-3.7112,0.0,-3.4197,-3.4197,-3.4197,-3.4197,-3.4197,-3.4197,-3.4197,-3.4197,-3.4197,-3.4197,-3.4197,-3.4197,-3.4197,-3.4197,-3.4197,-3.4173,-3.4161,-3.4197,-3.4173,-3.4173,-3.4197,-3.4197,-3.4197,-3.4197,-3.4173,-3.4148,-3.4148,-3.4124,-3.4086,-3.4049,-3.4023,-3.3959,-3.3895,-3.3855,-3.3815,0.0,0.0,-3.3807,-3.3807,-3.3807,0.0,-3.3807,-3.3807,-3.3807,-3.3807,-3.3807,-3.3807,-3.3807,-3.3807,-3.3807,0.0,0.0,-3.3807,-3.3807,0.0,-3.3807,-3.3807,0.0,0.0,0.0,-3.3807,0.0,0.0,0.0,-3.3868,-3.3895,0.0,0.0,0.0,0.0,0.0,0.0,0.0,0.0,0.0,0.0,0.0,0.0,0.0,0.0,0.0,0.0,-3.3807,-3.3807,-3.3807,-3.3807,-3.3972,-3.438,-3.4784,-3.5389,-3.6229,-3.707,-3.7694,-3.8102,-3.8505,-3.8707,-3.8707,-3.8707,-3.8707,-3.8707,-3.8707,-3.8707,-3.8707,-3.8707,-3.8707,-3.8707,-3.8707,-3.8515,-3.8236,-3.8033,-3.7773,-3.7542,-3.7542,-3.7396,-3.7422,-3.4197,-3.4197,-3.4197,-3.4197,-3.4197,-3.4197,-3.4197,-3.4197,-3.4197,-3.4197,-3.4197,-3.4197,-3.4197,-3.4197,-3.4197,-3.4197,-3.4148,-3.4148,-3.4197,-3.4148,-3.4148,-3.4197,-3.4197,-3.4197,-3.4197,-3.4197,-3.4197,-3.4197,-3.4197,-3.4173,-3.4099,-3.4099,-3.4036,-3.3895,-3.3895,-3.3855,0.0,0.0,0.0,-3.3807,0.0,-3.3807,-3.3807,-3.3807,-3.3807,-3.3807,-3.3807,-3.3807,-3.3807,-3.3807,-3.3807,-3.3807,-3.3807,-3.3807,0.0,0.0,0.0,0.0,0.0,0.0,0.0,0.0,0.0,-3.3895,0.0,0.0,0.0,0.0,0.0,0.0,0.0,0.0,0.0,0.0,0.0,0.0,0.0,0.0,0.0,0.0,0.0,0.0,0.0,-3.3807,-3.3807,-3.3807,-3.3807,-3.3807,-3.3807,-3.4417,-3.4839,-3.5004,-3.6486,-3.7345,-3.7492,-3.8303,-3.8707,-3.8707,-3.8707,-3.8707,-3.8707,-3.8707,-3.8707,-3.8707,-3.8707,-3.8707,-3.8707,-3.8707,-3.8707,-3.8707,-3.8707,-3.8449,-3.8047,-3.8047,-3.7898,-3.7916,-3.4197,-3.4197,-3.4197,-3.4197,-3.4197,-3.4197,-3.4197,-3.4197,-3.4197,-3.4197,-3.4197,-3.4197,-3.4197,-3.4197,-3.4197,-3.4197,-3.4197,0.0,-3.4197,-3.4197,-3.4197,-3.4197,-3.4197,-3.4197,-3.4197,-3.4197,-3.4197,-3.4197,-3.4197,-3.4173,-3.4099,-3.4099,-3.4036,-3.3895,-3.3895,0.0,0.0,0.0,-3.3807,0.0,-3.3807,-3.3807,0.0,-3.3807,-3.3807,-3.3807,-3.3807,-3.3807,-3.3807,0.0,-3.3807,-3.3807,0.0,-3.3807,-3.3807,0.0,0.0,0.0,0.0,0.0,0.0,0.0,-3.3895,0.0,0.0,0.0,0.0,0.0,0.0,0.0,0.0,0.0,0.0,0.0,0.0,0.0,0.0,0.0,0.0,0.0,0.0,0.0,0.0,0.0,-3.3807,-3.3807,-3.3807,-3.3807,-3.3807,-3.3899,-3.4266,-3.4986,-3.5936,-3.6795,-3.7492,-3.8303,-3.8707,-3.8707,-3.8707,-3.8707,-3.8707,-3.8707,-3.8707,-3.8707,-3.8707,-3.8707,-3.8707,-3.8707,-3.8707,-3.8707,-3.8707,-3.8658,-3.8611,-3.8611,-3.9035,-3.9735,-3.4197,-3.4197,-3.4197,-3.4197,-3.4197,-3.4197,-3.4197,-3.4197,-3.4197,-3.4197,-3.4197,-3.4197,-3.4197,0.0,0.0,0.0,0.0,-3.4197,0.0,0.0,-3.4197,-3.4197,-3.4197,-3.4197,-3.4197,-3.4197,-3.4197,-3.4197,-3.4197,-3.4173,-3.4099,-3.4136,-3.4074,-3.3895,-3.3985,0.0,-3.3873,0.0,-3.3873,0.0,0.0,0.0,0.0,-3.3807,-3.3807,-3.3807,-3.3807,-3.3807,-3.3807,0.0,-3.3807,0.0,0.0,0.0,0.0,0.0,0.0,0.0,0.0,0.0,0.0,0.0,0.0,0.0,-3.3998,0.0,-3.4124,0.0,0.0,0.0,0.0,0.0,0.0,0.0,0.0,0.0,0.0,0.0,0.0,0.0,0.0,0.0,0.0,0.0,0.0,0.0,0.0,-3.3807,-3.3807,-3.3807,-3.3954,-3.4289,-3.5114,-3.5954,-3.6813,-3.7603,-3.823,-3.8707,-3.8707,-3.8707,-3.8707,-3.8707,-3.8707,-3.8707,-3.8707,-3.8707,-3.8707,-3.8707,-3.8707,-3.8707,-3.8707,-3.8707,-3.8707,-3.8707,-3.9203,-4.001,-3.4197,-3.4197,-3.4197,-3.4197,-3.4197,-3.4197,-3.4197,-3.4197,-3.4197,-3.4197,-3.4401,0.0,-3.455,-3.455,0.0,0.0,-3.4327,-3.4197,0.0,0.0,-3.4197,0.0,0.0,0.0,-3.4197,-3.4197,-3.4197,-3.4197,-3.4197,-3.4173,-3.4136,-3.4173,-3.4111,-3.3959,0.0,-3.4023,-3.3921,0.0,0.0,-3.3921,-3.3842,-3.382,-3.3807,-3.3807,-3.3807,-3.3807,-3.3807,-3.3807,-3.3807,-3.3807,-3.3807,0.0,-3.3815,0.0,0.0,0.0,0.0,0.0,-3.3829,0.0,0.0,0.0,0.0,0.0,0.0,0.0,0.0,0.0,0.0,0.0,0.0,0.0,0.0,0.0,0.0,0.0,0.0,0.0,0.0,0.0,0.0,0.0,0.0,0.0,0.0,-3.3815,-3.3834,-3.3815,-3.3807,-3.3807,-3.3807,-3.3807,-3.4582,-3.5426,-3.6285,-3.7107,-3.7915,-3.8707,-3.8707,-3.8707,-3.8707,-3.8707,-3.8707,-3.8707,-3.8707,-3.8707,-3.8707,-3.8707,-3.8707,-3.8707,-3.8707,-3.8707,-3.8707,-3.8707,-3.935,-4.0304,-3.4197,-3.4197,-3.4197,0.0,0.0,-3.4197,-3.4197,-3.4197,-3.4197,0.0,0.0,0.0,0.0,0.0,0.0,0.0,0.0,-3.4197,-3.4197,0.0,-3.4197,0.0,0.0,-3.4197,0.0,-3.4197,-3.4197,-3.4197,-3.4197,-3.4197,-3.4197,-3.4197,-3.4161,-3.4086,-3.4036,-3.3998,-3.3998,-3.3921,-3.3934,-3.3985,-3.3921,-3.3873,-3.3807,0.0,-3.3807,-3.3807,-3.3807,0.0,0.0,-3.3807,-3.3807,0.0,0.0,0.0,0.0,0.0,0.0,0.0,0.0,0.0,0.0,-3.3972,0.0,0.0,0.0,0.0,-3.4197,0.0,0.0,0.0,0.0,0.0,0.0,0.0,0.0,0.0,0.0,0.0,0.0,0.0,0.0,0.0,0.0,0.0,0.0,-3.3895,-3.3895,-3.3868,-3.3788,-3.3807,-3.3807,-3.3807,-3.4582,-3.5426,-3.6285,-3.7107,-3.7915,-3.8707,-3.8707,-3.8707,-3.8707,-3.8707,-3.8707,-3.8707,-3.8707,-3.8707,-3.8707,-3.8707,-3.8707,-3.8707,-3.8707,-3.8707,-3.8707,-3.8707,-3.9701,-4.1058,-3.4651,-3.4651,0.0,0.0,0.0,-3.4197,-3.4197,-3.4692,0.0,0.0,0.0,0.0,0.0,-3.629,-3.629,0.0,0.0,-3.5064,-3.5064,-3.4513,0.0,0.0,0.0,-3.4197,0.0,0.0,0.0,-3.4197,-3.4197,-3.4197,-3.4197,-3.4197,-3.4161,-3.4099,0.0,-3.4074,0.0,0.0,0.0,0.0,0.0,-3.4049,-3.3855,0.0,0.0,-3.3807,-3.3807,-3.3807,0.0,-3.3842,-3.3855,-3.3868,-3.3947,-3.3972,-3.3972,-3.3998,-3.3998,0.0,0.0,0.0,-3.3972,-3.3998,0.0,0.0,0.0,0.0,0.0,0.0,0.0,0.0,0.0,0.0,0.0,0.0,0.0,0.0,0.0,0.0,0.0,0.0,0.0,0.0,0.0,0.0,0.0,-3.3895,-3.3855,-3.3815,0.0,-3.3807,-3.3807,-3.3807,-3.4064,-3.489,-3.6285,-3.656,-3.7367,-3.8707,-3.8707,-3.8707,-3.8707,-3.8707,-3.8707,-3.8707,-3.8707,-3.8707,-3.8707,-3.8707,-3.8707,-3.8707,-3.8707,-3.8707,-3.8707,-3.8707,-3.9735,-4.1242,-3.4908,0.0,0.0,0.0,0.0,0.0,0.0,0.0,0.0,0.0,-3.6458,0.0,-3.7145,0.0,-3.7145,0.0,-3.6402,-3.5937,-3.5937,-3.5138,0.0,-3.4674,-3.4364,0.0,0.0,0.0,0.0,0.0,0.0,-3.4197,-3.4197,-3.4197,-3.4173,-3.4136,0.0,-3.4111,-3.4136,0.0,-3.4074,0.0,0.0,-3.4302,0.0,0.0,-3.4043,-3.3947,0.0,-3.4062,-3.4087,-3.4136,-3.416,-3.4196,-3.4255,-3.4279,-3.4298,-3.4302,-3.4262,-3.4233,-3.4274,-3.4227,0.0,-3.4274,-3.4321,0.0,-3.4293,0.0,0.0,0.0,0.0,0.0,0.0,0.0,0.0,0.0,0.0,0.0,0.0,0.0,0.0,0.0,0.0,0.0,0.0,0.0,-3.3972,-3.3908,-3.3881,-3.3842,0.0,0.0,-3.3807,-3.3807,-3.3807,-3.4596,-3.6266,-3.6303,-3.711,-3.8707,-3.8707,-3.8707,-3.8707,-3.8707,-3.8707,-3.8707,-3.8707,-3.8707,-3.8707,-3.8707,-3.8707,-3.8707,-3.8707,-3.8707,-3.8726,-3.9019,-4.0157,-4.1735,0.0,0.0,0.0,0.0,-3.4936,0.0,0.0,0.0,-3.5829,0.0,-3.7004,-3.8003,-3.8003,-3.8003,-3.8003,-3.8003,-3.7259,0.0,-3.6794,-3.6031,0.0,0.0,-3.4723,-3.4246,-3.4197,0.0,0.0,0.0,0.0,0.0,-3.4197,-3.4197,-3.4197,-3.4197,-3.4136,0.0,-3.4197,-3.4148,-3.4173,-3.4257,-3.4443,-3.4626,-3.478,-3.48,-3.462,-3.4374,-3.4517,-3.4607,-3.4668,-3.4716,-3.4747,-3.478,-3.484,-3.4831,-3.4821,-3.4879,-3.4771,-3.4636,-3.4772,-3.467,-3.4572,-3.4762,0.0,0.0,0.0,0.0,-3.4604,0.0,0.0,0.0,0.0,0.0,0.0,0.0,0.0,0.0,0.0,0.0,0.0,0.0,0.0,0.0,0.0,-3.4161,-3.4111,-3.3921,-3.3959,0.0,0.0,0.0,-3.3788,-3.3807,-3.3807,-3.4596,-3.6266,-3.6303,-3.711,-3.8707,-3.8707,-3.8707,-3.8707,-3.8707,-3.8707,-3.8707,-3.8707,-3.8707,-3.8707,-3.8707,-3.8707,-3.8707,-3.8707,-3.8762,-3.8909,-3.968,-4.0946,-4.2415,-3.5346,-3.5346,-3.5538,0.0,-3.5507,-3.5029,0.0,0.0,0.0,0.0,-3.859,-3.9297,-3.9297,-3.9297,-3.9297,-3.9297,-3.8573,0.0,0.0,0.0,0.0,-3.5758,-3.5503,-3.5018,-3.4228,-3.4197,0.0,-3.4197,0.0,0.0,-3.4197,-3.4197,-3.4197,-3.4197,0.0,0.0,-3.4209,-3.434,-3.452,-3.4742,-3.4936,-3.5277,0.0,0.0,-3.6384,-3.6556,-3.5809,-3.5551,-3.5667,-3.6371,-3.6192,-3.5673,-3.5741,-3.5353,-3.487,-3.4889,-3.4851,-3.484,-3.486,-3.4831,-3.4802,-3.486,-3.487,-3.4879,0.0,0.0,0.0,0.0,0.0,0.0,0.0,0.0,0.0,0.0,0.0,0.0,0.0,0.0,0.0,0.0,0.0,0.0,0.0,0.0,-3.4036,-3.3972,-3.3947,0.0,0.0,0.0,0.0,-3.3807,-3.3807,-3.4596,-3.6266,-3.6303,-3.711,-3.8707,-3.8707,-3.8707,-3.8707,-3.8707,-3.8707,-3.8707,-3.8707,-3.8707,-3.8707,-3.8707,-3.8707,-3.8707,-3.8707,-3.9441,-4.0508,-4.071,-4.1442,-4.2415,-3.55,0.0,0.0,-3.6615,0.0,0.0,-3.6594,0.0,0.0,-3.8254,-3.91,0.0,-3.9671,-3.9761,-3.9808,-3.9808,-3.9391,0.0,-3.9117,0.0,0.0,-3.7036,-3.6308,-3.5641,-3.5049,-3.47,0.0,-3.4363,0.0,0.0,-3.4197,-3.4197,-3.4257,-3.4363,0.0,-3.4397,0.0,-3.4628,-3.4812,-3.5065,-3.5531,0.0,0.0,-3.7026,-3.7467,-3.7687,-3.7468,-3.7109,-3.6871,-3.7375,-3.7259,-3.6877,-3.6922,-3.6625,-3.6177,-3.5787,-3.5621,-3.5501,-3.5228,-3.5098,-3.5054,-3.5132,-3.5157,-3.5132,-3.5054,-3.5037,-3.5037,0.0,0.0,0.0,0.0,0.0,0.0,0.0,0.0,0.0,0.0,0.0,0.0,0.0,0.0,0.0,0.0,0.0,0.0,0.0,0.0,0.0,0.0,0.0,0.0,-3.3788,-3.3807,-3.4596,-3.6266,-3.6303,-3.711,-3.8707,-3.8707,-3.8707,-3.8707,-3.8707,-3.8707,-3.8707,-3.8707,-3.8707,-3.8707,-3.8707,-3.8707,-3.8726,-3.9093,-3.9992,-4.1132,-4.148,-4.2139,-4.2892,0.0,0.0,0.0,0.0,0.0,0.0,0.0,-3.8433,0.0,-3.8565,0.0,-3.9621,-3.9621,-3.9794,-3.9893,-3.9893,0.0,-3.9893,-3.9893,-3.9238,-3.8782,-3.8657,-3.7157,-3.6245,-3.6102,-3.5315,0.0,0.0,0.0,0.0,-3.4305,-3.4305,-3.442,0.0,0.0,0.0,0.0,-3.4945,-3.5111,-3.5452,-3.6168,-3.6677,-3.7123,-3.7873,-3.8238,-3.843,-3.9188,-3.8877,-3.8097,-3.8212,-3.8216,-3.8161,-3.8161,-3.8084,-3.7853,-3.7084,-3.6757,-3.6468,-3.583,-3.5541,-3.5407,-3.5484,-3.55,-3.5446,-3.5273,-3.5242,-3.5242,-3.5242,-3.5098,-3.5081,0.0,0.0,0.0,0.0,0.0,0.0,0.0,0.0,0.0,0.0,0.0,0.0,0.0,0.0,0.0,0.0,0.0,0.0,0.0,0.0,0.0,-3.3788,-3.3807,0.0,-3.6266,0.0,-3.711,-3.8707,-3.8707,-3.8707,-3.8707,-3.8707,-3.8707,-3.8707,-3.8707,-3.8707,-3.8707,-3.8707,-3.8762,-3.8946,-3.9735,-4.0543,-4.1352,-4.2158,-4.2892,-4.3515,0.0,0.0,0.0,0.0,0.0,-3.9269,-3.99,-3.9541,-3.9336,-3.9805,-4.0127,-4.0319,-4.0319,-4.0364,-4.0389,-4.0389,-4.0389,0.0,0.0,0.0,0.0,-3.8964,-3.7962,-3.7003,-3.6131,-3.5315,-3.487,0.0,0.0,0.0,-3.4782,0.0,0.0,0.0,0.0,0.0,-3.5141,-3.5141,0.0,-3.6445,-3.6599,-3.7524,-3.8854,-3.9015,-3.9477,-4.0073,-4.0246,-3.9758,-3.9154,-3.9808,-3.9604,-3.9073,-3.9073,-3.8584,-3.7969,-3.7815,-3.7755,-3.7528,-3.6704,-3.6467,-3.6298,-3.5666,-3.55,-3.5493,-3.5465,-3.5446,-3.5446,-3.5446,-3.5424,-3.5361,-3.5266,0.0,0.0,0.0,0.0,0.0,0.0,0.0,0.0,0.0,0.0,0.0,0.0,0.0,0.0,0.0,0.0,0.0,0.0,0.0,0.0,0.0,-3.3807,0.0,0.0,0.0,-3.711,-3.8707,-3.8707,-3.8707,-3.8707,-3.8707,-3.8707,-3.8707,-3.8707,-3.8707,-3.8707,-3.8707,-3.9093,-3.9772,-4.0579,-4.1387,-4.2194,-4.2983,-4.3386,-4.3515,0.0,0.0,0.0,0.0,0.0,0.0,0.0,-4.0169,0.0,-4.0175,-4.0286,-4.0339,-4.0339,-4.0441,-4.0496,-4.0496,-4.0496,-4.0496,-4.0496,-4.0496,-4.0273,-3.9797,-3.8983,0.0,-3.7107,-3.6258,-3.5577,-3.5054,0.0,0.0,0.0,0.0,0.0,-3.5063,0.0,-3.5495,0.0,0.0,0.0,-3.7411,-3.7873,-3.8546,-3.9361,-3.9765,-4.0169,-4.0496,-4.0496,-4.0246,-3.9977,-4.0362,-4.0246,-3.9919,-3.9919,-3.9631,-3.92,-3.8796,-3.8661,-3.8469,-3.7603,-3.7373,-3.7276,-3.6892,-3.6462,-3.6115,-3.6115,-3.5808,-3.55,-3.55,-3.55,-3.5439,-3.5234,-3.5115,0.0,0.0,0.0,0.0,0.0,0.0,0.0,0.0,0.0,0.0,0.0,0.0,0.0,0.0,0.0,0.0,0.0,0.0,0.0,0.0,0.0,0.0,0.0,0.0,0.0,-3.8707,-3.8707,-3.8707,-3.8707,-3.8707,-3.8707,-3.8707,-3.8707,-3.8707,-3.8707,-3.8707,-3.9166,-3.9974,-4.0799,-4.1589,-4.2396,-4.3185,-4.3515,-4.3515,0.0,-3.9084,0.0,0.0,-4.0073,0.0,-4.0496,-4.0496,-4.0449,-4.0286,-4.0269,-4.0269,-4.0269,-4.0417,-4.0496,-4.0496,-4.0496,-4.0496,-4.0496,-4.0496,-4.0496,-4.0496,-3.9727,-3.8977,-3.8296,-3.743,-3.6584,0.0,0.0,0.0,0.0,0.0,0.0,0.0,0.0,0.0,0.0,0.0,-3.7488,-3.8334,-3.9015,-3.94,-3.9631,-4.0265,-4.0496,-4.0496,-4.0496,-4.0496,-4.0496,-4.0496,-4.0496,-4.0496,-4.0496,-4.0496,-4.0381,-3.9746,-3.9554,-3.9381,-3.8507,-3.8277,-3.8238,-3.8046,-3.7488,-3.6981,-3.6981,-3.6346,-3.575,-3.575,-3.5615,-3.5446,-3.5281,-3.5258,0.0,0.0,0.0,0.0,0.0,0.0,0.0,0.0,0.0,0.0,0.0,0.0,0.0,0.0,0.0,-3.4136,-3.3992,-3.4043,0.0,0.0,0.0,-3.5528,-3.639,0.0,-3.793,0.0,-3.8707,-3.8707,-3.8707,-3.8707,-3.8707,-3.8707,-3.8765,-3.8825,-3.8866,-3.9047,-3.9601,-4.0413,-4.1243,-4.2007,-4.2734,-4.3359,-4.3548,-4.3515,0.0,0.0,0.0,0.0,0.0,0.0,0.0,-4.0496,-4.0489,-4.0473,-4.0473,-4.0473,-4.0473,-4.0489,-4.0496,-4.0496,-4.0496,-4.0496,-4.0496,-4.0496,-4.0496,-4.0496,-3.9727,-3.9265,-3.9188,-3.8315,-3.7827,0.0,0.0,0.0,0.0,0.0,0.0,0.0,0.0,0.0,0.0,-3.7873,-3.8373,-3.9188,-3.9265,-3.9746,-4.04,-4.0477,-4.0496,-4.0496,-4.0496,-4.0496,-4.0496,-4.0496,-4.0496,-4.0496,-4.0496,-4.0496,-4.0496,-4.0419,-4.04,-4.0208,-3.94,-3.9188,-3.8996,-3.82,-3.795,-3.7873,-3.7873,-3.7219,-3.6596,-3.6596,-3.6,-3.5493,-3.5479,-3.546,-3.5472,0.0,0.0,0.0,0.0,0.0,0.0,0.0,0.0,0.0,0.0,0.0,0.0,0.0,0.0,-3.4401,-3.4265,-3.4277,-3.4242,-3.4152,0.0,-3.5932,-3.6739,-3.7308,-3.8,-3.8792,-3.8719,-3.8707,-3.8707,-3.8707,-3.8707,-3.8704,-3.8964,-3.9192,-3.9483,-4.0208,-4.0995,-4.1788,-4.2664,-4.3355,-4.3846,-4.3921,-4.3765,-4.3531,0.0,0.0,0.0,0.0,0.0,0.0,0.0,-4.0496,-4.0496,-4.0496,-4.0496,-4.0496,-4.0496,-4.0496,-4.0496,-4.0496,-4.0496,-4.0496,-4.0496,-4.0496,-4.0496,-4.0496,-4.0189,-3.9785,-3.9304,-3.8957,-3.8527,0.0,0.0,0.0,0.0,0.0,0.0,0.0,0.0,-3.7969,-3.8777,-3.8777,-3.9265,-4.0015,-4.0015,-4.0208,-4.0496,-4.0496,-4.0496,-4.0496,-4.0496,-4.0496,-4.0496,-4.0496,-4.0496,-4.0496,-4.0496,-4.0496,-4.0496,-4.0496,-4.0496,-4.0439,-4.0112,-4.0015,-3.9938,-3.9592,-3.9142,-3.8777,-3.8777,-3.8104,-3.7488,-3.7488,-3.6808,-3.6077,-3.5596,-3.55,-3.55,0.0,0.0,0.0,0.0,0.0,0.0,0.0,0.0,0.0,0.0,0.0,0.0,0.0,0.0,0.0,-3.4551,-3.4572,-3.4797,-3.5206,0.0,-3.6919,-3.7746,-3.844,-3.8957,-3.9294,-3.9203,-3.9181,-3.9163,-3.8998,-3.8935,-3.895,-3.9219,-3.9676,-4.0247,-4.0566,-4.1467,-4.2707,-4.3058,-4.3633,-4.425,-4.425,-4.4162,-4.4053,-4.0496,0.0,-4.0496,0.0,-4.0496,-4.0496,-4.0496,-4.0496,-4.0496,-4.0496,-4.0496,-4.0496,-4.0496,-4.0496,-4.0496,-4.0496,-4.0496,-4.0496,-4.0496,-4.0496,-4.0496,-4.0496,-4.0496,0.0,-3.9669,-3.965,-3.9361,-3.8738,-3.8507,0.0,0.0,0.0,0.0,0.0,-3.8373,-3.8854,-3.965,-3.965,-3.9977,-4.0496,-4.0496,-4.0496,-4.0496,-4.0496,-4.0496,-4.0496,-4.0496,-4.0496,-4.0496,-4.0496,-4.0496,-4.0496,-4.0496,-4.0496,-4.0496,-4.0496,-4.0496,-4.0496,-4.0496,-4.0496,-4.0496,-4.0496,-4.0073,-3.965,-3.965,-3.8988,-3.8315,-3.8046,-3.7315,-3.6519,-3.5962,-3.5654,-3.55,-3.55,0.0,0.0,0.0,0.0,0.0,0.0,-3.5712,-3.575,-3.5519,0.0,0.0,0.0,0.0,0.0,0.0,-3.5097,0.0,0.0,0.0,0.0,0.0,-3.9282,-3.9622,-3.9622,-3.9541,-3.9493,-3.9481,-3.93,-3.9259,-3.935,-3.9795,-4.033,-4.0967,-4.1458,-4.2365,-4.346,-4.3706,-4.4089,-4.4519,-4.4519,-4.4479,-4.4438,-4.0496,-4.0496,-4.0496,-4.0496,-4.0496,-4.0496,-4.0496,-4.0496,-4.0496,-4.0496,-4.0496,-4.0496,-4.0496,-4.0496,-4.0496,-4.0496,-4.0496,-4.0496,-4.0496,-4.0496,-4.0496,0.0,0.0,-4.0496,-4.0496,-4.0496,-4.0477,-4.0477,0.0,0.0,-3.9265,0.0,-3.845,-3.9284,-3.9284,-3.9727,-4.0496,-4.0496,-4.0496,-4.0496,-4.0496,-4.0496,-4.0496,-4.0496,-4.0496,-4.0496,-4.0496,-4.0496,-4.0496,-4.0496,-4.0496,-4.0496,-4.0496,-4.0496,-4.0496,-4.0496,-4.0496,-4.0496,-4.0496,-4.0496,-4.0496,-4.0496,-4.0496,-4.0496,-4.0496,-3.9861,-3.9034,-3.818,-3.7315,-3.6692,-3.6692,-3.6038,-3.55,-3.55,0.0,0.0,0.0,0.0,0.0,0.0,-3.6192,-3.6365,-3.5577,0.0,0.0,0.0,0.0,0.0,0.0,0.0,0.0,-3.6296,-3.7991,0.0,-3.8888,-3.9423,-3.9698,-3.9698,-3.9552,-3.9493,-3.9493,-3.9489,-3.9647,-3.993,-4.0737,-4.1235,-4.1628,-4.3281,-4.3958,-4.4072,-4.4942,-4.5068,-4.4807,-4.4807,-4.4676,-4.4546,-4.0496,-4.0496,-4.0496,-4.0496,-4.0496,-4.0496,-4.0496,-4.0496,-4.0496,-4.0496,-4.0496,-4.0496,-4.0496,-4.0496,-4.0496,0.0,-4.0496,-4.0496,0.0,-4.0496,-4.0496,-4.0496,-4.0496,-4.0496,-4.0496,-4.0496,-4.0496,-4.0496,0.0,0.0,0.0,-3.9823,-3.9861,-4.0112,-4.0112,-4.0265,-4.0496,-4.0496,-4.0496,-4.0496,-4.0496,-4.0496,-4.0496,-4.0496,-4.0496,-4.0496,-4.0496,-4.0496,-4.0496,-4.0496,-4.0496,-4.0496,-4.0496,-4.0496,-4.0496,-4.0496,-4.0496,-4.0496,-4.0496,-4.0496,-4.0496,-4.0496,-4.0496,-4.0496,-4.0496,-4.0304,-3.9881,-3.9073,-3.8661,-3.8296,-3.77,-3.6885,-3.6327,-3.6327,-3.5865,0.0,0.0,0.0,0.0,0.0,-3.5731,-3.5788,0.0,-3.55,0.0,0.0,0.0,0.0,0.0,0.0,0.0,0.0,-3.8892,0.0,-3.9986,-4.0168,-4.0248,-4.0239,-4.0195,-4.0052,-3.9859,-4.0021,-4.0384,-4.0874,-4.1273,-4.2135,-4.3302,-4.3857,-4.4391,-4.4925,-4.5253,-4.5277,-4.5132,-4.5132,-4.5121,-4.5121,-4.0496,-4.0496,-4.0496,-4.0496,-4.0496,-4.0496,-4.0496,-4.0496,-4.0496,-4.0496,-4.0496,-4.0496,-4.0496,-4.0496,0.0,-4.0496,-4.0496,-4.0496,-4.0496,-4.0496,-4.0496,-4.0496,-4.0496,-4.0496,-4.0496,0.0,0.0,-4.0496,-4.0496,-4.0496,-4.0496,-4.0496,-4.0496,-4.0496,-4.0496,-4.0496,-4.0496,-4.0496,-4.0496,-4.0496,-4.0496,-4.0496,-4.0496,-4.0496,-4.0496,-4.0496,-4.0496,-4.0496,-4.0496,-4.0496,-4.0496,-4.0496,-4.0496,-4.0496,-4.0496,-4.0496,-4.0496,-4.0496,-4.0496,-4.0496,-4.0496,-4.0496,-4.0496,-4.0496,-4.0496,-4.0496,-4.0362,-3.9842,-3.9515,-3.913,-3.8584,-3.7777,-3.7199,-3.7199,-3.6769,-3.6327,-3.6,0.0,0.0,0.0,0.0,0.0,0.0,-3.5942,0.0,0.0,0.0,0.0,0.0,0.0,0.0,-3.9265,-3.9592,0.0,-4.0496,-4.0496,-4.0496,-4.0496,-4.0507,-4.0379,-4.0167,-4.0669,-4.1092,-4.1485,-4.225,-4.3168,-4.4164,-4.447,-4.4872,-4.535,-4.538,-4.538,-4.535,-4.535,-4.538,-4.5448,-4.0496,-4.0496,0.0,0.0,-4.0496,0.0,-4.0496,-4.0496,-4.0496,-4.0496,-4.0496,-4.0496,-4.0496,-4.0496,-4.0496,-4.0496,0.0,0.0,0.0,-4.0496,-4.0496,-4.0496,-4.0496,-4.0496,-4.0496,-4.0496,-4.0496,-4.0496,-4.0496,-4.0496,-4.0496,-4.0496,-4.0496,-4.0496,-4.0496,-4.0496,-4.0496,-4.0496,-4.0496,-4.0496,-4.0496,-4.0496,-4.0496,-4.0496,-4.0496,-4.0496,-4.0496,-4.0496,-4.0496,-4.0496,-4.0496,-4.0496,-4.0496,-4.0496,-4.0496,-4.0496,-4.0496,-4.0496,-4.0496,-4.0496,-4.0496,-4.0496,-4.0496,-4.0496,-4.0496,-4.0496,-4.0496,-4.0496,-3.99,-3.9381,-3.9381,-3.8661,-3.8084,-3.8084,-3.8046,-3.7719,-3.6904,0.0,0.0,0.0,0.0,0.0,0.0,-3.6788,-3.7142,0.0,0.0,0.0,0.0,0.0,-3.9381,-3.9381,-4.0112,-4.0496,-4.0496,-4.0496,-4.0496,-4.0496,-4.0487,-4.0504,-4.0511,-4.1344,-4.1766,-4.1958,-4.353,-4.4231,-4.4346,-4.5103,-4.541,-4.541,-4.541,-4.541,-4.54,-4.54,-4.5438,-4.5504,0.0,0.0,-4.0496,-4.0496,-4.0496,-4.0496,-4.0496,-4.0496,-4.0496,-4.0496,-4.0496,-4.0496,-4.0496,-4.0496,-4.0496,-4.0496,-4.0496,-4.0496,-4.0496,-4.0496,-4.0496,-4.0496,-4.0496,-4.0496,-4.0496,-4.0496,-4.0496,-4.0496,-4.0496,-4.0496,-4.0496,-4.0496,-4.0496,-4.0496,-4.0496,-4.0496,-4.0496,-4.0496,-4.0496,-4.0496,-4.0496,-4.0496,-4.0496,-4.0496,-4.0496,-4.0496,-4.0496,-4.0496,-4.0496,-4.0496,-4.0496,-4.0496,-4.0496,-4.0496,-4.0496,-4.0496,-4.0496,-4.0496,-4.0496,-4.0496,-4.0496,-4.0496,-4.0496,-4.0496,-4.0496,-4.0496,-4.0496,-4.0496,-4.0342,-4.0227,-4.0227,-3.9554,-3.8996,-3.8996,-3.843,-3.793,-3.7719,-3.77,0.0,0.0,-3.7411,-3.7488,-3.768,-3.77,-3.7777,0.0,0.0,0.0,0.0,-3.9881,-4.0227,-4.0227,-4.04,-4.0496,-4.0496,-4.0496,-4.0496,-4.0496,-4.0508,-4.0838,-4.1476,-4.1687,-4.2475,-4.3705,-4.4093,-4.4612,-4.5217,-4.5409,-4.5438,-4.541,-4.5467,-4.5457,-4.54,-4.54,-4.5438,-4.5504,-4.0496,-4.0496,-4.0496,-4.0496,-4.0496,-4.0496,-4.0496,-4.0496,-4.0496,-4.0496,-4.0496,-4.0496,-4.0496,-4.0496,-4.0496,-4.0496,-4.0496,-4.0496,-4.0496,-4.0496,-4.0496,-4.0496,-4.0496,-4.0496,-4.0496,-4.0496,-4.0496,-4.0496,-4.0496,-4.0496,-4.0496,-4.0496,-4.0496,-4.0496,-4.0496,-4.0496,-4.0496,-4.0496,-4.0496,-4.0496,-4.0496,-4.0496,-4.0496,-4.0496,-4.0496,-4.0496,-4.0496,-4.0496,-4.0496,-4.0496,-4.0496,-4.0496,-4.0496,-4.0496,-4.0496,-4.0496,-4.0496,-4.0496,-4.0496,-4.0496,-4.0496,-4.0496,-4.0496,-4.0496,-4.0496,-4.0496,-4.0496,-4.0496,-4.0496,-4.0496,-4.0496,-4.015,-3.9842,-3.9842,-3.9457,-3.9008,-3.8642,-3.8584,0.0,-3.8046,-3.8007,-3.8161,-3.8565,-3.8584,-3.8738,-3.9123,-3.9592,0.0,-3.9842,-4.0265,-4.0496,-4.0496,-4.0496,-4.0496,-4.0496,-4.0496,-4.0496,-4.0496,-4.0893,-4.1335,-4.1827,-4.2585,-4.3431,-4.4316,-4.4713,-4.5147,-4.555,-4.555,-4.5522,-4.5495,-4.5522,-4.5522,-4.5495,-4.5495,-4.5513,-4.555,-4.0496,-4.0496,-4.0496,-4.0496,-4.0496,-4.0496,-4.0496,-4.0496,-4.0496,-4.0496,-4.0496,-4.0496,-4.0496,-4.0496,-4.0496,-4.0496,-4.0496,-4.0496,-4.0496,-4.0496,-4.0496,-4.0496,-4.0496,-4.0496,-4.0496,-4.0496,-4.0496,-4.0496,-4.0496,-4.0496,-4.0496,-4.0496,-4.0496,-4.0496,-4.0496,-4.0496,-4.0496,-4.0496,-4.0496,-4.0496,-4.0496,-4.0496,-4.0496,-4.0496,-4.0496,-4.0496,-4.0496,-4.0496,-4.0496,-4.0496,-4.0496,-4.0496,-4.0496,-4.0496,-4.0496,-4.0496,-4.0496,-4.0496,-4.0496,-4.0496,-4.0496,-4.0496,-4.0496,-4.0496,-4.0496,-4.0496,-4.0496,-4.0496,-4.0496,-4.0496,-4.0496,-4.0496,-4.0496,-4.0496,-4.0496,-4.0265,-3.9573,0.0,-3.9207,-3.8469,-3.8373,-3.8661,-3.9419,-3.9477,-3.9765,-4.0458,-4.0496,-4.0496,-4.0496,-4.0496,-4.0496,-4.0496,-4.0496,-4.0496,-4.0496,-4.0496,-4.0573,-4.0708,-4.145,-4.1923,-4.2239,-4.3643,-4.4374,-4.4528,-4.5287,-4.5594,-4.5594,-4.5594,-4.5594,-4.5594,-4.5594,-4.5594,-4.5594,-4.5594,-4.5594,-4.5594,-4.0496,-4.0496,-4.0496,-4.0496,-4.0496,-4.0496,-4.0496,-4.0496,-4.0496,-4.0496,-4.0496,-4.0496,-4.0496,-4.0496,-4.0496,-4.0496,-4.0496,-4.0496,-4.0496,-4.0496,-4.0496,-4.0496,-4.0496,-4.0496,-4.0496,-4.0496,-4.0496,-4.0496,-4.0496,-4.0496,-4.0496,-4.0496,-4.0496,-4.0496,-4.0496,-4.0496,-4.0496,-4.0496,-4.0496,-4.0496,-4.0496,-4.0496,-4.0496,-4.0496,-4.0496,-4.0496,-4.0496,-4.0496,-4.0496,-4.0496,-4.0496,-4.0496,-4.0496,-4.0496,-4.0496,-4.0496,-4.0496,-4.0496,-4.0496,-4.0496,-4.0496,-4.0496,-4.0496,-4.0496,-4.0496,-4.0496,-4.0496,-4.0496,-4.0496,-4.0496,-4.0496,-4.0496,-4.0496,-4.0496,-4.0496,-4.0458,-4.0323,0.0,-4.0265,-4.0131,-4.0112,-4.0169,-4.0304,-4.0304,-4.0362,-4.0496,-4.0496,-4.0496,-4.0496,-4.0496,-4.0496,-4.0496,-4.0496,-4.0496,-4.0496,-4.0496,-4.0873,-4.1604,-4.1731,-4.2547,-4.3912,-4.4182,-4.4701,-4.5421,-4.5537,-4.5594,-4.5594,-4.5594,-4.5594,-4.5594,-4.5594,-4.5594,-4.5594,-4.5594,-4.5594,-4.5594,-4.0496,-4.0496,-4.0496,-4.0496,-4.0496,-4.0496,-4.0496,-4.0496,-4.0496,-4.0496,-4.0552,-4.0574,-4.0504,-4.0552,-4.0586,-4.0504,-4.0571,-4.0602,-4.0602,-4.0542,-4.0496,-4.0496,-4.0496,-4.0496,-4.0496,-4.0496,-4.0542,-4.0602,-4.0602,-4.0623,-4.0654,-4.0654,-4.0636,-4.0602,-4.0602,-4.0579,-4.0496,-4.0496,-4.0496,-4.0504,-4.0586,-4.0602,-4.0602,-4.0602,-4.0602,-4.0588,-4.0527,-4.0496,-4.0496,-4.0496,-4.0496,-4.0496,-4.0496,-4.0496,-4.0496,-4.0496,-4.0496,-4.0496,-4.0496,-4.0496,-4.0496,-4.0496,-4.0496,-4.0496,-4.0496,-4.0496,-4.0496,-4.0496,-4.0496,-4.0496,-4.0496,-4.0496,-4.0496,-4.0496,-4.0496,0.0,0.0,-4.0496,-4.0496,-4.0496,-4.0496,-4.0496,-4.0496,-4.0496,-4.0496,-4.0496,-4.0496,-4.0496,-4.0496,-4.0496,-4.0496,-4.0496,-4.0496,-4.0496,-4.0496,-4.0969,-4.1393,-4.1808,-4.272,-4.3547,-4.4316,-4.4778,-4.5229,-4.5594,-4.5594,-4.5594,-4.5594,-4.5594,-4.5594,-4.5594,-4.5594,-4.5594,-4.5594,-4.5594,-4.5594,-4.5594,-4.0561,-4.0561,-4.0561,-4.0561,-4.0561,-4.0561,-4.0561,-4.0561,-4.0561,-4.0561,-4.0662,-4.0687,-4.0575,-4.0662,-4.0681,-4.0575,-4.0662,-4.0723,-4.0723,-4.063,-4.0561,-4.0561,-4.0561,-4.0665,-4.0865,-4.0865,-4.1016,-4.1329,-4.1329,-4.1258,-4.1102,-4.1102,-4.0965,-4.0723,-4.0723,-4.0668,-4.0561,-4.0561,-4.0561,-4.0595,-4.09,-4.1038,-4.1058,-4.1251,-4.1329,-4.1317,-4.1215,-4.1174,-4.1174,-4.1174,-4.1174,-4.1174,-4.1174,-4.1174,-4.1174,-4.1174,-4.1174,-4.1128,-4.0911,-4.1,-4.1142,-4.1166,-4.1174,-4.1174,-4.1174,-4.1174,-4.1174,-4.1174,-4.1174,-4.1174,-4.1174,-4.1145,-4.1135,-4.1135,0.0,0.0,0.0,-4.0804,-4.0727,-4.0516,-4.0496,-4.0496,-4.0496,-4.0496,-4.0496,-4.0496,-4.0496,-4.0496,-4.0496,-4.0496,-4.0593,-4.0804,-4.0612,-4.0593,-4.0804,-4.147,-4.2,-4.2412,-4.3682,-4.4412,-4.4624,-4.5287,-4.5594,-4.5594,-4.5594,-4.5594,-4.5594,-4.5594,-4.5594,-4.5594,-4.5594,-4.5594,-4.5594,-4.5594,-4.5594,-4.5594,-4.0786,-4.0786,-4.0786,-4.0786,-4.0786,-4.0786,-4.0786,-4.0786,-4.0786,-4.0786,-4.0791,-4.0796,-4.0786,-4.0791,-4.0796,-4.0786,-4.0796,-4.0796,-4.0796,-4.0772,-4.0786,-4.0786,-4.0786,-4.116,-4.1966,-4.1985,-4.2379,-4.3204,-4.3204,-4.2796,-4.2005,-4.2005,-4.1573,-4.0796,-4.0796,-4.0796,-4.0786,-4.0786,-4.0786,-4.0845,-4.168,-4.1995,-4.2073,-4.2894,-4.3204,-4.3204,-4.3194,-4.3194,-4.3194,-4.3194,-4.3194,-4.3194,-4.3194,-4.3194,-4.3194,-4.3194,-4.3194,-4.2994,-4.2124,-4.2434,-4.3021,-4.3164,-4.3194,-4.3194,-4.3194,-4.3194,-4.3194,-4.3194,-4.3194,-4.3194,-4.3194,-4.3077,-4.3008,-4.3008,0.0,0.0,-4.1816,-4.1692,-4.1393,-4.0593,-4.0496,-4.0496,-4.0496,-4.0496,-4.0496,-4.0496,-4.0496,-4.0496,-4.0496,-4.0496,-4.0873,-4.1681,-4.0912,-4.0893,-4.17,-4.1769,-4.2585,-4.4124,-4.4239,-4.472,-4.5518,-4.5575,-4.5594,-4.5594,-4.5594,-4.5594,-4.5594,-4.5594,-4.5594,-4.5594,-4.5594,-4.5594,-4.5594,-4.5594,-4.5594,-4.5594,-4.081,-4.081,-4.081,-4.081,-4.081,-4.081,-4.081,-4.081,-4.081,-4.081,-4.0878,-4.089,-4.0815,-4.0859,-4.089,-4.0815,-4.0882,-4.091,-4.091,-4.0955,-4.0922,-4.0815,-4.132,-4.1752,-4.2087,-4.2631,-4.3106,-4.353,-4.353,-4.3376,-4.3089,-4.3089,-4.289,-4.2533,-4.2533,-4.2486,-4.2413,-4.2413,-4.2413,-4.2456,-4.2864,-4.3023,-4.3062,-4.3393,-4.353,-4.3502,-4.3432,-4.3389,-4.3389,-4.3389,-4.3389,-4.3389,-4.3389,-4.3389,-4.3389,-4.3389,-4.3778,-4.4132,-4.383,-4.3535,-4.3338,-4.3379,-4.3389,-4.3389,-4.3389,-4.3389,-4.3389,-4.3389,-4.3389,-4.3389,-4.3389,-4.3354,-4.33,-4.3215,0.0,-4.2266,-4.1862,-4.1335,-4.0873,-4.0535,-4.0496,-4.0496,-4.0496,-4.0496,-4.0496,-4.0496,-4.0496,-4.0496,-4.0496,-4.1008,-4.147,-4.1788,-4.2008,-4.2277,-4.2604,-4.3104,-4.3662,-4.4316,-4.4855,-4.5287,-4.5594,-4.5594,-4.5594,-4.5594,-4.5594,-4.5594,-4.5594,-4.5594,-4.5594,-4.5594,-4.5594,-4.5594,-4.5594,-4.5594,-4.5594,-4.5594,-4.0894,-4.0894,-4.0894,-4.0894,-4.0894,-4.0894,-4.0894,-4.0894,-4.0894,-4.0894,-4.0977,-4.1006,-4.0901,-4.0977,-4.0986,-4.0898,-4.0977,-4.1022,-4.1022,-4.1074,-4.1161,-4.131,-4.1871,-4.2459,-4.3008,-4.3592,-4.4081,-4.4457,-4.4443,-4.4324,-4.4114,-4.412,-4.3933,-4.3626,-4.3629,-4.3574,-4.3493,-4.3493,-4.349,-4.3525,-4.3883,-4.4033,-4.4072,-4.4348,-4.4448,-4.4448,-4.4348,-4.4311,-4.4311,-4.4311,-4.4311,-4.4311,-4.4311,-4.4311,-4.4311,-4.4311,-4.474,-4.5214,-4.5262,-4.4796,-4.4311,-4.4316,-4.4312,-4.4312,-4.4312,-4.4312,-4.4312,-4.4312,-4.4312,-4.4312,-4.4312,-4.4273,-4.4229,-4.4134,-4.3385,-4.2705,-4.2348,-4.1542,-4.0912,-4.0641,-4.0581,-4.0552,-4.0552,-4.0527,-4.0496,-4.0496,-4.0496,-4.0631,-4.0893,-4.1739,-4.2316,-4.2585,-4.3162,-4.3638,-4.3944,-4.4177,-4.4432,-4.472,-4.5306,-4.5594,-4.5594,-4.5594,-4.5594,-4.5594,-4.5594,-4.5594,-4.5594,-4.5594,-4.5594,-4.5594,-4.5594,-4.5594,-4.5594,-4.5594,-4.5594,-4.5594,-4.1109,-4.1109,-4.1109,-4.1109,-4.1109,-4.1109,-4.1109,-4.1109,-4.1109,-4.1109,-4.1109,-4.1109,-4.1109,-4.1109,-4.1109,-4.1109,-4.1109,-4.1109,-4.1109,-4.1109,-4.1498,-4.2376,-4.2415,-4.3216,-4.4951,-4.5012,-4.5421,-4.63,-4.6309,-4.5859,-4.5012,-4.5008,-4.4541,-4.3717,-4.3723,-4.3725,-4.3725,-4.3725,-4.3722,-4.3795,-4.4653,-4.5004,-4.5102,-4.5961,-4.6297,-4.6301,-4.6301,-4.6301,-4.6301,-4.6301,-4.6301,-4.6301,-4.6301,-4.6301,-4.6301,-4.6301,-4.6301,-4.6301,-4.6301,-4.6301,-4.63,-4.6305,-4.63,-4.63,-4.63,-4.63,-4.63,-4.63,-4.63,-4.63,-4.63,-4.6184,-4.6102,-4.6102,-4.5244,-4.4316,-4.3505,-4.2651,-4.1777,-4.0907,-4.0732,-4.07,-4.07,-4.0574,-4.0496,-4.0496,-4.0516,-4.0881,-4.1777,-4.2643,-4.3478,-4.4286,-4.4306,-4.4792,-4.5787,-4.4812,-4.4739,-4.5594,-4.5594,-4.5594,-4.5594,-4.5594,-4.5594,-4.5594,-4.5594,-4.5594,-4.5594,-4.5594,-4.5594,-4.5594,-4.5594,-4.5594,-4.5594,-4.5594,-4.5594,-4.5594,-4.1109,-4.1109,-4.1109,-4.1109,-4.1109,-4.1109,-4.1109,-4.1109,-4.1109,-4.1109,-4.1109,-4.1109,-4.1109,-4.1109,-4.1109,-4.1109,-4.1109,-4.1109,-4.1109,-4.166,-4.2405,-4.3264,-4.3303,-4.3849,-4.498,-4.5591,-4.6042,-4.6296,-4.6299,-4.6162,-4.5906,-4.591,-4.5773,-4.5518,-4.552,-4.552,-4.552,-4.552,-4.552,-4.5558,-4.5811,-4.5909,-4.5948,-4.6202,-4.6301,-4.6301,-4.6301,-4.6301,-4.6301,-4.6301,-4.6301,-4.6301,-4.6301,-4.6301,-4.6301,-4.6301,-4.6301,-4.6301,-4.6301,-4.6301,-4.6301,-4.6297,-4.6296,-4.6296,-4.6296,-4.6296,-4.6296,-4.6296,-4.6296,-4.6296,-4.6296,-4.627,-4.6214,-4.6128,-4.4855,-4.3786,-4.3442,-4.2126,-4.1097,-4.083,-4.0781,-4.0761,-4.0761,-4.0735,-4.0713,-4.0713,-4.1286,-4.2003,-4.2875,-4.3747,-4.4329,-4.4575,-4.5137,-4.5562,-4.5869,-4.5434,-4.5384,-4.5734,-4.5635,-4.5594,-4.5594,-4.5594,-4.5594,-4.5594,-4.5594,-4.5594,-4.5594,-4.5594,-4.5594,-4.5594,-4.5594,-4.5594,-4.5594,-4.5594,-4.5594,-4.5594,-4.1109,-4.1109,-4.1109,-4.1109,-4.1109,-4.1109,-4.1109,-4.1109,-4.1109,-4.1109,-4.1109,-4.1109,-4.1109,-4.1109,-4.1109,-4.1109,-4.1091,-4.1094,-4.1098,-4.1921,-4.2783,-4.366,-4.4034,-4.462,-4.5496,-4.6026,-4.6301,-4.6301,-4.6303,-4.6303,-4.6301,-4.6305,-4.6305,-4.6304,-4.6305,-4.6306,-4.6306,-4.6306,-4.6305,-4.6304,-4.6304,-4.6304,-4.6304,-4.6304,-4.6305,-4.6306,-4.6306,-4.6306,-4.6306,-4.6306,-4.6306,-4.6306,-4.6306,-4.6306,-4.6306,-4.6306,-4.6306,-4.6306,-4.6306,-4.6306,-4.6306,-4.6306,-4.6304,-4.6301,-4.6301,-4.6301,-4.6301,-4.6301,-4.6301,-4.6301,-4.6301,-4.6301,-4.6277,-4.6193,-4.4745,-4.36,-4.353,-4.2023,-4.0912,-4.0922,-4.0898,-4.0875,-4.0882,-4.0833,-4.0946,-4.1281,-4.2432,-4.337,-4.3894,-4.4725,-4.5166,-4.5166,-4.5652,-4.5925,-4.5983,-4.5816,-4.5761,-4.5848,-4.5761,-4.5718,-4.5718,-4.5718,-4.5718,-4.5718,-4.5718,-4.5718,-4.5718,-4.5718,-4.5718,-4.5718,-4.5718,-4.5718,-4.573,-4.5688,-4.5676,-4.5668,-4.1109,-4.1109,-4.1109,-4.1109,-4.1109,-4.1109,-4.1109,-4.1109,-4.1109,-4.1109,-4.1109,-4.109,-4.109,-4.1091,-4.1091,-4.1091,-4.1097,-4.1102,-4.1107,-4.1986,-4.2865,-4.3665,-4.4607,-4.5485,-4.6284,-4.6303,-4.6303,-4.6303,-4.6306,-4.6306,-4.6303,-4.6308,-4.6308,-4.6307,-4.6308,-4.6308,-4.6308,-4.6308,-4.6308,-4.6307,-4.6307,-4.6307,-4.6307,-4.6307,-4.6308,-4.6308,-4.6308,-4.6308,-4.6308,-4.6308,-4.6308,-4.6308,-4.6308,-4.6308,-4.6308,-4.6308,-4.6308,-4.6308,-4.6308,-4.6308,-4.6308,-4.6308,-4.6307,-4.6303,-4.6303,-4.6303,-4.6303,-4.6303,-4.6303,-4.6303,-4.6303,-4.6303,-4.6302,-4.6302,-4.4895,-4.3782,-4.3703,-4.2279,-4.1183,-4.11,-4.1053,-4.1003,-4.1006,-4.0964,-4.1332,-4.2294,-4.3825,-4.4754,-4.4832,-4.5546,-4.593,-4.593,-4.593,-4.5996,-4.6128,-4.5996,-4.5925,-4.5915,-4.5905,-4.5899,-4.5899,-4.5899,-4.5899,-4.5899,-4.5899,-4.5899,-4.5899,-4.5899,-4.5899,-4.5899,-4.5899,-4.5899,-4.5889,-4.5835,-4.5808,-4.578,-4.1109,-4.1109,-4.1109,-4.1109,-4.1109,-4.1109,-4.1109,-4.1109,-4.1109,-4.1109,-4.1094,-4.1097,-4.1097,-4.1101,-4.1104,-4.1104,-4.1105,-4.1106,-4.1107,-4.2555,-4.3493,-4.3689,-4.5195,-4.6113,-4.6308,-4.6308,-4.6308,-4.6308,-4.6308,-4.6308,-4.6308,-4.6308,-4.6308,-4.6308,-4.6308,-4.6308,-4.6308,-4.6308,-4.6308,-4.6308,-4.6308,-4.6308,-4.6308,-4.6308,-4.6308,-4.6308,-4.6308,-4.6308,-4.6308,-4.6308,-4.6308,-4.6308,-4.6308,-4.6308,-4.6308,-4.6308,-4.6308,-4.6308,-4.6308,-4.6308,-4.6308,-4.6308,-4.6308,-4.6308,-4.6308,-4.6308,-4.6308,-4.6308,-4.6308,-4.6308,-4.6308,-4.6308,-4.6308,-4.6306,-4.5407,-4.4488,-4.3802,-4.2786,-4.1869,-4.1184,-4.1082,-4.1078,-4.1077,-4.1677,-4.2708,-4.425,-4.4729,-4.5232,-4.5915,-4.6121,-4.6214,-4.6214,-4.6214,-4.6238,-4.6267,-4.6238,-4.615,-4.6053,-4.5945,-4.5899,-4.5899,-4.5899,-4.5899,-4.5899,-4.5899,-4.5899,-4.5899,-4.5899,-4.5899,-4.5899,-4.5899,-4.5899,-4.5899,-4.5872,-4.5886,-4.5869,-4.1109,-4.1109,-4.1109,-4.1109,-4.1109,-4.1109,-4.1109,-4.1093,-4.1094,-4.1094,-4.1099,-4.1103,-4.1103,-4.1106,-4.1108,-4.1109,-4.111,-4.1286,-4.1698,-4.2968,-4.3886,-4.4296,-4.5586,-4.6308,-4.6308,-4.6308,-4.6308,-4.6308,-4.6308,-4.6308,-4.6308,-4.6308,-4.6308,-4.6308,-4.6308,-4.6308,-4.6308,-4.6308,-4.6308,-4.6308,-4.6308,-4.6308,-4.6308,-4.6308,-4.6308,-4.6308,-4.6308,-4.6308,-4.6308,-4.6308,-4.6308,-4.6308,-4.6308,-4.6308,-4.6308,-4.6308,-4.6308,-4.6308,-4.6308,-4.6308,-4.6308,-4.6308,-4.6308,-4.6308,-4.6308,-4.6308,-4.6308,-4.6308,-4.6308,-4.6308,-4.6308,-4.6308,-4.6308,-4.6308,-4.5566,-4.4706,-4.3826,-4.2947,-4.2088,-4.1207,-4.111,-4.1265,-4.1674,-4.2884,-4.4017,-4.4934,-4.5381,-4.5829,-4.6278,-4.6294,-4.6293,-4.6293,-4.6293,-4.6291,-4.6306,-4.6306,-4.6255,-4.6187,-4.6112,-4.6095,-4.6095,-4.6095,-4.6095,-4.6095,-4.6095,-4.6095,-4.6095,-4.6095,-4.6095,-4.6095,-4.6095,-4.6095,-4.6072,-4.6013,-4.5945,-4.5894,-4.1109,-4.1091,-4.1093,-4.1091,-4.1093,-4.1093,-4.1093,-4.1098,-4.11,-4.11,-4.1105,-4.1108,-4.1108,-4.1108,-4.113,-4.1112,-4.1249,-4.162,-4.2344,-4.3359,-4.4238,-4.4961,-4.582,-4.6308,-4.6308,-4.6308,-4.6308,-4.6308,-4.6308,-4.6308,-4.6308,-4.6308,-4.6308,-4.6308,-4.6308,-4.6308,-4.6308,-4.6308,-4.6308,-4.6308,-4.6308,-4.6308,-4.6308,-4.6308,-4.6308,-4.6308,-4.6308,-4.6308,-4.6308,-4.6308,-4.6308,-4.6308,-4.6308,-4.6308,-4.6308,-4.6308,-4.6308,-4.6308,-4.6308,-4.6308,-4.6308,-4.6308,-4.6308,-4.6308,-4.6308,-4.6308,-4.6308,-4.6308,-4.6308,-4.6308,-4.6308,-4.6308,-4.6308,-4.6308,-4.5683,-4.4863,-4.3848,-4.3086,-4.2304,-4.1424,-4.1444,-4.1892,-4.277,-4.4156,-4.5054,-4.521,-4.5893,-4.6303,-4.6303,-4.6302,-4.6301,-4.6301,-4.6301,-4.63,-4.6295,-4.6295,-4.6291,-4.6305,-4.6305,-4.6303,-4.63,-4.63,-4.63,-4.63,-4.63,-4.63,-4.63,-4.63,-4.63,-4.63,-4.63,-4.63,-4.6296,-4.6176,-4.6061,-4.5973,-4.1091,-4.1099,-4.1104,-4.1098,-4.1102,-4.1105,-4.1105,-4.1106,-4.1106,-4.1106,-4.1109,-4.1091,-4.1091,-4.1152,-4.1191,-4.1191,-4.1816,-4.2266,-4.2383,-4.3926,-4.4883,-4.498,-4.582,-4.6308,-4.6308,-4.6308,-4.6308,-4.6308,-4.6308,-4.6308,-4.6308,-4.6308,-4.6308,-4.6308,-4.6308,-4.6308,-4.6308,-4.6308,-4.6308,-4.6308,-4.6308,-4.6308,-4.6308,-4.6308,-4.6308,-4.6308,-4.6308,-4.6308,-4.6308,-4.6308,-4.6308,-4.6308,-4.6308,-4.6308,-4.6308,-4.6308,-4.6308,-4.6308,-4.6308,-4.6308,-4.6308,-4.6308,-4.6308,-4.6308,-4.6308,-4.6308,-4.6308,-4.6308,-4.6308,-4.6308,-4.6308,-4.6308,-4.6308,-4.6308,-4.6191,-4.5566,-4.3926,-4.3594,-4.3203,-4.2324,-4.2891,-4.3691,-4.4551,-4.4863,-4.5312,-4.6074,-4.6229,-4.6306,-4.6306,-4.6304,-4.6301,-4.6301,-4.6301,-4.6301,-4.6301,-4.6301,-4.6301,-4.63,-4.63,-4.6294,-4.63,-4.63,-4.63,-4.63,-4.63,-4.63,-4.63,-4.63,-4.63,-4.63,-4.63,-4.63,-4.63,-4.6275,-4.6269,-4.6238,-4.1101,-4.1104,-4.1107,-4.1104,-4.1106,-4.1107,-4.1107,-4.1109,-4.109,-4.109,-4.1132,-4.1152,-4.1152,-4.1582,-4.1875,-4.1875,-4.2637,-4.332,-4.3828,-4.457,-4.5215,-4.5703,-4.6094,-4.6308,-4.6308,-4.6308,-4.6308,-4.6308,-4.6308,-4.6308,-4.6308,-4.6308,-4.6308,-4.6308,-4.6308,-4.6308,-4.6308,-4.6308,-4.6308,-4.6308,-4.6308,-4.6308,-4.6308,-4.6308,-4.6308,-4.6308,-4.6308,-4.6308,-4.6308,-4.6308,-4.6308,-4.6308,-4.6308,-4.6308,-4.6308,-4.6308,-4.6308,-4.6308,-4.6308,-4.6308,-4.6308,-4.6308,-4.6308,-4.6308,-4.6308,-4.6308,-4.6308,-4.6308,-4.6308,-4.6308,-4.6308,-4.6308,-4.6308,-4.6308,-4.6308,-4.5859,-4.4609,-4.4433,-4.4101,-4.3223,-4.3906,-4.457,-4.4961,-4.5449,-4.5898,-4.6269,-4.6308,-4.6308,-4.6308,-4.6307,-4.6307,-4.6307,-4.6307,-4.6307,-4.6305,-4.6305,-4.6304,-4.6301,-4.6301,-4.63,-4.6294,-4.6294,-4.6294,-4.6294,-4.6294,-4.6294,-4.6294,-4.6294,-4.6291,-4.6308,-4.6308,-4.6308,-4.6308,-4.6293,-4.6291,-4.6285]},{"header":{"parameterUnit":"m.s-1","parameterCategory":1,"la1":30.6,"la2":28.766,"lo1":-90.7593,"lo2":-88.6598,"dy":0.0162,"dx":0.0183,"nx":116,"ny":114,"refTime":"2023-03-02T06:00:00:Z","depth":0,"parameterNumber":3,"parameterNumberName":"V-component_of_WINDS"},"data":[0.0,0.0,0.0,0.0,0.0,0.0,0.0,0.0,0.0,0.0,0.0,0.0,0.0,0.0,0.0,0.0,0.0,0.0,0.0,0.0,0.0,0.0,0.0,0.0,0.0,0.0,0.0,0.0,0.0,0.0,0.0,0.0,0.0,0.0,0.0,0.0,0.0,0.0,0.0,0.0,0.0,0.0,0.0,0.0,0.0,0.0,0.0,0.0,0.0,0.0,0.0,0.0,0.0,0.0,0.0,0.0,0.0,0.0,0.0,0.0,0.0,0.0,0.0,0.0,0.0,0.0,0.0,0.0,0.0,0.0,0.0,0.0,0.0,0.0,0.0,0.0,0.0,0.0,0.0,0.0,0.0,0.0,0.0,0.0,0.0,0.0,0.0,0.0,0.0,0.0,0.0,0.0,0.0,0.0,0.0,0.0,0.0,0.0,0.0,0.0,0.0,0.0,0.0,0.0,0.0,0.0,0.0,0.0,0.0,0.0,0.0,0.0,0.0,0.0,0.0,0.0,0.0,0.0,0.0,0.0,0.0,0.0,0.0,0.0,0.0,0.0,0.0,0.0,0.0,0.0,0.0,0.0,0.0,0.0,0.0,0.0,0.0,0.0,0.0,0.0,0.0,0.0,0.0,0.0,0.0,0.0,0.0,0.0,0.0,0.0,0.0,0.0,0.0,0.0,0.0,0.0,0.0,0.0,0.0,0.0,0.0,0.0,0.0,0.0,0.0,0.0,0.0,0.0,0.0,0.0,0.0,0.0,0.0,0.0,0.0,0.0,0.0,0.0,0.0,0.0,0.0,0.0,0.0,0.0,0.0,0.0,0.0,0.0,0.0,0.0,0.0,0.0,0.0,0.0,0.0,0.0,0.0,0.0,0.0,0.0,0.0,0.0,0.0,0.0,0.0,0.0,0.0,0.0,0.0,0.0,0.0,0.0,0.0,0.0,0.0,0.0,0.0,0.0,0.0,0.0,0.0,0.0,0.0,0.0,0.0,0.0,0.0,0.0,0.0,0.0,0.0,0.0,0.0,0.0,0.0,0.0,0.0,0.0,0.0,0.0,0.0,0.0,0.0,0.0,0.0,0.0,0.0,0.0,0.0,0.0,0.0,0.0,0.0,0.0,0.0,0.0,0.0,0.0,0.0,0.0,0.0,0.0,0.0,0.0,0.0,0.0,0.0,0.0,0.0,0.0,0.0,0.0,0.0,0.0,0.0,0.0,0.0,0.0,0.0,0.0,0.0,0.0,0.0,0.0,0.0,0.0,0.0,0.0,0.0,0.0,0.0,0.0,0.0,0.0,0.0,0.0,0.0,0.0,0.0,0.0,0.0,0.0,0.0,0.0,0.0,0.0,0.0,0.0,0.0,0.0,0.0,0.0,0.0,0.0,0.0,0.0,0.0,0.0,0.0,0.0,0.0,0.0,0.0,0.0,0.0,0.0,0.0,0.0,0.0,0.0,0.0,0.0,0.0,0.0,0.0,0.0,0.0,0.0,0.0,0.0,0.0,0.0,0.0,0.0,0.0,0.0,0.0,0.0,0.0,0.0,0.0,0.0,0.0,0.0,0.0,0.0,0.0,0.0,0.0,0.0,0.0,0.0,0.0,0.0,0.0,0.0,0.0,0.0,0.0,0.0,0.0,0.0,0.0,0.0,0.0,0.0,0.0,0.0,0.0,0.0,0.0,0.0,0.0,0.0,0.0,0.0,0.0,0.0,0.0,0.0,0.0,0.0,0.0,0.0,0.0,0.0,0.0,0.0,0.0,0.0,0.0,0.0,0.0,0.0,0.0,0.0,0.0,0.0,0.0,0.0,0.0,0.0,0.0,0.0,0.0,0.0,0.0,0.0,0.0,0.0,0.0,0.0,0.0,0.0,0.0,0.0,0.0,0.0,0.0,0.0,0.0,0.0,0.0,0.0,0.0,0.0,0.0,0.0,0.0,0.0,0.0,0.0,0.0,0.0,0.0,0.0,0.0,0.0,0.0,0.0,0.0,0.0,0.0,0.0,0.0,0.0,0.0,0.0,0.0,0.0,0.0,0.0,0.0,0.0,0.0,0.0,0.0,0.0,0.0,0.0,0.0,0.0,0.0,0.0,0.0,0.0,0.0,0.0,0.0,0.0,0.0,0.0,0.0,0.0,0.0,0.0,0.0,0.0,0.0,0.0,0.0,0.0,0.0,0.0,0.0,0.0,0.0,0.0,0.0,0.0,0.0,0.0,0.0,0.0,0.0,0.0,0.0,0.0,0.0,0.0,0.0,0.0,0.0,0.0,0.0,0.0,0.0,0.0,0.0,0.0,0.0,0.0,0.0,0.0,0.0,0.0,0.0,0.0,0.0,0.0,0.0,0.0,0.0,0.0,0.0,0.0,0.0,0.0,0.0,0.0,0.0,0.0,0.0,0.0,0.0,0.0,0.0,0.0,0.0,0.0,0.0,0.0,0.0,0.0,0.0,0.0,0.0,0.0,0.0,0.0,0.0,0.0,0.0,0.0,0.0,0.0,0.0,0.0,0.0,0.0,0.0,0.0,0.0,0.0,0.0,0.0,0.0,0.0,0.0,0.0,0.0,0.0,0.0,0.0,0.0,0.0,0.0,0.0,0.0,0.0,0.0,0.0,0.0,0.0,0.0,0.0,0.0,0.0,0.0,0.0,0.0,0.0,0.0,0.0,0.0,0.0,0.0,0.0,0.0,0.0,0.0,0.0,0.0,0.0,0.0,0.0,0.0,0.0,0.0,0.0,0.0,0.0,0.0,0.0,0.0,0.0,0.0,0.0,0.0,0.0,0.0,0.0,0.0,0.0,0.0,0.0,0.0,0.0,0.0,0.0,0.0,0.0,0.0,0.0,0.0,0.0,0.0,0.0,0.0,0.0,0.0,0.0,0.0,0.0,0.0,0.0,0.0,0.0,0.0,0.0,0.0,0.0,0.0,0.0,0.0,0.0,0.0,0.0,0.0,0.0,0.0,0.0,0.0,0.0,0.0,0.0,0.0,0.0,0.0,0.0,0.0,0.0,0.0,0.0,0.0,0.0,0.0,0.0,0.0,0.0,0.0,0.0,0.0,0.0,0.0,0.0,0.0,0.0,0.0,0.0,0.0,0.0,0.0,0.0,0.0,0.0,0.0,0.0,0.0,0.0,0.0,0.0,0.0,0.0,0.0,0.0,0.0,0.0,0.0,0.0,0.0,0.0,0.0,0.0,0.0,0.0,0.0,0.0,0.0,0.0,0.0,0.0,0.0,0.0,0.0,0.0,0.0,0.0,0.0,0.0,0.0,0.0,0.0,0.0,0.0,0.0,0.0,0.0,0.0,0.0,0.0,0.0,0.0,0.0,0.0,0.0,0.0,0.0,0.0,0.0,0.0,0.0,0.0,0.0,0.0,0.0,0.0,0.0,0.0,0.0,0.0,0.0,0.0,0.0,0.0,0.0,0.0,0.0,0.0,0.0,0.0,0.0,0.0,0.0,0.0,0.0,0.0,0.0,0.0,0.0,0.0,0.0,0.0,0.0,0.0,0.0,0.0,0.0,0.0,0.0,0.0,0.0,0.0,0.0,0.0,0.0,0.0,0.0,0.0,0.0,0.0,0.0,0.0,0.0,0.0,0.0,0.0,0.0,0.0,0.0,0.0,0.0,0.0,0.0,0.0,0.0,0.0,0.0,0.0,0.0,0.0,0.0,0.0,0.0,0.0,0.0,0.0,0.0,0.0,0.0,0.0,0.0,0.0,0.0,0.0,0.0,0.0,0.0,0.0,0.0,0.0,0.0,0.0,0.0,0.0,0.0,0.0,0.0,0.0,0.0,0.0,0.0,0.0,0.0,0.0,0.0,0.0,0.0,0.0,0.0,0.0,0.0,0.0,0.0,0.0,0.0,0.0,0.0,0.0,0.0,0.0,0.0,0.0,0.0,0.0,0.0,0.0,0.0,0.0,0.0,0.0,0.0,0.0,0.0,0.0,0.0,0.0,0.0,0.0,0.0,0.0,0.0,0.0,0.0,0.0,0.0,0.0,0.0,0.0,0.0,0.0,0.0,0.0,0.0,0.0,0.0,0.0,0.0,0.0,0.0,0.0,0.0,0.0,0.0,0.0,0.0,0.0,0.0,0.0,0.0,0.0,0.0,0.0,0.0,0.0,0.0,0.0,0.0,0.0,0.0,0.0,0.0,0.0,0.0,0.0,0.0,0.0,0.0,0.0,0.0,0.0,0.0,0.0,0.0,0.0,0.0,0.0,0.0,0.0,0.0,0.0,0.0,0.0,0.0,0.0,0.0,0.0,0.0,0.0,0.0,0.0,0.0,0.0,0.0,0.0,0.0,0.0,0.0,0.0,0.0,0.0,0.0,0.0,0.0,0.0,0.0,0.0,0.0,0.0,0.0,0.0,0.0,0.0,0.0,0.0,0.0,0.0,0.0,0.0,0.0,0.0,0.0,0.0,0.0,0.0,0.0,0.0,0.0,0.0,0.0,0.0,0.0,0.0,0.0,0.0,0.0,0.0,0.0,0.0,0.0,0.0,0.0,0.0,0.0,0.0,0.0,0.0,0.0,0.0,0.0,0.0,0.0,0.0,0.0,0.0,0.0,0.0,0.0,0.0,0.0,0.0,0.0,0.0,0.0,0.0,0.0,0.0,0.0,0.0,0.0,0.0,0.0,0.0,0.0,0.0,0.0,0.0,0.0,0.0,0.0,0.0,0.0,0.0,0.0,0.0,0.0,0.0,0.0,0.0,0.0,0.0,0.0,0.0,0.0,0.0,0.0,0.0,0.0,0.0,0.0,0.0,0.0,0.0,0.0,0.0,0.0,0.0,0.0,0.0,0.0,0.0,0.0,0.0,0.0,0.0,0.0,0.0,0.0,0.0,0.0,0.0,0.0,0.0,0.0,0.0,0.0,0.0,0.0,0.0,0.0,0.0,0.0,0.0,0.0,0.0,0.0,0.0,0.0,0.0,0.0,0.0,0.0,0.0,0.0,0.0,0.0,0.0,0.0,0.0,0.0,0.0,0.0,0.0,0.0,0.0,0.0,0.0,0.0,0.0,0.0,0.0,0.0,0.0,0.0,0.0,0.0,0.0,0.0,0.0,0.0,0.0,0.0,0.0,0.0,0.0,0.0,0.0,0.0,0.0,0.0,0.0,0.0,0.0,0.0,0.0,0.0,0.0,0.0,0.0,0.0,0.0,0.0,0.0,0.0,0.0,0.0,0.0,0.0,0.0,0.0,0.0,0.0,0.0,0.0,0.0,0.0,0.0,0.0,0.0,0.0,0.0,0.0,0.0,0.0,0.0,0.0,0.0,0.0,0.0,0.0,0.0,0.0,0.0,0.0,0.0,0.0,0.0,0.0,0.0,0.0,0.0,0.0,0.0,0.0,0.0,0.0,0.0,0.0,0.0,0.0,0.0,0.0,0.0,0.0,0.0,0.0,0.0,0.0,0.0,0.0,0.0,0.0,0.0,0.0,0.0,0.0,0.0,0.0,0.0,0.0,0.0,0.0,0.0,0.0,0.0,0.0,0.0,0.0,0.0,0.0,0.0,0.0,0.0,0.0,0.0,0.0,0.0,0.0,0.0,0.0,0.0,0.0,0.0,0.0,0.0,0.0,0.0,0.0,0.0,0.0,0.0,0.0,0.0,0.0,0.0,0.0,0.0,0.0,0.0,0.0,0.0,0.0,0.0,0.0,0.0,0.0,0.0,0.0,0.0,0.0,0.0,0.0,0.0,0.0,0.0,0.0,0.0,0.0,0.0,0.0,0.0,0.0,0.0,0.0,0.0,0.0,0.0,0.0,0.0,0.0,0.0,0.0,0.0,0.0,0.0,0.0,0.0,0.0,0.0,0.0,0.0,0.0,0.0,0.0,0.0,0.0,0.0,0.0,0.0,0.0,0.0,0.0,0.0,0.0,0.0,0.0,0.0,0.0,0.0,0.0,0.0,0.0,0.0,0.0,0.0,0.0,0.0,0.0,0.0,0.0,0.0,0.0,0.0,0.0,0.0,0.0,0.0,0.0,0.0,0.0,0.0,0.0,0.0,0.0,0.0,0.0,0.0,0.0,0.0,0.0,0.0,0.0,0.0,0.0,0.0,0.0,0.0,0.0,0.0,0.0,-2.3108,0.0,0.0,0.0,0.0,0.0,0.0,0.0,0.0,0.0,0.0,0.0,0.0,0.0,0.0,0.0,0.0,0.0,0.0,0.0,0.0,0.0,0.0,0.0,0.0,0.0,0.0,0.0,0.0,0.0,0.0,0.0,0.0,0.0,0.0,0.0,0.0,0.0,0.0,0.0,-1.4818,-1.4949,-1.5222,-1.5344,-1.5848,-1.6649,0.0,0.0,0.0,0.0,0.0,0.0,0.0,0.0,0.0,0.0,0.0,0.0,0.0,0.0,0.0,0.0,0.0,0.0,0.0,0.0,0.0,0.0,0.0,0.0,0.0,0.0,0.0,0.0,0.0,0.0,0.0,0.0,0.0,0.0,0.0,0.0,0.0,0.0,0.0,0.0,0.0,0.0,0.0,0.0,0.0,0.0,0.0,0.0,0.0,0.0,0.0,0.0,0.0,0.0,0.0,0.0,0.0,0.0,0.0,0.0,0.0,0.0,0.0,0.0,0.0,0.0,0.0,0.0,0.0,0.0,0.0,-2.3108,0.0,0.0,0.0,0.0,0.0,0.0,0.0,0.0,0.0,0.0,0.0,0.0,0.0,0.0,0.0,0.0,0.0,0.0,0.0,0.0,0.0,0.0,0.0,0.0,0.0,0.0,0.0,0.0,0.0,0.0,0.0,0.0,0.0,0.0,0.0,-1.4515,-1.4515,-1.4515,-1.4565,-1.4595,-1.4634,-1.4988,-1.5631,-1.6473,-1.6534,0.0,0.0,0.0,0.0,0.0,0.0,0.0,0.0,0.0,0.0,0.0,0.0,0.0,0.0,0.0,0.0,0.0,0.0,0.0,0.0,0.0,0.0,0.0,0.0,0.0,0.0,0.0,0.0,0.0,0.0,0.0,0.0,0.0,0.0,0.0,0.0,0.0,0.0,0.0,0.0,0.0,0.0,0.0,0.0,0.0,0.0,0.0,0.0,0.0,0.0,0.0,0.0,0.0,0.0,0.0,0.0,0.0,0.0,0.0,0.0,0.0,0.0,0.0,-2.3108,-2.3108,-2.3108,-2.3108,-2.3108,-2.3108,-2.3108,-2.3108,-2.3108,0.0,0.0,0.0,0.0,0.0,0.0,0.0,0.0,0.0,0.0,0.0,0.0,0.0,0.0,0.0,0.0,0.0,0.0,0.0,0.0,0.0,0.0,-1.5936,-1.5551,-1.5212,-1.5184,-1.501,0.0,0.0,0.0,0.0,0.0,0.0,0.0,-1.4515,-1.4515,-1.4515,-1.4803,-1.498,-1.5098,-1.5273,-1.5439,-1.5586,-1.5879,-1.6047,-1.6094,0.0,0.0,0.0,0.0,0.0,0.0,0.0,0.0,0.0,0.0,0.0,0.0,0.0,0.0,0.0,0.0,0.0,0.0,0.0,0.0,0.0,0.0,0.0,0.0,0.0,0.0,0.0,0.0,0.0,0.0,0.0,0.0,0.0,0.0,0.0,0.0,0.0,0.0,0.0,0.0,0.0,-1.9264,-1.9901,0.0,0.0,0.0,0.0,0.0,0.0,0.0,0.0,0.0,0.0,0.0,0.0,0.0,-2.3005,-2.3108,-2.3108,-2.3108,-2.3108,-2.3108,-2.3108,-2.3108,-2.3108,-2.3108,-2.3108,-2.3108,0.0,-2.3108,-2.3108,0.0,0.0,0.0,0.0,0.0,0.0,0.0,0.0,0.0,0.0,0.0,0.0,0.0,0.0,0.0,0.0,0.0,0.0,0.0,0.0,0.0,-1.5597,-1.5194,-1.4808,-1.4974,-1.4937,-1.4543,0.0,0.0,0.0,0.0,-1.4515,-1.4515,-1.4515,-1.4536,-1.4606,-1.4754,-1.4931,-1.5088,-1.5147,-1.5167,-1.5176,-1.5409,-1.5695,-1.6007,-1.5985,0.0,0.0,0.0,0.0,0.0,0.0,0.0,0.0,0.0,0.0,0.0,0.0,0.0,0.0,0.0,0.0,0.0,0.0,0.0,0.0,0.0,0.0,0.0,0.0,0.0,0.0,0.0,0.0,0.0,0.0,0.0,0.0,0.0,0.0,0.0,0.0,0.0,0.0,0.0,-1.9042,-1.9065,-1.9363,-1.9231,-1.9231,0.0,0.0,0.0,0.0,0.0,0.0,0.0,0.0,0.0,-2.2082,-2.239,-2.272,-2.3108,-2.3108,-2.3108,-2.3108,-2.3108,-2.3108,-2.3108,-2.3108,-2.3108,-2.3108,-2.3108,-2.3108,-2.3108,-2.3108,-2.3108,-2.3108,0.0,0.0,0.0,0.0,-2.3108,-2.3108,0.0,0.0,0.0,0.0,0.0,0.0,0.0,0.0,0.0,0.0,0.0,0.0,-1.5854,-1.5404,-1.4983,-1.4689,-1.4836,-1.4827,-1.4533,-1.4515,0.0,0.0,0.0,-1.4515,-1.4515,-1.4536,-1.4645,-1.4775,-1.4775,-1.4872,-1.5059,-1.5059,-1.5059,-1.5068,-1.5176,-1.5467,-1.5868,-1.5758,-1.5867,-1.6157,0.0,0.0,0.0,0.0,0.0,0.0,0.0,0.0,0.0,0.0,0.0,0.0,0.0,0.0,0.0,0.0,0.0,0.0,0.0,0.0,0.0,0.0,0.0,0.0,0.0,0.0,0.0,0.0,0.0,0.0,0.0,0.0,0.0,0.0,0.0,0.0,0.0,-1.9008,-1.9164,-1.933,-1.9198,-1.9164,0.0,0.0,0.0,0.0,0.0,0.0,-2.0805,-2.1008,-2.1396,-2.2082,-2.2267,-2.2586,-2.3108,-2.3108,-2.3108,-2.3108,-2.3108,-2.3108,-2.3108,-2.3108,-2.3108,-2.3108,-2.3108,-2.3108,-2.3108,-2.3108,-2.3108,-2.3108,-2.3108,-2.3108,-2.3108,-2.3108,-2.3108,-2.3108,0.0,0.0,0.0,0.0,0.0,0.0,0.0,0.0,0.0,0.0,0.0,-1.6251,-1.6251,-1.5579,-1.5093,-1.5074,-1.4744,-1.4533,-1.4515,-1.4515,-1.4515,-1.4515,-1.4515,-1.4515,-1.4515,-1.4606,-1.4784,-1.497,-1.497,-1.5068,-1.5186,-1.5186,-1.5186,-1.5215,-1.5332,-1.5352,-1.5244,-1.5371,-1.5693,-1.6094,-1.589,0.0,0.0,0.0,0.0,0.0,0.0,0.0,0.0,0.0,0.0,0.0,0.0,0.0,0.0,0.0,0.0,0.0,0.0,0.0,0.0,0.0,0.0,0.0,0.0,0.0,0.0,0.0,0.0,0.0,0.0,0.0,0.0,0.0,0.0,0.0,0.0,0.0,0.0,-1.9977,-1.9495,0.0,0.0,0.0,0.0,-1.9142,-1.9164,-1.9419,-2.0096,-2.0741,-2.1396,-2.2082,-2.272,-2.3078,-2.3108,-2.3108,-2.3108,-2.3108,-2.3108,-2.3108,-2.3108,-2.3108,-2.3108,-2.3108,-2.3108,-2.3108,-2.3108,-2.3108,-2.3108,-2.3108,-2.3108,-2.3108,-2.3108,-2.3108,-2.3108,-2.3108,0.0,0.0,0.0,0.0,0.0,0.0,0.0,0.0,0.0,-1.6908,-1.656,-1.6288,-1.6288,-1.6023,-1.567,-1.5148,-1.5203,-1.5056,-1.4543,-1.4515,-1.4515,-1.4515,-1.4515,-1.4515,-1.4515,-1.4565,-1.4636,-1.4804,-1.4804,-1.4931,-1.5215,-1.5215,-1.5264,-1.5332,-1.5391,-1.5362,-1.5332,-1.5391,-1.5449,-1.5516,-1.5536,-1.5727,0.0,0.0,0.0,0.0,0.0,0.0,0.0,0.0,0.0,0.0,0.0,0.0,0.0,0.0,0.0,0.0,0.0,0.0,0.0,0.0,0.0,0.0,0.0,0.0,0.0,0.0,0.0,0.0,0.0,0.0,0.0,0.0,0.0,0.0,0.0,0.0,0.0,-1.9485,-1.9231,0.0,-1.9429,-1.9231,-1.9297,-1.9715,-1.9748,-2.0031,-2.0709,-2.1396,-2.1865,-2.2082,-2.275,-2.3108,-2.3108,-2.3108,-2.3108,-2.3108,-2.3108,-2.3108,-2.3108,-2.3108,-2.3108,-2.3108,-2.3108,-2.3108,-2.3108,-2.3108,-2.3108,-2.3108,-2.3108,-2.3108,-2.3108,-2.3108,-2.3108,-2.3108,0.0,0.0,0.0,0.0,0.0,0.0,0.0,0.0,0.0,-1.6908,-1.6679,-1.6514,-1.6514,-1.6361,-1.6046,-1.5359,-1.5414,-1.5212,-1.4552,-1.4515,-1.4515,-1.4515,-1.4515,-1.4515,-1.4515,-1.4536,-1.4645,-1.4813,-1.4813,-1.4931,-1.5215,-1.5215,-1.5264,-1.5332,-1.5391,-1.541,-1.541,-1.5362,-1.5313,-1.5264,-1.5313,-1.5419,-1.553,0.0,0.0,0.0,0.0,0.0,0.0,0.0,0.0,0.0,0.0,0.0,0.0,0.0,0.0,0.0,0.0,0.0,0.0,0.0,0.0,0.0,0.0,0.0,0.0,0.0,0.0,0.0,0.0,0.0,0.0,0.0,0.0,0.0,0.0,0.0,-1.9584,-1.9164,-1.9108,-1.9108,-1.9108,-1.9108,-1.9297,-1.9715,-1.9748,-2.0074,-2.0741,-2.1175,-2.1542,-2.1772,-2.2402,-2.275,-2.275,-2.2975,-2.3108,-2.3108,-2.3108,-2.3108,-2.3108,-2.3108,-2.3108,-2.3108,-2.3108,-2.3108,-2.3108,-2.3108,-2.3108,-2.3108,-2.3108,-2.3108,-2.3108,-2.3108,-2.3108,-2.3108,0.0,0.0,0.0,0.0,0.0,0.0,0.0,-1.6908,-1.6908,-1.6908,-1.6908,-1.6908,-1.6908,-1.656,-1.6156,-1.5725,-1.534,-1.4946,-1.4543,-1.4515,-1.4515,-1.4515,-1.4515,-1.4515,-1.4515,-1.4636,-1.4813,-1.5,-1.5,-1.5068,-1.5215,-1.5215,-1.5215,-1.5215,-1.5332,-1.541,-1.5381,-1.5264,-1.5264,-1.5391,-1.5264,-1.5284,-1.543,0.0,0.0,0.0,0.0,0.0,0.0,0.0,0.0,0.0,0.0,0.0,0.0,0.0,0.0,0.0,0.0,0.0,0.0,0.0,0.0,0.0,0.0,0.0,0.0,0.0,0.0,0.0,0.0,0.0,0.0,0.0,0.0,0.0,-1.9164,-1.9108,-1.9131,-1.9108,-1.9108,-1.9108,-1.9108,-1.9108,-1.9108,-1.9108,-1.9108,-1.9396,-2.0074,-2.0096,-2.042,-2.1092,-2.1772,-2.2101,-2.2144,-2.2781,-2.3108,-2.3108,-2.3108,-2.3108,-2.3108,-2.3108,-2.3108,-2.3108,-2.3108,-2.3108,-2.3108,-2.3108,-2.3108,-2.3108,-2.3108,-2.3108,-2.3108,-2.3108,-2.3108,-2.3108,0.0,0.0,0.0,0.0,0.0,0.0,0.0,-1.6908,-1.6908,-1.6908,-1.6908,-1.6908,-1.6908,-1.6807,-1.6459,-1.5753,-1.5588,-1.5239,-1.4561,-1.4515,-1.4515,-1.4515,-1.4515,-1.4515,-1.4515,-1.4636,-1.4745,-1.4775,-1.4941,-1.5068,-1.5215,-1.5215,-1.5264,-1.5362,-1.5391,-1.541,-1.5381,-1.5264,-1.5215,-1.5264,-1.5215,-1.5215,-1.5274,0.0,0.0,0.0,0.0,0.0,0.0,0.0,0.0,0.0,0.0,0.0,0.0,0.0,0.0,0.0,0.0,0.0,0.0,0.0,0.0,0.0,0.0,0.0,0.0,0.0,0.0,0.0,0.0,0.0,0.0,0.0,0.0,-1.9264,-1.9108,-1.9528,-1.9649,-1.9164,-1.9108,-1.9108,-1.9108,-1.9108,-1.9108,-1.9108,-1.9108,-1.9396,-2.0074,-2.0096,-2.0634,-2.1803,-2.2021,-2.2329,-2.2811,-2.3005,-2.3108,-2.3108,-2.3108,-2.3108,-2.3108,-2.3108,-2.3108,-2.3108,-2.3108,-2.3108,-2.3108,-2.3108,-2.3108,-2.3108,-2.3108,-2.3108,-2.3108,-2.3108,-2.3108,-2.3108,0.0,0.0,0.0,0.0,0.0,0.0,0.0,-1.6908,-1.6908,-1.6908,-1.6908,-1.6908,-1.6908,-1.6908,-1.6642,-1.601,-1.579,-1.5423,-1.4799,-1.4607,-1.4515,-1.4515,-1.4515,-1.4536,-1.4586,-1.4656,-1.4775,-1.4902,-1.497,-1.5088,-1.5284,-1.5235,-1.5264,-1.541,-1.541,-1.5362,-1.5313,-1.5176,-1.5127,-1.5117,-1.5029,-1.5059,-1.5215,-1.5362,-1.5508,-1.5651,-1.5711,-1.6219,-1.6855,-1.6986,0.0,0.0,0.0,0.0,0.0,0.0,0.0,0.0,0.0,0.0,0.0,0.0,0.0,0.0,0.0,0.0,0.0,0.0,0.0,0.0,0.0,0.0,0.0,0.0,-1.8875,-1.9108,-1.9108,-1.9429,-1.9551,-1.9142,-1.9108,-1.9108,-1.9108,-1.9108,-1.9108,-1.9108,-1.9108,-1.9396,-2.0074,-1.9846,-2.0291,-2.1647,-2.1428,-2.171,-2.2689,-2.2689,-2.2811,-2.3108,-2.3108,-2.3108,-2.3108,-2.3108,-2.3108,0.0,-2.3358,-2.3471,-2.3484,-2.371,-2.381,0.0,0.0,0.0,0.0,0.0,-2.3108,-2.3108,0.0,0.0,0.0,0.0,0.0,0.0,0.0,-1.6908,-1.6908,-1.6908,-1.6908,-1.6908,-1.6908,-1.6908,-1.6743,-1.6349,-1.5927,-1.5505,-1.5065,-1.4708,-1.4515,-1.4515,-1.4515,-1.4556,-1.4715,-1.4715,-1.4872,-1.5186,-1.5068,-1.5108,-1.5362,-1.5235,-1.5235,-1.5352,-1.5362,-1.5313,-1.5156,-1.5059,-1.5,-1.4941,-1.4775,-1.4902,-1.5186,-1.5303,-1.5352,-1.5362,-1.5235,-1.5594,-1.6153,-1.6357,0.0,0.0,0.0,0.0,0.0,0.0,0.0,0.0,0.0,0.0,0.0,0.0,0.0,0.0,0.0,0.0,0.0,0.0,0.0,0.0,0.0,0.0,0.0,0.0,-1.8975,-1.9108,-1.9108,-1.9108,-1.9108,-1.9108,-1.9108,-1.9108,-1.9108,-1.9108,-1.9108,-1.9108,-1.9108,-1.9363,-1.9977,0.0,0.0,0.0,0.0,-2.0698,-2.1978,-2.207,-2.2427,-2.3105,-2.3178,-2.3233,-2.3296,-2.3296,-2.3296,-2.3321,-2.3866,-2.4092,-2.413,-2.4587,-2.4788,-2.4687,-2.3684,-2.3296,-2.3296,-2.3296,-2.3296,-2.3296,0.0,0.0,0.0,0.0,0.0,0.0,0.0,-1.6908,-1.6908,-1.6908,-1.6908,-1.6908,-1.6908,-1.6908,-1.6743,-1.6349,-1.5927,-1.5386,-1.4671,-1.4552,-1.4515,-1.4515,-1.4515,-1.4556,-1.4715,-1.4715,-1.4804,-1.5039,-1.5,-1.5029,-1.5088,-1.5059,-1.5059,-1.5088,-1.5176,-1.5147,-1.5039,-1.5,-1.4911,-1.4745,-1.4715,-1.4843,-1.5039,-1.5059,-1.5147,-1.5235,-1.5215,-1.5594,-1.6105,-1.6162,-1.6719,-1.7393,-1.748,-1.7734,0.0,0.0,0.0,0.0,0.0,0.0,0.0,0.0,0.0,0.0,0.0,0.0,0.0,0.0,0.0,0.0,0.0,0.0,0.0,-1.8774,-1.8975,-1.9108,-1.9108,-1.9108,-1.9108,-1.9108,-1.9108,-1.9108,-1.9108,-1.9108,-1.9108,-1.9108,-1.9108,-1.9164,-1.9297,-1.9164,0.0,-2.0258,-2.0161,-2.0484,-2.1282,-2.1834,-2.2392,-2.304,0.0,0.0,-2.4462,-2.4462,-2.4462,-2.4474,-2.4575,-2.4637,-2.4637,-2.475,-2.4788,-2.4763,-2.455,-2.4462,-2.4462,-2.4462,-2.4462,-2.4462,0.0,0.0,0.0,0.0,0.0,0.0,0.0,-1.6908,-1.6908,-1.6908,-1.6908,-1.6908,-1.6908,-1.6908,-1.6826,-1.6633,-1.6046,-1.5349,-1.4561,-1.4515,-1.4515,-1.4515,-1.4515,-1.4556,-1.4715,-1.4715,-1.4813,-1.5,-1.4902,-1.4902,-1.5,-1.4902,-1.4902,-1.5,-1.5059,-1.5,-1.4843,-1.4843,-1.4754,-1.4616,-1.4616,-1.4645,-1.4773,-1.495,-1.5039,-1.5098,-1.5098,-1.5281,-1.5572,-1.5784,-1.6141,-1.6584,-1.7017,-1.7321,-1.759,0.0,0.0,0.0,0.0,0.0,0.0,0.0,0.0,0.0,0.0,0.0,0.0,0.0,0.0,-1.8076,0.0,0.0,-1.8617,-1.8908,-1.9031,-1.9108,-1.9108,-1.9108,-1.9108,-1.9108,-1.9108,-1.9108,-1.9108,-1.9108,-1.9108,-1.9108,-1.9108,-1.9108,-1.9108,-1.9108,-1.9429,-2.0063,-1.9781,-2.0401,-2.2016,-2.2024,-2.2647,-2.3902,-2.4234,-2.4525,-2.4788,-2.4788,-2.4788,-2.48,-2.5096,-2.5209,-2.5234,-2.5523,-2.5636,-2.5636,-2.5636,-2.531,-2.4788,-2.4788,-2.4788,-2.4788,0.0,0.0,0.0,0.0,0.0,0.0,0.0,0.0,-1.6908,-1.6908,-1.6908,-1.6908,-1.6908,-1.6908,-1.6872,-1.6798,-1.6193,-1.5478,-1.468,-1.4625,-1.4588,-1.4485,-1.4515,-1.4556,-1.4715,-1.4656,-1.4754,-1.4941,-1.4754,-1.4754,-1.4891,-1.4754,-1.4754,-1.4891,-1.4941,-1.4843,-1.4656,-1.4686,-1.4606,-1.4515,-1.4515,-1.4515,-1.4545,-1.4803,-1.4911,-1.4941,-1.4941,-1.497,-1.5057,-1.5379,-1.555,-1.5749,-1.655,-1.6944,-1.7158,-1.7528,-1.7779,0.0,0.0,0.0,0.0,0.0,0.0,0.0,0.0,0.0,-1.8008,-1.8008,-1.8042,-1.8144,-1.8414,-1.8516,-1.864,-1.9008,-1.9042,-1.9075,-1.9098,-1.9075,-1.9075,-1.9108,-1.9108,-1.9108,-1.9108,-1.9108,-1.9108,-1.9108,-1.9108,-1.9108,-1.9108,-1.9108,-1.9405,-2.0008,-1.9533,-2.0368,-2.2719,-2.2139,-2.2725,-2.4567,-2.4677,-2.4805,-2.4904,-2.5069,-2.5146,-2.5159,-2.5586,-2.5762,-2.5799,-2.6298,-2.6499,-2.6499,-2.6499,-2.5946,-2.5146,-2.5146,-2.5146,-2.5146,0.0,0.0,0.0,0.0,0.0,0.0,0.0,0.0,0.0,-1.6908,-1.6908,-1.6908,-1.6908,-1.6908,-1.6771,-1.6413,-1.627,-1.59,-1.5093,-1.5038,-1.4873,-1.4533,-1.4515,-1.4556,-1.4715,-1.4586,-1.4586,-1.4745,-1.4586,-1.4536,-1.4575,-1.4536,-1.4536,-1.4565,-1.4695,-1.4636,-1.4536,-1.4666,-1.4606,-1.4515,-1.4515,-1.4515,-1.4515,-1.4545,-1.4645,-1.4745,-1.4745,-1.4843,-1.5009,-1.5057,-1.5313,-1.5723,-1.6366,-1.6792,-1.7133,-1.7366,-1.7451,-1.7484,-1.7484,-1.7725,-1.8008,-1.8008,-1.8008,-1.8008,0.0,0.0,-1.8008,-1.8008,-1.8144,-1.8269,-1.8303,-1.8573,-1.8774,-1.8841,-1.8841,-1.8908,-1.9075,-1.8942,-1.8908,-1.9065,-1.9108,-1.9108,-1.9108,-1.9108,-1.9108,-1.9108,-1.9108,-1.9108,-1.9108,-1.9108,-1.9328,-1.9802,-1.9754,-2.0376,-2.1727,-2.16,-2.226,-2.3653,-2.4251,-2.4778,-2.5272,-2.599,-2.6311,-2.6311,-2.6373,-2.6399,-2.6399,-2.6461,-2.6499,-2.6499,-2.6499,-2.6411,-2.6311,-2.6311,-2.6311,-2.6311,0.0,0.0,0.0,0.0,0.0,0.0,0.0,0.0,0.0,0.0,-1.6908,-1.6908,-1.6908,-1.6908,-1.6743,-1.6349,-1.6288,-1.6074,-1.5478,-1.523,-1.5029,-1.4864,-1.4634,-1.4536,-1.4586,-1.4536,-1.4536,-1.4586,-1.4536,-1.4515,-1.4515,-1.4515,-1.4515,-1.4515,-1.4556,-1.4565,-1.4515,-1.4556,-1.4565,-1.4515,-1.4515,-1.4515,-1.4515,-1.4515,-1.4536,-1.4586,-1.4656,-1.4695,0.0,-1.4813,-1.4956,-1.5172,-1.5656,-1.6037,-1.6408,-1.6722,-1.6896,-1.7061,-1.7314,-1.751,-1.7705,0.0,-1.8008,-1.8008,-1.8008,-1.8008,-1.8008,-1.8008,-1.8076,-1.8168,-1.8269,-1.8405,-1.8539,0.0,-1.8707,-1.8841,-1.8908,-1.8942,-1.9008,-1.9108,-1.9108,-1.9108,-1.9108,-1.9108,-1.9108,-1.9108,-1.9108,-1.9222,-1.9492,-1.9502,-1.971,-2.0131,-2.0151,-2.0748,-2.1999,-2.1974,-2.2597,-2.3846,-2.4613,-2.5095,-2.5347,-2.6141,-2.6499,-2.6499,-2.6499,-2.6499,-2.6499,-2.6499,-2.6499,-2.6499,-2.6499,-2.6499,-2.6499,-2.6499,-2.6499,-2.6499,0.0,0.0,0.0,0.0,0.0,0.0,0.0,0.0,0.0,0.0,0.0,-1.6908,-1.6908,-1.6908,-1.6789,-1.6505,-1.6477,-1.6303,-1.589,-1.5597,-1.5331,-1.5111,-1.4827,-1.4625,-1.4515,-1.4515,-1.4515,-1.4515,-1.4515,-1.4515,-1.4515,-1.4515,-1.4515,-1.4515,-1.4515,-1.4515,-1.4515,-1.4515,-1.4515,-1.4515,-1.4515,-1.4515,-1.4515,-1.4515,-1.4515,-1.4506,-1.4606,-1.4586,-1.4506,-1.4666,-1.4715,-1.4781,-1.524,-1.5555,-1.5858,-1.6155,-1.6386,-1.6641,-1.708,-1.7295,0.0,-1.791,-1.8008,-1.8008,-1.8008,-1.8008,-1.8008,-1.8008,-1.8042,-1.811,-1.8212,-1.8303,-1.8371,-1.8448,-1.8617,-1.8717,-1.8717,-1.8875,-1.9008,-1.9008,-1.9008,-1.9008,-1.9008,-1.9075,-1.9108,-1.9108,-1.9222,-1.944,-1.9772,-1.9917,-2.0151,-2.056,-2.0581,-2.1197,-2.2466,-2.2247,-2.2703,-2.3804,-2.4612,-2.4969,-2.5004,-2.6025,-2.6499,-2.6499,-2.6499,-2.6499,-2.6499,-2.6499,-2.6499,-2.6499,-2.6499,-2.6499,-2.6499,-2.6499,-2.6499,-2.6499,0.0,0.0,0.0,0.0,0.0,0.0,0.0,0.0,0.0,0.0,0.0,0.0,0.0,0.0,-1.6899,-1.689,-1.689,-1.6716,-1.6321,-1.6251,-1.5927,-1.5139,-1.5093,-1.49,-1.4524,-1.4515,-1.4515,-1.4515,-1.4515,-1.4515,-1.4515,-1.4515,-1.4515,-1.4515,-1.4515,-1.4515,-1.4515,-1.4515,-1.4515,-1.4515,-1.4515,-1.4515,-1.4515,-1.4515,-1.4515,-1.4515,-1.4515,-1.4515,-1.4506,-1.4666,-1.4715,-1.481,-1.5383,-1.5678,0.0,-1.5819,-1.5962,0.0,0.0,0.0,-1.749,-1.791,-1.8008,-1.8008,-1.8008,-1.8008,-1.8008,-1.8008,-1.8178,-1.8236,-1.8042,-1.8279,-1.8448,-1.8337,-1.8414,-1.8516,-1.8516,-1.8674,-1.8808,-1.8808,-1.8808,-1.8808,0.0,-1.8975,-1.9108,-1.9108,-1.9523,-1.9782,-1.9793,-2.0172,-2.0617,-2.1073,-2.1093,-2.1681,-2.2968,-2.2193,-2.2241,-2.3038,-2.3768,-2.4156,-2.4192,-2.5791,-2.6499,-2.6499,-2.6499,-2.6499,-2.6499,-2.6499,-2.6499,-2.6499,-2.6499,-2.6499,-2.6499,-2.6499,-2.6499,-2.6499,0.0,0.0,0.0,0.0,0.0,0.0,0.0,0.0,0.0,0.0,0.0,0.0,0.0,0.0,0.0,0.0,-1.6908,-1.6844,-1.6716,-1.6459,-1.6193,-1.5918,-1.5634,-1.5304,-1.4909,-1.49,-1.4772,-1.4515,-1.4515,-1.4515,-1.4515,-1.4515,-1.4515,-1.4515,-1.4515,-1.4515,-1.4515,-1.4515,-1.4515,-1.4515,-1.4515,-1.4515,-1.4515,-1.4515,-1.4515,-1.4515,0.0,-1.4556,-1.4666,-1.4843,-1.4902,0.0,-1.523,0.0,0.0,-1.5516,0.0,0.0,0.0,0.0,-1.749,-1.791,-1.8008,-1.8008,-1.8008,-1.8008,-1.8008,-1.8008,-1.8042,-1.8076,-1.8008,-1.8076,-1.8144,-1.811,-1.8245,-1.8381,-1.8381,-1.8516,-1.8617,-1.8617,-1.8617,0.0,0.0,0.0,0.0,-1.9339,-1.94,-1.9782,-2.0627,-2.0658,-2.0872,-2.1333,-2.1504,-2.1728,-2.1987,-2.1883,-2.2214,-2.3001,-2.4288,-2.5182,-2.5721,-2.6233,-2.6499,-2.6499,-2.6499,-2.6499,-2.6499,-2.6499,-2.6499,-2.6499,-2.6499,-2.6499,-2.6499,-2.6499,-2.6499,-2.6499,0.0,0.0,0.0,0.0,0.0,0.0,0.0,0.0,0.0,0.0,0.0,0.0,0.0,0.0,0.0,0.0,0.0,0.0,-1.6908,-1.667,-1.6434,-1.6321,-1.6056,-1.5725,-1.5322,-1.5166,-1.4974,-1.4717,-1.4717,-1.4653,-1.4485,-1.4653,-1.4643,-1.4515,-1.4662,-1.4717,-1.4735,-1.4873,-1.4937,-1.4937,-1.4937,-1.4937,-1.4937,-1.4937,-1.4937,0.0,-1.4937,-1.5019,-1.5107,-1.4946,-1.4941,0.0,0.0,0.0,0.0,0.0,0.0,0.0,0.0,-1.7168,-1.749,-1.791,-1.8008,-1.8008,-1.8008,-1.8008,-1.8008,-1.8008,-1.8008,-1.8008,-1.8008,-1.8008,-1.8008,-1.8008,-1.8178,-1.8269,-1.8202,-1.8381,-1.8482,-1.8438,-1.8414,-1.8508,0.0,0.0,0.0,-1.9332,-1.954,-2.0036,-2.0935,-2.0944,-2.113,-2.1502,-2.1617,-2.1589,-2.1397,-2.1578,-2.2203,-2.3191,-2.424,-2.5335,-2.6396,-2.6465,-2.6499,-2.6499,-2.6499,-2.6499,-2.6499,-2.6499,-2.6499,-2.6499,-2.6499,-2.6499,-2.6499,-2.6499,-2.6499,-2.6499,0.0,0.0,0.0,0.0,0.0,0.0,0.0,0.0,0.0,0.0,0.0,0.0,0.0,0.0,0.0,0.0,0.0,0.0,-1.6908,-1.6908,-1.6743,-1.6367,-1.6315,-1.6147,-1.5735,-1.5359,-1.5157,-1.5129,-1.5129,-1.4937,-1.4579,-1.4955,-1.4928,-1.4588,-1.4964,-1.5129,-1.5157,-1.5533,-1.5689,-1.5689,-1.5689,-1.5689,-1.5689,-1.5689,-1.5689,-1.5689,-1.5689,-1.5785,-1.5761,0.0,0.0,0.0,0.0,0.0,0.0,0.0,0.0,-1.6349,-1.7191,-1.7435,-1.751,-1.791,-1.8008,-1.8008,-1.8008,-1.8008,-1.8008,-1.8008,-1.8008,-1.8008,0.0,0.0,-1.8008,-1.8008,-1.8168,-1.8202,-1.8042,-1.8279,-1.8414,0.0,0.0,0.0,0.0,0.0,0.0,-1.9214,0.0,-2.0578,-2.0822,-2.105,-2.1282,-2.1464,-2.1464,-2.1397,-2.1167,-2.1464,-2.222,-2.3514,-2.3781,-2.4719,-2.6201,-2.6396,-2.6499,-2.6499,-2.6499,-2.6499,-2.6499,-2.6499,-2.6499,-2.6499,-2.6499,-2.6499,-2.6499,-2.6499,-2.6499,-2.6499,0.0,0.0,0.0,0.0,0.0,0.0,0.0,0.0,0.0,0.0,0.0,0.0,0.0,0.0,0.0,0.0,0.0,0.0,-1.6908,-1.6908,-1.6862,-1.6762,-1.6762,-1.6569,-1.6166,-1.6056,-1.5854,-1.5542,-1.5542,-1.5487,-1.5386,-1.5487,-1.5487,-1.5395,-1.5496,-1.5542,-1.5542,-1.5643,-1.5689,-1.5689,-1.5689,-1.5689,-1.5689,-1.5689,-1.5689,-1.5689,-1.5689,-1.5785,0.0,0.0,0.0,0.0,0.0,-1.622,-1.6364,0.0,0.0,-1.7132,-1.7357,-1.7607,-1.7871,-1.7978,-1.8008,-1.8008,-1.8008,-1.8008,-1.8008,-1.8008,-1.8008,-1.8008,0.0,0.0,0.0,-1.8008,-1.8042,0.0,-1.8008,-1.8076,0.0,-1.8076,0.0,-1.8242,-1.8629,-1.8971,0.0,0.0,-1.9944,-2.0371,-2.1052,-2.1029,-2.0984,-2.1061,-2.1205,-2.1167,-2.0984,-2.2333,-2.3158,-2.3514,-2.4755,-2.5571,-2.598,-2.6201,-2.627,-2.627,-2.643,-2.6499,-2.6499,-2.6499,-2.6499,-2.6499,-2.6499,-2.6499,-2.6499,-2.6499,-2.6499,-2.6499,0.0,0.0,0.0,0.0,0.0,0.0,0.0,0.0,0.0,0.0,0.0,0.0,0.0,0.0,0.0,0.0,0.0,0.0,0.0,-1.6908,-1.6908,-1.6908,-1.6908,-1.6807,-1.6578,-1.6379,-1.6202,-1.5964,-1.5964,-1.5872,-1.5689,-1.5881,-1.5863,-1.5698,-1.5881,-1.5964,-1.5973,-1.6147,-1.6221,0.0,0.0,-1.6221,-1.6221,-1.6221,-1.6221,-1.6221,-1.6221,0.0,0.0,0.0,0.0,-1.6319,-1.6465,-1.6529,-1.6631,-1.6931,0.0,-1.7422,-1.7607,-1.7832,-1.8008,-1.8008,-1.8008,-1.8008,-1.8008,-1.8008,-1.8008,-1.8008,-1.8008,0.0,-1.8008,0.0,0.0,0.0,0.0,0.0,-1.8008,-1.8008,-1.8008,0.0,-1.8174,0.0,-1.8877,-1.9316,-1.9736,0.0,-2.0195,-2.0466,-2.1041,-2.0896,-2.0819,-2.0906,-2.1022,-2.1022,-2.0906,-2.1766,-2.2563,-2.3268,-2.4276,-2.5075,-2.5793,-2.6062,-2.6213,-2.6213,0.0,-2.6499,-2.6499,-2.6499,-2.6499,-2.6499,-2.6499,-2.6499,-2.6499,-2.6499,-2.6499,-2.6499,0.0,0.0,0.0,0.0,0.0,0.0,0.0,0.0,0.0,0.0,0.0,0.0,0.0,0.0,0.0,0.0,0.0,0.0,0.0,0.0,0.0,-1.6908,-1.6908,-1.6908,-1.6908,-1.6569,-1.6361,-1.6361,-1.6361,-1.6211,-1.5863,-1.623,-1.6202,-1.5863,-1.623,-1.6361,-1.6389,-1.6762,-1.6908,-1.6908,-1.6908,-1.6908,-1.6908,0.0,0.0,0.0,0.0,0.0,0.0,0.0,-1.7011,-1.6427,-1.6638,-1.6629,-1.6687,-1.7288,-1.7471,-1.7549,-1.791,-1.8008,-1.8008,-1.8008,-1.8008,-1.8008,-1.8008,-1.8008,-1.8008,-1.8008,0.0,-1.8008,-1.8008,-1.8008,-1.8008,-1.8008,0.0,-1.8008,-1.8008,-1.8008,-1.8008,-1.8008,-1.8344,-1.8773,-1.9248,-1.9668,-2.0098,-2.0566,-2.0605,-2.0693,-2.0867,-2.0693,-2.0693,-2.0867,-2.0867,-2.0867,-2.0867,-2.0799,-2.1461,-2.2835,-2.3084,-2.3891,-2.5276,-2.5641,-2.5875,-2.598,0.0,0.0,-2.6465,-2.6499,-2.6499,-2.6499,-2.6499,-2.6499,-2.6499,-2.6499,-2.6499,-2.6499,0.0,0.0,0.0,0.0,0.0,0.0,0.0,0.0,0.0,0.0,-1.6438,-1.6682,0.0,0.0,0.0,0.0,0.0,0.0,0.0,0.0,0.0,0.0,-1.6908,-1.6908,-1.6908,0.0,0.0,0.0,0.0,-1.6771,-1.6697,-1.6771,-1.6762,-1.6697,-1.6771,-1.6807,-1.6807,-1.6881,-1.6908,-1.6908,-1.6908,-1.6908,-1.6908,-1.6908,0.0,0.0,0.0,0.0,0.0,0.0,-1.74,-1.732,-1.7649,-1.7605,-1.7538,-1.7803,-1.79,-1.792,-1.7988,-1.8008,-1.8008,-1.8008,-1.8008,-1.8008,-1.8008,-1.8008,0.0,0.0,-1.8008,-1.8008,-1.8008,-1.8008,-1.8008,-1.8008,0.0,0.0,0.0,0.0,-1.8008,0.0,0.0,0.0,0.0,0.0,0.0,0.0,0.0,-2.0605,-2.0644,-2.0605,-2.0605,-2.0644,-2.0644,-2.0644,-2.0644,-2.128,-2.1728,-2.2021,-2.2697,-2.3169,-2.3475,-2.3635,-2.4072,-2.4743,-2.5111,0.0,-2.627,-2.643,-2.6499,-2.6499,-2.6499,-2.6499,-2.6499,-2.6499,-2.6499,-2.6499,0.0,0.0,0.0,0.0,0.0,0.0,0.0,-1.5805,-1.5867,-1.6061,-1.6237,-1.6403,-1.6551,-1.6691,-1.6751,0.0,0.0,0.0,0.0,0.0,0.0,0.0,0.0,0.0,0.0,0.0,0.0,0.0,0.0,0.0,0.0,0.0,0.0,0.0,0.0,0.0,0.0,-1.6908,-1.6908,0.0,0.0,0.0,0.0,0.0,0.0,0.0,0.0,0.0,0.0,0.0,-1.7426,-1.7573,-1.7906,-1.7794,-1.7657,-1.7906,-1.8008,-1.8008,-1.8008,-1.8008,-1.8008,-1.8008,-1.8008,-1.8008,-1.8008,0.0,0.0,0.0,-1.8008,-1.8008,-1.8008,0.0,0.0,0.0,0.0,0.0,0.0,0.0,0.0,0.0,0.0,0.0,0.0,0.0,0.0,0.0,0.0,-2.0605,-2.0605,-2.0605,-2.0605,-2.0605,-2.0605,-2.0605,-2.0605,-2.0972,-2.1395,-2.1794,-2.2172,-2.2585,-2.2995,-2.3158,-2.3635,-2.4409,-2.4707,0.0,-2.6213,-2.6305,-2.6396,-2.6499,-2.6499,-2.643,-2.6374,-2.6465,-2.643,-2.6374,0.0,0.0,0.0,0.0,0.0,0.0,0.0,-1.5805,-1.5867,-1.6035,-1.6035,-1.607,-1.6175,-1.6403,-1.6533,0.0,0.0,0.0,0.0,0.0,0.0,0.0,0.0,0.0,0.0,0.0,0.0,0.0,0.0,0.0,0.0,0.0,0.0,0.0,0.0,0.0,0.0,0.0,0.0,0.0,0.0,0.0,0.0,0.0,0.0,0.0,0.0,0.0,0.0,0.0,-1.7279,-1.7436,-1.7769,-1.7735,-1.7598,-1.7906,-1.8008,-1.8008,-1.8008,-1.8008,-1.8008,-1.8008,-1.8008,-1.8008,-1.8008,-1.8008,0.0,0.0,-1.8008,-1.8008,-1.8008,0.0,-1.8008,0.0,-1.8008,0.0,0.0,0.0,0.0,0.0,0.0,0.0,0.0,0.0,0.0,0.0,0.0,0.0,-2.0605,-2.0605,-2.0605,-2.0605,-2.0605,-2.0605,-2.0605,-2.0605,-2.0905,-2.1538,-2.1538,-2.1869,-2.251,-2.2601,-2.3073,-2.3854,-2.4036,0.0,0.0,-2.5875,-2.6072,-2.6361,-2.6361,-2.6258,-2.6166,-2.6361,-2.6402,-2.641,0.0,0.0,0.0,0.0,0.0,0.0,0.0,-1.5805,-1.5805,-1.5832,-1.5832,-1.5832,-1.5832,-1.614,-1.6403,0.0,0.0,0.0,0.0,0.0,0.0,0.0,0.0,0.0,0.0,0.0,0.0,0.0,0.0,0.0,0.0,0.0,0.0,0.0,0.0,0.0,0.0,0.0,0.0,0.0,0.0,0.0,0.0,0.0,0.0,0.0,0.0,0.0,0.0,0.0,0.0,-1.7012,-1.7436,-1.7623,-1.7716,-1.794,0.0,0.0,-1.8008,-1.8008,-1.8008,-1.8008,-1.8008,-1.8008,-1.8008,0.0,0.0,-1.8008,-1.8008,-1.8008,-1.8008,-1.8008,-1.8008,-1.8008,0.0,-1.8008,0.0,0.0,0.0,0.0,0.0,0.0,0.0,0.0,0.0,0.0,0.0,0.0,-2.0605,-2.0605,-2.0605,-2.0605,-2.0605,-2.0605,-2.0605,-2.0605,-2.0644,-2.0722,-2.0722,-2.075,-2.0828,-2.0828,-2.127,-2.2059,-2.2188,0.0,0.0,-2.4743,-2.5264,-2.598,-2.598,-2.5945,-2.5945,-2.6166,-2.6534,-2.6945,0.0,0.0,0.0,0.0,0.0,0.0,-1.5805,-1.5805,-1.5805,-1.5805,-1.5805,-1.5805,-1.5805,-1.5903,-1.6105,-1.6377,0.0,0.0,0.0,0.0,0.0,0.0,0.0,0.0,0.0,0.0,0.0,0.0,0.0,0.0,0.0,0.0,0.0,0.0,0.0,0.0,0.0,0.0,0.0,0.0,0.0,0.0,0.0,0.0,0.0,0.0,0.0,0.0,0.0,0.0,0.0,0.0,-1.7279,-1.7476,0.0,0.0,-1.7896,-1.8008,-1.8008,-1.8008,-1.8008,-1.8008,-1.8008,-1.8008,-1.8008,0.0,-1.8008,-1.8008,-1.8008,-1.8008,-1.8008,-1.8008,-1.8008,-1.8008,0.0,0.0,0.0,0.0,0.0,0.0,0.0,0.0,0.0,0.0,0.0,0.0,0.0,0.0,-2.0605,-2.0605,-2.0605,-2.0605,-2.0605,-2.0605,-2.0605,-2.0605,-2.0605,-2.0605,-2.0605,-2.0605,-2.0605,-2.0605,-2.1049,-2.1794,-2.1869,0.0,0.0,-2.377,-2.4047,-2.4479,-2.4757,-2.5104,-2.5516,-2.5983,-2.6566,-2.714,0.0,0.0,0.0,0.0,0.0,-1.5805,-1.5805,-1.5805,-1.5805,-1.5805,-1.5805,-1.5805,-1.5805,-1.5805,-1.5938,-1.6272,-1.6438,0.0,0.0,0.0,0.0,0.0,0.0,0.0,0.0,0.0,0.0,0.0,0.0,0.0,0.0,0.0,0.0,0.0,0.0,0.0,0.0,0.0,0.0,0.0,0.0,0.0,0.0,0.0,0.0,0.0,0.0,0.0,0.0,0.0,0.0,0.0,0.0,0.0,0.0,0.0,-1.7794,-1.7974,-1.793,-1.794,-1.8008,-1.8008,-1.8008,-1.8008,0.0,0.0,-1.8008,-1.8008,-1.8008,-1.8008,-1.8008,-1.8008,-1.8008,-1.8008,0.0,-1.8008,-1.8008,0.0,0.0,0.0,0.0,0.0,0.0,0.0,0.0,0.0,0.0,0.0,0.0,-2.0605,-2.0605,-2.0605,-2.0605,-2.0605,-2.0605,-2.0605,-2.0605,-2.0605,-2.0605,-2.0605,-2.0605,-2.0605,-2.0905,-2.1471,0.0,0.0,0.0,-2.2966,-2.3268,-2.3734,-2.4088,-2.4489,-2.4941,-2.5436,-2.6062,-2.6712,0.0,0.0,0.0,0.0,0.0,0.0,-1.5805,-1.5805,-1.5805,-1.5805,-1.5805,-1.5805,-1.5805,-1.5805,-1.5938,-1.6272,-1.6307,0.0,0.0,0.0,0.0,0.0,0.0,0.0,0.0,0.0,-1.6908,-1.6908,-1.6908,-1.6908,0.0,0.0,0.0,0.0,0.0,0.0,0.0,0.0,0.0,0.0,0.0,0.0,0.0,0.0,0.0,0.0,0.0,0.0,0.0,0.0,0.0,0.0,0.0,0.0,0.0,0.0,-1.7745,-1.7974,-1.775,-1.7862,-1.8008,-1.8008,-1.8008,-1.8008,0.0,0.0,-1.8008,-1.8008,-1.8008,-1.8008,-1.8008,-1.8008,-1.8008,-1.8008,-1.8008,0.0,-1.8008,0.0,0.0,0.0,0.0,0.0,0.0,0.0,0.0,0.0,0.0,0.0,0.0,-2.0605,-2.0605,-2.0605,-2.0605,-2.0605,-2.0605,-2.0605,-2.0605,-2.0605,-2.0605,-2.0605,-2.0605,-2.0605,-2.0605,0.0,0.0,0.0,0.0,-2.242,-2.3103,-2.418,-2.4191,-2.4191,-2.423,-2.4434,-2.4849,-2.5469,0.0,0.0,0.0,0.0,0.0,0.0,0.0,-1.5805,-1.5805,-1.5805,-1.5805,-1.5805,-1.5805,-1.5805,-1.5938,-1.6272,-1.6307,0.0,0.0,0.0,0.0,0.0,0.0,0.0,0.0,0.0,-1.6908,-1.6908,-1.6908,-1.6908,-1.6908,-1.6908,0.0,0.0,0.0,0.0,0.0,0.0,0.0,0.0,0.0,0.0,0.0,0.0,0.0,0.0,0.0,0.0,0.0,0.0,0.0,0.0,0.0,0.0,0.0,-1.7107,0.0,0.0,-1.7706,-1.7862,-1.7974,-1.7828,-1.7896,-1.7974,-1.7828,0.0,-1.8008,-1.8008,-1.8008,-1.8008,-1.8008,-1.8008,-1.8008,-1.8008,-1.8008,0.0,0.0,0.0,0.0,0.0,0.0,0.0,0.0,0.0,0.0,0.0,0.0,0.0,0.0,-2.0605,-2.0605,-2.0605,-2.0605,-2.0605,-2.0605,-2.0605,-2.0605,-2.0605,-2.0605,-2.0605,-2.0605,-2.0605,0.0,0.0,0.0,0.0,0.0,-2.1949,-2.227,-2.2666,-2.2917,-2.3392,-2.3989,-2.4345,-2.4962,-2.5714,0.0,0.0,0.0,0.0,0.0,0.0,0.0,-1.5805,-1.5805,-1.5805,-1.5805,-1.5805,-1.5805,-1.5805,-1.5938,-1.6272,-1.6307,0.0,0.0,0.0,0.0,0.0,0.0,0.0,-1.6908,-1.6908,-1.6908,-1.6908,-1.6908,-1.6908,-1.6908,-1.6908,-1.6908,-1.6908,0.0,0.0,0.0,0.0,0.0,0.0,0.0,0.0,-1.6908,0.0,0.0,0.0,0.0,0.0,0.0,0.0,0.0,0.0,0.0,0.0,0.0,0.0,0.0,0.0,0.0,-1.7759,-1.7862,-1.7828,-1.7896,0.0,0.0,0.0,-1.8008,-1.8008,-1.8008,-1.8008,-1.8008,-1.8008,-1.8008,-1.8008,-1.8008,0.0,0.0,0.0,0.0,0.0,0.0,0.0,0.0,0.0,0.0,0.0,0.0,0.0,0.0,-2.0605,-2.0605,-2.0605,-2.0605,-2.0605,-2.0605,-2.0605,-2.0605,-2.0605,-2.0605,-2.0605,-2.0605,-2.0605,0.0,0.0,0.0,0.0,0.0,-2.1943,-2.2217,-2.2383,-2.2646,-2.3077,-2.3556,-2.3839,-2.4317,-2.4819,0.0,0.0,0.0,0.0,0.0,0.0,0.0,-1.5805,-1.5805,-1.5805,-1.5805,-1.5805,-1.5805,-1.5797,-1.5938,-1.6272,0.0,0.0,0.0,0.0,0.0,0.0,0.0,0.0,-1.6908,-1.6908,-1.6908,-1.6908,-1.6908,-1.6908,-1.6908,-1.6908,-1.6908,-1.6908,-1.6908,-1.6908,-1.6908,-1.6908,-1.6908,-1.6908,-1.6908,-1.6908,0.0,0.0,0.0,0.0,0.0,0.0,0.0,0.0,0.0,0.0,0.0,0.0,0.0,0.0,0.0,0.0,0.0,0.0,0.0,0.0,0.0,0.0,0.0,0.0,0.0,-1.8008,-1.8008,-1.8008,-1.8008,-1.8008,-1.8008,-1.8008,-1.8008,0.0,0.0,0.0,0.0,0.0,0.0,0.0,0.0,0.0,0.0,0.0,0.0,0.0,0.0,-2.0605,-2.0605,-2.0605,-2.0605,-2.0605,-2.0605,-2.0605,-2.0605,-2.0605,-2.0605,-2.0605,-2.0605,-2.0605,0.0,0.0,0.0,0.0,0.0,-2.2373,-2.274,-2.3091,-2.3091,-2.3091,-2.3091,-2.3091,-2.3091,-2.3222,0.0,0.0,0.0,0.0,0.0,0.0,0.0,0.0,0.0,0.0,-1.5805,-1.5805,-1.5805,-1.5938,-1.6105,0.0,0.0,0.0,0.0,0.0,0.0,0.0,0.0,0.0,-1.6908,-1.6908,-1.6908,-1.6908,-1.6908,-1.6908,-1.6908,-1.6908,-1.6908,-1.6908,-1.6908,-1.6908,-1.6908,-1.6908,-1.6908,-1.6908,-1.6908,-1.6908,0.0,0.0,0.0,0.0,-1.6908,-1.6908,0.0,0.0,0.0,0.0,0.0,0.0,0.0,0.0,-1.6943,0.0,0.0,0.0,0.0,0.0,0.0,0.0,0.0,0.0,0.0,0.0,0.0,0.0,0.0,-1.8008,-1.8008,-1.8008,0.0,0.0,0.0,0.0,0.0,0.0,0.0,0.0,0.0,0.0,0.0,0.0,0.0,0.0,0.0,-2.0605,-2.0605,-2.0605,-2.0605,-2.0605,-2.0605,-2.0605,-2.0605,-2.0605,-2.0605,-2.0605,-2.0605,-2.0605,0.0,0.0,0.0,0.0,-2.1943,-2.2685,-2.3003,-2.3091,-2.3091,-2.3091,-2.3091,-2.3091,-2.3091,-2.3135,0.0,0.0,0.0,0.0,0.0,0.0,0.0,0.0,0.0,0.0,0.0,-1.5805,-1.5805,-1.5964,0.0,0.0,0.0,0.0,0.0,0.0,0.0,0.0,0.0,-1.6908,-1.6908,-1.6908,-1.6908,-1.6908,-1.6908,-1.6908,-1.6908,-1.6908,-1.6908,-1.6908,-1.6908,-1.6908,-1.6908,-1.6908,-1.6908,-1.6908,-1.6908,0.0,0.0,0.0,0.0,0.0,-1.6908,-1.6908,0.0,-1.6908,-1.6908,-1.6908,0.0,0.0,0.0,0.0,-1.6908,-1.6934,-1.7038,-1.727,-1.7442,-1.7348,0.0,0.0,0.0,0.0,0.0,0.0,0.0,0.0,0.0,0.0,0.0,0.0,0.0,0.0,0.0,0.0,0.0,0.0,0.0,0.0,0.0,0.0,0.0,0.0,0.0,0.0,0.0,-2.0605,-2.0605,-2.0605,-2.0605,-2.0605,-2.0605,-2.0605,-2.0605,-2.0605,-2.0605,-2.0605,-2.0605,-2.0605,-2.0605,0.0,0.0,0.0,-2.1953,-2.275,-2.3091,-2.3091,-2.3091,-2.3091,-2.3091,-2.3091,-2.3091,-2.3091,0.0,0.0,0.0,0.0,0.0,0.0,0.0,0.0,0.0,0.0,0.0,0.0,0.0,0.0,0.0,0.0,0.0,0.0,0.0,0.0,0.0,0.0,-1.6908,-1.6908,-1.6908,-1.6908,-1.6908,-1.6908,-1.6908,-1.6908,-1.6908,-1.6908,-1.6908,-1.6908,-1.6908,-1.6908,-1.6908,-1.6908,-1.6908,-1.6908,-1.6908,0.0,0.0,0.0,0.0,0.0,0.0,0.0,0.0,-1.6908,-1.6908,-1.6908,-1.6908,0.0,0.0,0.0,0.0,0.0,-1.6908,-1.7003,-1.721,-1.7358,-1.7436,-1.747,0.0,0.0,0.0,0.0,0.0,0.0,0.0,0.0,0.0,0.0,0.0,0.0,0.0,0.0,0.0,0.0,0.0,0.0,0.0,0.0,0.0,0.0,0.0,0.0,0.0,-2.0605,-2.0605,-2.0605,-2.0605,-2.0605,-2.0605,-2.0605,-2.0605,-2.0605,-2.0605,-2.0605,-2.0605,-2.0605,-2.0605,0.0,0.0,0.0,-2.1953,-2.275,-2.3091,-2.3091,-2.3091,-2.3091,-2.3091,-2.3091,-2.3091,-2.3091,0.0,0.0,0.0,0.0,0.0,0.0,0.0,0.0,0.0,0.0,0.0,0.0,0.0,0.0,0.0,0.0,0.0,0.0,0.0,0.0,0.0,-1.6908,-1.6908,-1.6908,-1.6908,-1.6908,-1.6908,-1.6908,-1.6908,-1.6908,-1.6908,-1.6908,-1.6908,-1.6908,-1.6908,-1.6908,-1.6908,-1.6908,-1.6908,-1.6908,-1.6908,0.0,0.0,0.0,0.0,0.0,0.0,0.0,0.0,-1.6908,-1.6908,-1.6908,-1.6908,0.0,0.0,0.0,0.0,0.0,-1.6908,-1.6934,-1.6943,-1.6978,-1.7107,-1.7235,-1.7235,-1.7382,0.0,0.0,0.0,0.0,0.0,0.0,0.0,0.0,0.0,0.0,0.0,0.0,0.0,0.0,0.0,0.0,0.0,0.0,0.0,0.0,0.0,0.0,0.0,-2.0605,-2.0605,-2.0605,-2.0605,-2.0605,-2.0605,-2.0605,-2.0605,-2.0605,-2.0605,-2.0605,-2.0605,-2.0605,-2.0605,0.0,0.0,-2.1885,-2.1953,-2.275,-2.3091,-2.3091,-2.3091,-2.3091,-2.3091,-2.3091,-2.3091,-2.3091,0.0,0.0,0.0,0.0,0.0,0.0,0.0,0.0,0.0,0.0,0.0,0.0,0.0,0.0,0.0,0.0,0.0,0.0,0.0,0.0,-1.6908,-1.6908,-1.6908,-1.6908,-1.6908,-1.6908,-1.6908,-1.6908,-1.6908,-1.6908,-1.6908,-1.6908,-1.6908,-1.6908,-1.6908,-1.6908,-1.6908,-1.6908,-1.6908,-1.6908,0.0,0.0,0.0,0.0,0.0,0.0,0.0,0.0,0.0,0.0,-1.6908,-1.6908,-1.6908,0.0,0.0,0.0,0.0,0.0,-1.6908,-1.6908,-1.6908,-1.6908,-1.7038,-1.7201,-1.7201,-1.7407,0.0,0.0,0.0,0.0,0.0,0.0,0.0,0.0,0.0,0.0,0.0,0.0,0.0,0.0,0.0,0.0,0.0,0.0,0.0,0.0,0.0,0.0,0.0,0.0,-2.0605,-2.0605,-2.0605,-2.0605,-2.0605,-2.0605,-2.0605,-2.0605,-2.0605,-2.0605,-2.0605,-2.0605,-2.0742,-2.0967,0.0,-2.2012,-2.2275,-2.2847,-2.3091,-2.3091,-2.3091,-2.3091,-2.3091,-2.3091,-2.3091,-2.3091,0.0,0.0,0.0,0.0,0.0,0.0,0.0,0.0,0.0,0.0,0.0,0.0,0.0,0.0,0.0,0.0,0.0,0.0,0.0,-1.6908,-1.6908,-1.6908,-1.6908,-1.6908,-1.6908,-1.6908,-1.6908,-1.6908,-1.6908,-1.6908,-1.6908,-1.6908,-1.6908,-1.6908,-1.6908,-1.6908,-1.6908,-1.6908,-1.6908,-1.6908,0.0,0.0,0.0,0.0,0.0,0.0,0.0,0.0,0.0,0.0,0.0,0.0,0.0,0.0,0.0,-1.6908,-1.6908,-1.6908,-1.6908,-1.6908,-1.6874,-1.6691,0.0,-1.7132,-1.7201,-1.726,0.0,0.0,0.0,0.0,0.0,0.0,0.0,0.0,0.0,0.0,0.0,0.0,0.0,0.0,0.0,0.0,0.0,0.0,0.0,0.0,0.0,0.0,0.0,0.0,-2.0605,-2.0605,-2.0605,-2.0605,-2.0605,-2.0605,-2.0605,-2.0605,-2.0605,-2.0605,-2.0605,-2.0713,-2.0908,-2.122,-2.1797,-2.2217,-2.2549,-2.2925,-2.3091,-2.3091,-2.3091,-2.3091,-2.3091,-2.3091,-2.3091,-2.3091,0.0,0.0,0.0,0.0,0.0,0.0,0.0,0.0,0.0,0.0,0.0,0.0,0.0,0.0,0.0,0.0,0.0,0.0,0.0,-1.6908,-1.6908,-1.6908,-1.6908,-1.6908,-1.6908,-1.6908,-1.6908,-1.6908,-1.6908,-1.6908,-1.6908,-1.6908,-1.6908,-1.6908,-1.6908,-1.6908,-1.6908,-1.6908,-1.6908,-1.6908,-1.6908,0.0,0.0,0.0,0.0,0.0,0.0,0.0,0.0,0.0,0.0,0.0,0.0,0.0,-1.6908,-1.6908,-1.6908,-1.6908,-1.6908,-1.6908,-1.6726,-1.6053,-1.6403,-1.6968,-1.7166,-1.6638,0.0,-1.7398,0.0,0.0,0.0,0.0,0.0,0.0,0.0,0.0,0.0,0.0,0.0,0.0,0.0,0.0,0.0,0.0,0.0,0.0,0.0,0.0,0.0,0.0,0.0,-2.0605,-2.0605,-2.0605,-2.0605,-2.0605,-2.0605,-2.0605,-2.0605,-2.0605,-2.0615,-2.0996,-2.1161,-2.1239,-2.2109,-2.248,-2.2549,-2.2925,-2.3091,-2.3091,-2.3091,-2.3091,-2.3091,-2.3091,-2.3091,-2.3091,0.0,0.0,0.0,0.0,0.0,0.0,0.0,0.0,0.0,0.0,0.0,0.0,0.0,0.0,0.0,0.0,0.0,0.0,0.0,-1.6908,-1.6908,-1.6908,-1.6908,-1.6908,-1.6908,-1.6908,-1.6908,-1.6908,-1.6908,-1.6908,-1.6908,-1.6908,-1.6908,-1.6908,-1.6908,-1.6908,-1.6908,-1.6908,-1.6908,-1.6908,-1.6908,-1.6908,0.0,0.0,0.0,0.0,0.0,0.0,0.0,0.0,-1.6908,-1.6908,-1.6908,-1.6908,-1.6908,-1.6908,-1.6908,-1.6908,-1.6908,-1.6908,-1.6726,-1.5974,-1.6009,0.0,0.0,-1.564,-1.549,-1.5411,-1.5278,0.0,0.0,0.0,0.0,0.0,0.0,0.0,0.0,0.0,0.0,0.0,0.0,0.0,0.0,0.0,0.0,0.0,0.0,0.0,0.0,0.0,0.0,-2.0605,-2.0605,-2.0605,-2.0605,-2.0605,-2.0742,-2.0977,-2.0742,-2.0752,-2.0986,-2.1112,-2.1483,-2.2051,-2.2373,-2.2656,-2.2867,-2.3033,-2.2945,-2.2711,-2.2711,-2.2867,-2.3091,-2.3091,-2.3091,-2.3091,0.0,0.0,0.0,0.0,0.0,0.0,0.0,0.0,0.0,0.0,0.0,0.0,0.0,0.0,0.0,0.0,0.0,0.0,-1.6908,-1.6908,-1.6908,-1.6908,-1.6908,-1.6908,-1.6908,-1.6908,-1.6908,-1.6908,-1.6908,-1.6908,-1.6908,-1.6908,-1.6908,-1.6908,-1.6908,-1.6908,-1.6908,-1.6908,-1.6908,-1.6908,-1.6908,-1.6908,0.0,0.0,0.0,0.0,0.0,0.0,0.0,0.0,-1.6908,-1.6908,-1.6908,-1.6908,-1.6908,-1.6908,-1.6908,-1.6908,-1.6908,-1.6908,-1.6726,-1.5974,0.0,0.0,-1.4974,-1.4744,-1.4593,-1.443,-1.433,0.0,0.0,0.0,0.0,0.0,0.0,0.0,0.0,0.0,0.0,0.0,0.0,0.0,0.0,0.0,0.0,0.0,0.0,0.0,0.0,0.0,0.0,0.0,-2.0605,-2.0605,-2.0605,-2.0742,-2.0937,-2.119,-2.1064,-2.1143,-2.1445,-2.1541,-2.1921,-2.2519,-2.2613,-2.2828,-2.3081,-2.2955,-2.2652,-2.2324,-2.2461,-2.2685,-2.2916,-2.3042,-2.3091,-2.3091,0.0,0.0,0.0,0.0,0.0,0.0,0.0,0.0,0.0,0.0,0.0,0.0,0.0,0.0,0.0,0.0,0.0,0.0,-1.6908,-1.6908,-1.6908,-1.6908,-1.6908,-1.6908,-1.6908,-1.6908,-1.6908,-1.6908,-1.6908,-1.6908,-1.6908,-1.6908,-1.6908,-1.6908,-1.6908,-1.6908,-1.6908,-1.6908,-1.6908,-1.6908,-1.6908,-1.6908,-1.6908,0.0,0.0,0.0,0.0,0.0,0.0,0.0,-1.6908,-1.6908,-1.6908,-1.6908,-1.6908,-1.6908,-1.6908,-1.6908,-1.6908,-1.6908,0.0,0.0,0.0,0.0,-1.478,-1.4034,-1.3818,-1.495,0.0,-1.4832,0.0,0.0,0.0,0.0,0.0,0.0,0.0,0.0,0.0,0.0,0.0,0.0,0.0,0.0,0.0,0.0,0.0,0.0,0.0,0.0,0.0,0.0,-2.0605,-2.0605,-2.0605,-2.1016,-2.119,-2.121,-2.168,-2.1894,-2.1904,-2.2324,-2.251,-2.2539,-2.2916,-2.3091,-2.3052,-2.2676,-2.2256,-2.1924,-2.2344,-2.251,-2.2568,-2.2945,-2.3091,-2.3091,0.0,0.0,0.0,0.0,0.0,0.0,0.0,0.0,0.0,0.0,0.0,0.0,0.0,0.0,0.0,0.0,0.0,0.0,-1.6158,-1.6473,-1.6508,-1.6149,-1.6621,-1.6908,-1.6908,-1.6908,-1.6908,-1.6908,-1.6908,-1.6908,-1.6908,-1.6908,-1.6908,-1.6908,-1.6908,-1.6908,-1.6908,-1.6908,-1.6908,-1.6908,-1.6908,-1.6586,-1.6193,0.0,0.0,0.0,0.0,0.0,0.0,0.0,0.0,0.0,-1.6908,-1.6908,-1.6908,-1.6908,-1.6908,-1.6908,-1.6908,-1.6908,0.0,-1.5974,0.0,0.0,0.0,-1.4034,0.0,0.0,0.0,0.0,0.0,0.0,0.0,0.0,0.0,0.0,0.0,0.0,0.0,0.0,0.0,0.0,0.0,0.0,0.0,0.0,0.0,0.0,0.0,0.0,0.0,0.0,-2.0605,-2.0605,-2.0605,-2.1016,-2.1387,-2.1699,-2.2119,-2.2324,-2.2334,-2.2461,-2.2676,-2.2916,-2.3042,-2.2925,-2.2604,-2.1873,-2.1719,-2.1894,-2.2021,-2.2246,-2.2568,-2.2945,-2.3091,-2.3091,0.0,0.0,0.0,0.0,0.0,0.0,0.0,0.0,0.0,0.0,-1.5805,-1.5832,0.0,0.0,0.0,0.0,0.0,0.0,0.0,-1.5498,-1.5525,-1.5215,-1.6009,-1.6658,-1.7138,-1.7138,-1.7138,-1.7138,-1.6982,-1.6908,-1.6908,-1.6908,-1.6908,-1.6874,-1.6586,-1.6473,-1.6438,-1.6114,-1.6009,-1.6009,-1.6009,-1.5719,-1.5401,0.0,0.0,0.0,0.0,0.0,0.0,0.0,0.0,0.0,-1.6908,-1.6908,-1.6908,-1.6908,-1.6908,-1.6908,-1.6908,0.0,0.0,-1.5974,-1.5798,-1.5507,-1.443,0.0,0.0,0.0,0.0,0.0,0.0,0.0,0.0,0.0,0.0,0.0,0.0,0.0,0.0,0.0,0.0,0.0,0.0,0.0,0.0,0.0,0.0,0.0,0.0,0.0,0.0,0.0,-2.0566,-2.0605,-2.0605,-2.1016,-2.1455,-2.1894,-2.2314,-2.2598,-2.2721,-2.2721,-2.2857,-2.3081,-2.2916,-2.2646,-2.2207,-2.1483,-2.1279,-2.1377,-2.1562,-2.1885,-2.2314,-2.2691,-2.2955,-2.3091,0.0,0.0,0.0,0.0,0.0,0.0,0.0,0.0,0.0,0.0,-1.5655,-1.5788,0.0,0.0,0.0,0.0,0.0,0.0,0.0,-1.4235,-1.425,-1.4245,-1.5298,-1.6421,-1.7541,-1.755,-1.755,-1.755,-1.7119,-1.6908,-1.6908,-1.6908,-1.6874,-1.676,-1.6079,-1.5762,-1.5657,-1.4895,-1.4601,-1.4601,-1.4601,-1.4565,-1.4601,-1.5471,0.0,0.0,0.0,0.0,0.0,0.0,0.0,0.0,-1.6908,-1.6839,-1.6795,-1.6874,-1.6839,-1.6795,-1.6874,0.0,0.0,-1.5974,-1.5798,0.0,0.0,0.0,0.0,0.0,0.0,0.0,0.0,0.0,0.0,0.0,0.0,0.0,0.0,0.0,0.0,0.0,0.0,0.0,0.0,0.0,0.0,0.0,0.0,0.0,0.0,0.0,0.0,-2.0303,-2.0489,-2.0566,-2.0605,-2.1016,-2.1455,0.0,-2.2314,-2.2691,-2.3091,-2.3091,-2.3071,-2.3013,-2.2637,-2.2217,-2.1787,-2.1357,-2.0937,-2.0644,-2.1025,-2.1475,-2.1885,-2.2344,-2.2711,-2.3042,0.0,0.0,0.0,0.0,0.0,0.0,0.0,0.0,0.0,0.0,0.0,0.0,0.0,0.0,0.0,0.0,0.0,0.0,0.0,-1.3738,-1.3967,-1.3769,-1.5583,-1.7031,-1.7953,-1.799,-1.799,-1.799,-1.7266,-1.6908,-1.6908,-1.6908,-1.6586,-1.6017,-1.5868,-1.5436,-1.4859,-1.4673,-1.4601,-1.4601,-1.4601,-1.425,-1.389,-1.5259,-1.5401,0.0,0.0,0.0,0.0,0.0,0.0,0.0,-1.6908,-1.6508,-1.6158,-1.6726,-1.6482,-1.6158,0.0,-1.6908,0.0,0.0,0.0,0.0,0.0,0.0,0.0,0.0,0.0,0.0,0.0,0.0,0.0,0.0,0.0,0.0,0.0,0.0,0.0,0.0,0.0,0.0,0.0,0.0,0.0,0.0,0.0,0.0,0.0,0.0,0.0,-2.0303,-2.0342,-2.0459,-2.0605,-2.1016,-2.1455,0.0,-2.2314,-2.2691,-2.3091,-2.3091,-2.2916,-2.2627,-2.2207,-2.1777,-2.1307,-2.0889,-2.0693,-2.0644,-2.1025,-2.1249,-2.1424,-2.2227,-2.2568,-2.2652,0.0,0.0,0.0,0.0,0.0,0.0,0.0,0.0,0.0,0.0,0.0,0.0,0.0,0.0,0.0,0.0,0.0,0.0,0.0,0.0,-1.3581,-1.4577,-1.5845,-1.6927,-1.7749,-1.8176,-1.8176,-1.774,-1.737,-1.7193,-1.7183,-1.6632,-1.6158,-1.5762,-1.5046,-1.4466,-1.4034,-1.3673,-1.3491,-1.3491,-1.3491,-1.3273,-1.3062,-1.425,-1.4645,-1.4744,-1.5939,0.0,0.0,0.0,0.0,0.0,0.0,0.0,-1.6333,-1.6368,-1.6333,0.0,0.0,0.0,0.0,-1.5507,0.0,0.0,0.0,0.0,0.0,0.0,0.0,0.0,0.0,0.0,0.0,0.0,0.0,0.0,0.0,0.0,0.0,0.0,0.0,0.0,0.0,0.0,0.0,0.0,0.0,0.0,0.0,-1.9754,-1.9833,-1.9951,-2.0186,-2.0342,-2.0459,-2.0761,-2.1133,-2.1582,-2.2012,-2.2539,-2.3091,-2.2886,-2.2715,-2.248,-2.1846,-2.1445,-2.1161,-2.0752,-2.0605,-2.0625,-2.082,-2.1045,-2.1278,-2.1973,-2.2344,-2.2578,0.0,0.0,0.0,0.0,0.0,0.0,0.0,0.0,0.0,0.0,0.0,0.0,0.0,0.0,0.0,0.0,0.0,0.0,0.0,0.0,0.0,-1.5389,-1.5842,-1.6452,-1.7268,-1.8138,-1.8225,-1.7504,-1.7425,-1.7415,-1.7406,-1.6289,-1.5657,-1.5365,-1.407,-1.3426,-1.3244,-1.2592,-1.2305,-1.2305,-1.2305,-1.2305,-1.2372,-1.3208,-1.389,-1.4494,-1.5294,-1.5974,-1.6508,-1.6508,0.0,0.0,0.0,0.0,-1.6368,-1.5754,0.0,0.0,0.0,0.0,-1.6044,0.0,0.0,0.0,0.0,0.0,0.0,0.0,0.0,0.0,0.0,0.0,0.0,0.0,0.0,0.0,0.0,0.0,0.0,0.0,0.0,0.0,0.0,0.0,0.0,0.0,0.0,0.0,-1.9557,-1.9557,-1.9557,-1.9606,-1.999,-2.0225,-2.0303,-2.0459,-2.0752,-2.12,-2.1758,-2.2353,-2.2974,-2.2598,-2.2402,-2.2363,-2.1541,-2.1151,-2.1094,-2.0752,-2.0605,-2.0605,-2.0605,-2.0791,-2.1132,-2.1611,-2.2041,-2.2461,0.0,0.0,0.0,0.0,0.0,0.0,0.0,0.0,0.0,0.0,-1.204,0.0,0.0,0.0,0.0,0.0,0.0,0.0,0.0,0.0,0.0,-1.4615,-1.4934,-1.5635,-1.6782,-1.7639,-1.8049,-1.792,-1.7337,-1.7087,-1.7032,-1.6204,-1.5081,-1.3781,-1.3608,-1.3098,-1.2445,-1.2342,-1.2305,-1.2305,-1.2305,-1.2305,-1.2372,-1.3208,-1.3564,-1.3745,-1.4494,-1.4816,-1.4895,-1.4895,-1.4895,0.0,0.0,0.0,0.0,0.0,0.0,0.0,0.0,0.0,-1.407,0.0,0.0,0.0,0.0,0.0,0.0,0.0,0.0,0.0,0.0,0.0,0.0,0.0,0.0,0.0,0.0,0.0,0.0,0.0,0.0,0.0,0.0,0.0,0.0,0.0,0.0,0.0,-1.9341,-1.9341,-1.9429,-1.9597,-1.9645,-1.9882,-2.0303,-2.0342,-2.0643,-2.121,-2.2051,-2.249,-2.2578,-2.2158,-2.1973,-2.1943,-2.1445,-2.1016,-2.0693,-2.0625,-2.0605,-2.0605,-2.0605,-2.0644,-2.0752,-2.1152,-2.1592,-2.2031,0.0,0.0,0.0,0.0,0.0,0.0,0.0,0.0,0.0,0.0,0.0,-1.1521,0.0,0.0,0.0,0.0,0.0,0.0,0.0,0.0,0.0,-1.4421,-1.4775,-1.5131,-1.5678,-1.6717,-1.7269,-1.7269,-1.6593,-1.6286,-1.6299,-1.5089,-1.4142,-1.3499,-1.3025,-1.2629,-1.2305,-1.2305,-1.2305,-1.2305,-1.2305,-1.2305,-1.2335,-1.2703,-1.3098,-1.3535,-1.3854,-1.425,-1.4601,-1.4601,-1.4601,-1.4601,-1.4601,0.0,0.0,0.0,0.0,0.0,-1.5144,0.0,0.0,0.0,0.0,0.0,0.0,0.0,0.0,0.0,0.0,0.0,0.0,0.0,0.0,0.0,0.0,0.0,0.0,0.0,0.0,0.0,0.0,0.0,0.0,0.0,0.0,0.0,0.0,-1.8078,-1.8567,-1.8567,-1.8856,-1.9429,-1.9557,-1.9715,-1.9921,-2.0147,-2.0604,-2.12,-2.158,-2.1924,-2.2148,-2.1719,-2.1523,-2.1494,-2.1055,-2.0752,-2.0605,-2.0605,-2.0605,-2.0605,-2.0605,-2.0605,-2.0664,-2.1064,-2.1514,-2.1953,0.0,0.0,0.0,0.0,0.0,0.0,0.0,0.0,0.0,0.0,0.0,0.0,0.0,0.0,0.0,0.0,0.0,0.0,0.0,0.0,0.0,0.0,-1.4302,-1.451,-1.4548,-1.5751,-1.637,-1.637,-1.5732,-1.5435,-1.545,-1.3911,-1.3208,-1.3171,-1.2556,-1.2305,-1.2305,-1.2305,-1.2305,-1.2305,-1.2305,-1.2305,-1.2305,-1.2305,-1.2659,-1.3208,-1.3208,-1.3564,-1.4027,-1.4027,-1.4027,-1.4027,-1.4027,0.0,0.0,0.0,0.0,0.0,0.0,0.0,0.0,0.0,0.0,0.0,0.0,0.0,0.0,0.0,0.0,0.0,0.0,0.0,0.0,0.0,0.0,0.0,0.0,0.0,0.0,0.0,0.0,0.0,0.0,0.0,0.0,0.0,0.0,-1.6984,-1.7634,-1.7876,-1.8278,-1.8935,-1.935,-1.9557,-1.9606,-1.999,-2.0357,-2.0738,-2.098,-2.1194,-2.132,-2.1256,-2.1132,-2.1045,-2.0752,-2.0605,-2.0605,-2.0605,-2.0605,-2.0605,-2.0605,-2.0605,-2.0644,-2.0937,-2.1416,-2.1934,0.0,0.0,0.0,0.0,0.0,0.0,0.0,0.0,0.0,0.0,0.0,0.0,-1.1111,-1.1111,-1.1111,-1.1111,0.0,0.0,0.0,0.0,0.0,0.0,0.0,0.0,-1.3675,-1.4862,-1.5477,-1.5477,-1.4869,-1.4552,-1.4538,-1.306,-1.2372,-1.2372,-1.2335,-1.2305,-1.2305,-1.2305,-1.2305,-1.2305,-1.2305,-1.2305,-1.2305,-1.2305,-1.2342,-1.2372,-1.2372,-1.2372,-1.2409,-1.2409,-1.2409,-1.2409,0.0,0.0,0.0,0.0,0.0,0.0,0.0,0.0,0.0,0.0,0.0,0.0,0.0,0.0,0.0,0.0,0.0,0.0,0.0,0.0,0.0,0.0,0.0,0.0,0.0,0.0,0.0,0.0,0.0,0.0,0.0,0.0,0.0,0.0,0.0,-1.6739,-1.678,-1.7553,-1.8037,-1.8078,-1.8895,-1.9429,-1.9606,-1.9833,-1.9743,-1.9397,-2.0426,-2.0517,-1.9734,-2.0738,-2.0996,-2.0635,-2.0615,-2.0605,-2.0605,-2.0605,-2.0605,-2.0605,-2.0605,-2.0605,-2.0605,-2.0635,-2.1182,-2.1894,0.0,0.0,0.0,0.0,0.0,0.0,0.0,0.0,0.0,0.0,0.0,0.0,0.0,-1.1111,-1.1111,-1.1111,-1.1223,0.0,0.0,0.0,0.0,0.0,0.0,0.0,-1.3153,-1.3722,-1.4268,-1.4705,-1.386,-1.368,-1.4045,-1.2858,-1.2305,-1.2305,-1.2305,-1.2305,-1.2305,-1.2305,-1.2305,-1.2305,-1.2305,-1.2305,-1.2305,-1.2305,-1.2305,0.0,0.0,0.0,0.0,0.0,0.0,0.0,0.0,0.0,0.0,0.0,0.0,0.0,0.0,0.0,0.0,0.0,0.0,0.0,0.0,0.0,0.0,0.0,0.0,0.0,0.0,0.0,0.0,0.0,0.0,0.0,0.0,0.0,0.0,0.0,0.0,0.0,0.0,0.0,0.0,0.0,0.0,0.0,-1.5827,-1.6165,-1.6576,-1.7139,-1.7472,-1.7715,-1.7948,-1.798,-1.8008,-1.8031,-1.8389,-1.8429,-1.8145,-1.8712,-1.8883,-1.8789,-1.949,-2.0089,-2.0605,-2.0605,-2.0605,-2.0605,-2.0605,-2.0605,-2.0605,-2.0605,-2.0947,-2.1504,0.0,0.0,0.0,0.0,0.0,0.0,0.0,0.0,0.0,-1.1111,0.0,0.0,0.0,0.0,-1.1111,-1.1111,-1.1223,-1.1446,-1.1781,-1.1781,0.0,0.0,0.0,0.0,0.0,-1.2946,-1.3325,-1.383,-1.3107,-1.3024,-1.3454,-1.2662,-1.2305,-1.2305,-1.2305,-1.2305,-1.2305,-1.2305,-1.2305,-1.2305,-1.2305,-1.2305,-1.2305,0.0,0.0,0.0,0.0,0.0,0.0,0.0,0.0,0.0,0.0,0.0,0.0,0.0,0.0,0.0,-1.2952,0.0,0.0,0.0,0.0,0.0,0.0,0.0,0.0,0.0,0.0,0.0,0.0,0.0,0.0,0.0,0.0,0.0,0.0,0.0,0.0,0.0,0.0,0.0,0.0,0.0,0.0,0.0,0.0,0.0,-1.4731,-1.5068,-1.5688,-1.665,-1.6698,-1.6772,-1.6887,-1.6887,-1.6805,-1.665,-1.7009,-1.705,-1.6764,-1.7334,-1.7577,-1.7617,-1.8318,-1.9204,-2.0206,-2.0479,-2.0605,-2.0605,-2.0605,-2.0605,-2.0605,-2.0605,-2.085,-2.1259,0.0,0.0,0.0,0.0,0.0,0.0,0.0,0.0,-1.1111,-1.1111,0.0,0.0,0.0,0.0,0.0,-1.1111,-1.1111,-1.1186,-1.1409,-1.1409,0.0,0.0,0.0,0.0,-1.2196,-1.2464,-1.2678,-1.2876,-1.2622,-1.2586,-1.2764,-1.2438,-1.2305,-1.2298,-1.2305,-1.2305,-1.2305,-1.2305,-1.2305,-1.2305,0.0,-1.2305,-1.2305,0.0,0.0,0.0,-1.2305,-1.2305,0.0,-1.2305,0.0,0.0,0.0,0.0,0.0,0.0,0.0,0.0,0.0,0.0,0.0,0.0,0.0,0.0,0.0,0.0,0.0,0.0,0.0,0.0,0.0,0.0,0.0,0.0,0.0,0.0,0.0,0.0,0.0,0.0,0.0,0.0,0.0,0.0,0.0,0.0,0.0,-1.332,-1.3573,-1.4393,-1.5415,-1.6601,-1.6617,-1.6617,-1.6617,-1.6617,-1.6206,-1.5352,-1.6437,-1.647,-1.5703,-1.6723,-1.7212,-1.722,-1.7253,-1.7997,-1.9262,-2.0167,-2.0566,-2.0566,-2.0605,-2.0605,-2.0605,-2.0605,-2.084,-2.1239,0.0,0.0,0.0,0.0,0.0,0.0,-1.1111,-1.1111,-1.1111,0.0,0.0,0.0,-1.1111,-1.1111,-1.1149,-1.1298,-1.1335,-1.1409,-1.1595,-1.1632,-1.1632,-1.1706,-1.1789,-1.186,-1.1914,-1.215,-1.2188,-1.211,-1.2338,-1.2266,-1.2008,-1.219,-1.2231,-1.2077,-1.2224,-1.2305,-1.2305,-1.2305,0.0,-1.2305,-1.2305,-1.2305,0.0,0.0,0.0,0.0,0.0,-1.2305,-1.2305,0.0,-1.2305,-1.2305,0.0,0.0,0.0,0.0,0.0,0.0,-1.2305,0.0,0.0,0.0,0.0,0.0,0.0,0.0,0.0,0.0,0.0,0.0,0.0,0.0,0.0,0.0,0.0,0.0,0.0,0.0,0.0,0.0,0.0,0.0,0.0,0.0,0.0,0.0,-1.2911,-1.3045,-1.3313,-1.3723,-1.422,-1.4817,-1.4824,-1.4824,-1.4824,-1.4824,-1.4699,-1.4454,-1.4776,-1.4776,-1.4573,-1.5012,-1.5213,-1.5255,-1.6034,-1.6568,-1.7058,-1.8749,-1.9529,-1.9736,-2.0362,-2.0605,-2.0605,-2.0605,-2.0683,-2.0859,0.0,0.0,0.0,0.0,0.0,-1.1111,-1.1111,-1.1111,-1.1111,0.0,0.0,0.0,-1.1111,-1.1111,-1.1149,-1.126,-1.1335,-1.1409,-1.1446,-1.1521,-1.1558,-1.1446,-1.1446,-1.149,-1.1505,-1.1619,-1.1663,-1.1625,-1.1891,-1.1878,-1.1706,-1.204,-1.2114,-1.2003,-1.2224,-1.2305,-1.2305,0.0,0.0,0.0,-1.2305,0.0,0.0,-1.2305,-1.2305,0.0,0.0,0.0,-1.2305,-1.2305,-1.2305,0.0,0.0,0.0,0.0,0.0,0.0,0.0,0.0,0.0,0.0,0.0,0.0,0.0,0.0,-1.2305,0.0,0.0,0.0,0.0,0.0,0.0,0.0,0.0,0.0,0.0,0.0,0.0,0.0,0.0,0.0,0.0,0.0,0.0,0.0,-1.2583,-1.2596,-1.273,-1.3038,-1.3373,-1.368,-1.3895,-1.4021,-1.4088,-1.4088,-1.4088,-1.4088,-1.4088,-1.4088,-1.4088,-1.4088,-1.4201,-1.4279,-1.4321,-1.4936,-1.5262,-1.5462,-1.7001,-1.7948,-1.8519,-1.9027,-1.9511,-1.9923,-1.9923,-2.0206,-2.0732,0.0,0.0,-1.1111,-1.1111,-1.1111,-1.1111,-1.1111,-1.1111,-1.1111,0.0,-1.1111,-1.1111,-1.1111,-1.1111,-1.1111,-1.1111,-1.126,-1.1298,-1.1111,-1.126,-1.1298,-1.1111,-1.1111,-1.1111,-1.1111,-1.1111,-1.1223,-1.1409,-1.1409,-1.1521,-1.1706,-1.1892,-1.2003,-1.2003,-1.2224,0.0,-1.2305,0.0,0.0,-1.2305,-1.2305,-1.2305,0.0,0.0,-1.2305,-1.2305,-1.2305,-1.2305,-1.2305,-1.2305,-1.2305,0.0,0.0,0.0,0.0,0.0,-1.2305,0.0,0.0,0.0,0.0,0.0,0.0,0.0,-1.2305,-1.2305,-1.2305,0.0,0.0,0.0,0.0,0.0,0.0,0.0,0.0,0.0,0.0,0.0,0.0,0.0,0.0,0.0,0.0,-1.2305,-1.2305,-1.2305,-1.2305,-1.2432,-1.277,-1.3253,-1.3533,-1.36,-1.3901,-1.4055,-1.4088,-1.4088,-1.4088,-1.4088,-1.4088,-1.4088,-1.4088,-1.4088,-1.4088,-1.4088,-1.4088,-1.4201,-1.444,-1.5213,-1.615,-1.718,-1.7261,-1.7908,-1.8798,-1.8798,-1.9402,-2.037,0.0,0.0,-1.1111,-1.1111,-1.1111,-1.1111,-1.1111,-1.1111,-1.1111,-1.1111,-1.1111,-1.1111,-1.1111,-1.1111,-1.1111,-1.1111,-1.1149,-1.1149,-1.1111,-1.1149,-1.1149,-1.1111,-1.1111,-1.1111,-1.1111,-1.126,-1.1372,-1.1409,-1.1558,-1.1669,-1.1706,-1.1892,-1.2003,-1.2003,-1.2224,-1.2305,0.0,0.0,0.0,-1.2305,-1.2305,0.0,-1.2305,-1.2305,-1.2305,-1.2305,-1.2305,-1.2305,-1.2305,-1.2305,-1.2305,-1.2305,0.0,0.0,0.0,0.0,0.0,0.0,0.0,0.0,0.0,0.0,0.0,0.0,-1.2305,-1.2305,-1.2305,0.0,0.0,0.0,0.0,0.0,0.0,0.0,0.0,0.0,0.0,0.0,0.0,0.0,0.0,0.0,0.0,-1.2305,-1.2305,-1.2305,-1.2305,-1.2432,-1.277,-1.2898,-1.3146,-1.3586,-1.366,-1.3848,-1.4082,-1.4088,-1.4088,-1.4088,-1.4088,-1.4088,-1.4088,-1.4088,-1.4088,-1.4088,-1.4088,-1.413,-1.4166,-1.4328,-1.5144,-1.6322,-1.7017,-1.7423,-1.7617,-1.7617,-1.7738,-1.8051,0.0,-1.1111,-1.1111,-1.1111,-1.1111,-1.1111,-1.1111,-1.1111,-1.1111,-1.1111,-1.1111,-1.1111,-1.1111,-1.1111,-1.1111,-1.1111,-1.1186,-1.1223,-1.1111,-1.1186,-1.1186,-1.1111,-1.1111,-1.1111,-1.1111,-1.1186,-1.126,-1.126,-1.1335,-1.1446,-1.1558,-1.1632,-1.1818,-1.2003,-1.2114,-1.2224,0.0,0.0,-1.2305,-1.2305,-1.2305,0.0,-1.2305,-1.2305,-1.2305,-1.2305,-1.2305,-1.2305,-1.2305,-1.2305,-1.2305,0.0,0.0,-1.2305,-1.2305,0.0,-1.2305,-1.2305,0.0,0.0,0.0,-1.2305,0.0,0.0,0.0,-1.2077,-1.2003,0.0,0.0,0.0,0.0,0.0,0.0,0.0,0.0,0.0,0.0,0.0,0.0,0.0,0.0,0.0,0.0,-1.2305,-1.2305,-1.2305,-1.2305,-1.2365,-1.2556,-1.2703,-1.2924,-1.3186,-1.3447,-1.3673,-1.3868,-1.4015,-1.4088,-1.4088,-1.4088,-1.4088,-1.4088,-1.4088,-1.4088,-1.4088,-1.4088,-1.4088,-1.4088,-1.4088,-1.4496,-1.511,-1.5511,-1.6034,-1.6519,-1.6519,-1.6846,-1.74,-1.1111,-1.1111,-1.1111,-1.1111,-1.1111,-1.1111,-1.1111,-1.1111,-1.1111,-1.1111,-1.1111,-1.1111,-1.1111,-1.1111,-1.1111,-1.1111,-1.126,-1.126,-1.1111,-1.126,-1.126,-1.1111,-1.1111,-1.1111,-1.1111,-1.1111,-1.1111,-1.1111,-1.1111,-1.1186,-1.1409,-1.1409,-1.1595,-1.2003,-1.2003,-1.2114,0.0,0.0,0.0,-1.2305,0.0,-1.2305,-1.2305,-1.2305,-1.2305,-1.2305,-1.2305,-1.2305,-1.2305,-1.2305,-1.2305,-1.2305,-1.2305,-1.2305,0.0,0.0,0.0,0.0,0.0,0.0,0.0,0.0,0.0,-1.2003,0.0,0.0,0.0,0.0,0.0,0.0,0.0,0.0,0.0,0.0,0.0,0.0,0.0,0.0,0.0,0.0,0.0,0.0,0.0,-1.2305,-1.2305,-1.2305,-1.2305,-1.2305,-1.2305,-1.2569,-1.2723,-1.2784,-1.328,-1.3547,-1.36,-1.3941,-1.4088,-1.4088,-1.4088,-1.4088,-1.4088,-1.4088,-1.4088,-1.4088,-1.4088,-1.4088,-1.4088,-1.4088,-1.4088,-1.4088,-1.4088,-1.4615,-1.5372,-1.5372,-1.5989,-1.6881,-1.1111,-1.1111,-1.1111,-1.1111,-1.1111,-1.1111,-1.1111,-1.1111,-1.1111,-1.1111,-1.1111,-1.1111,-1.1111,-1.1111,-1.1111,-1.1111,-1.1111,0.0,-1.1111,-1.1111,-1.1111,-1.1111,-1.1111,-1.1111,-1.1111,-1.1111,-1.1111,-1.1111,-1.1111,-1.1186,-1.1409,-1.1409,-1.1595,-1.2003,-1.2003,0.0,0.0,0.0,-1.2305,0.0,-1.2305,-1.2305,0.0,-1.2305,-1.2305,-1.2305,-1.2305,-1.2305,-1.2305,0.0,-1.2305,-1.2305,0.0,-1.2305,-1.2305,0.0,0.0,0.0,0.0,0.0,0.0,0.0,-1.2003,0.0,0.0,0.0,0.0,0.0,0.0,0.0,0.0,0.0,0.0,0.0,0.0,0.0,0.0,0.0,0.0,0.0,0.0,0.0,0.0,0.0,-1.2305,-1.2305,-1.2305,-1.2305,-1.2305,-1.2338,-1.2472,-1.2777,-1.308,-1.3347,-1.36,-1.3941,-1.4088,-1.4088,-1.4088,-1.4088,-1.4088,-1.4088,-1.4088,-1.4088,-1.4088,-1.4088,-1.4088,-1.4088,-1.4088,-1.4088,-1.4088,-1.4166,-1.4292,-1.4292,-1.4498,-1.4856,-1.1111,-1.1111,-1.1111,-1.1111,-1.1111,-1.1111,-1.1111,-1.1111,-1.1111,-1.1111,-1.1111,-1.1111,-1.1111,0.0,0.0,0.0,0.0,-1.1111,0.0,0.0,-1.1111,-1.1111,-1.1111,-1.1111,-1.1111,-1.1111,-1.1111,-1.1111,-1.1111,-1.1186,-1.1409,-1.1298,-1.1484,-1.2003,-1.1744,0.0,-1.212,0.0,-1.212,0.0,0.0,0.0,0.0,-1.2305,-1.2305,-1.2305,-1.2305,-1.2305,-1.2305,0.0,-1.2305,0.0,0.0,0.0,0.0,0.0,0.0,0.0,0.0,0.0,0.0,0.0,0.0,0.0,-1.1706,0.0,-1.1335,0.0,0.0,0.0,0.0,0.0,0.0,0.0,0.0,0.0,0.0,0.0,0.0,0.0,0.0,0.0,0.0,0.0,0.0,0.0,0.0,-1.2305,-1.2305,-1.2305,-1.2358,-1.2522,-1.2824,-1.3086,-1.3353,-1.364,-1.3915,-1.4088,-1.4088,-1.4088,-1.4088,-1.4088,-1.4088,-1.4088,-1.4088,-1.4088,-1.4088,-1.4088,-1.4088,-1.4088,-1.4088,-1.4088,-1.4088,-1.4088,-1.4269,-1.4563,-1.1111,-1.1111,-1.1111,-1.1111,-1.1111,-1.1111,-1.1111,-1.1111,-1.1111,-1.1111,-1.1178,0.0,-1.1226,-1.1226,0.0,0.0,-1.1154,-1.1111,0.0,0.0,-1.1111,0.0,0.0,0.0,-1.1111,-1.1111,-1.1111,-1.1111,-1.1111,-1.1186,-1.1298,-1.1186,-1.1372,-1.1818,0.0,-1.1632,-1.1929,0.0,0.0,-1.1929,-1.215,-1.2268,-1.2305,-1.2305,-1.2305,-1.2305,-1.2305,-1.2305,-1.2305,-1.2305,-1.2305,0.0,-1.2224,0.0,0.0,0.0,0.0,0.0,-1.2187,0.0,0.0,0.0,0.0,0.0,0.0,0.0,0.0,0.0,0.0,0.0,0.0,0.0,0.0,0.0,0.0,0.0,0.0,0.0,0.0,0.0,0.0,0.0,0.0,0.0,0.0,-1.2224,-1.2231,-1.2224,-1.2305,-1.2305,-1.2305,-1.2305,-1.263,-1.2938,-1.3206,-1.346,-1.3753,-1.4088,-1.4088,-1.4088,-1.4088,-1.4088,-1.4088,-1.4088,-1.4088,-1.4088,-1.4088,-1.4088,-1.4088,-1.4088,-1.4088,-1.4088,-1.4088,-1.4088,-1.4322,-1.4669,-1.1111,-1.1111,-1.1111,0.0,0.0,-1.1111,-1.1111,-1.1111,-1.1111,0.0,0.0,0.0,0.0,0.0,0.0,0.0,0.0,-1.1111,-1.1111,0.0,-1.1111,0.0,0.0,-1.1111,0.0,-1.1111,-1.1111,-1.1111,-1.1111,-1.1111,-1.1111,-1.1111,-1.1223,-1.1446,-1.1595,-1.1706,-1.1706,-1.1929,-1.1892,-1.1744,-1.1929,-1.212,-1.2305,0.0,-1.2305,-1.2305,-1.2305,0.0,0.0,-1.2305,-1.2305,0.0,0.0,0.0,0.0,0.0,0.0,0.0,0.0,0.0,0.0,-1.1781,0.0,0.0,0.0,0.0,-1.1111,0.0,0.0,0.0,0.0,0.0,0.0,0.0,0.0,0.0,0.0,0.0,0.0,0.0,0.0,0.0,0.0,0.0,0.0,-1.2003,-1.2003,-1.2077,-1.2298,-1.2305,-1.2305,-1.2305,-1.263,-1.2938,-1.3206,-1.346,-1.3753,-1.4088,-1.4088,-1.4088,-1.4088,-1.4088,-1.4088,-1.4088,-1.4088,-1.4088,-1.4088,-1.4088,-1.4088,-1.4088,-1.4088,-1.4088,-1.4088,-1.4088,-1.4499,-1.4995,-0.9528,-0.9528,0.0,0.0,0.0,-1.1111,-1.1111,-1.123,0.0,0.0,0.0,0.0,0.0,-1.1748,-1.1748,0.0,0.0,-1.1351,-1.1351,-1.1214,0.0,0.0,0.0,-1.1111,0.0,0.0,0.0,-1.1111,-1.1111,-1.1111,-1.1111,-1.1111,-1.1223,-1.1409,0.0,-1.1484,0.0,0.0,0.0,0.0,0.0,-1.1434,-1.2114,0.0,0.0,-1.2305,-1.2305,-1.2305,0.0,-1.215,-1.2114,-1.2077,-1.1855,-1.1781,-1.1781,-1.1706,-1.1706,0.0,0.0,0.0,-1.1781,-1.1706,0.0,0.0,0.0,0.0,0.0,0.0,0.0,0.0,0.0,0.0,0.0,0.0,0.0,0.0,0.0,0.0,0.0,0.0,0.0,0.0,0.0,0.0,0.0,-1.2003,-1.2114,-1.2224,0.0,-1.2305,-1.2305,-1.2305,-1.2398,-1.2699,-1.3206,-1.3307,-1.3601,-1.4088,-1.4088,-1.4088,-1.4088,-1.4088,-1.4088,-1.4088,-1.4088,-1.4088,-1.4088,-1.4088,-1.4088,-1.4088,-1.4088,-1.4088,-1.4088,-1.4088,-1.4462,-1.5062,-0.8703,0.0,0.0,0.0,0.0,0.0,0.0,0.0,0.0,0.0,-1.1802,0.0,-1.2024,0.0,-1.2024,0.0,-1.1784,-1.1633,-1.1633,-1.1375,0.0,-1.1224,-1.1166,0.0,0.0,0.0,0.0,0.0,0.0,-1.1111,-1.1111,-1.1111,-1.1186,-1.1298,0.0,-1.1372,-1.1298,0.0,-1.1484,0.0,0.0,-1.0651,0.0,0.0,-1.1515,-1.1855,0.0,-1.1397,-1.1323,-1.1174,-1.1099,-1.0987,-1.0801,-1.0726,-1.0732,-1.0651,-1.0844,-1.0999,-1.0807,-1.0956,0.0,-1.0807,-1.0657,0.0,-1.0812,0.0,0.0,0.0,0.0,0.0,0.0,0.0,0.0,0.0,0.0,0.0,0.0,0.0,0.0,0.0,0.0,0.0,0.0,0.0,-1.1781,-1.1966,-1.204,-1.215,0.0,0.0,-1.2305,-1.2305,-1.2305,-1.2592,-1.32,-1.3213,-1.3507,-1.4088,-1.4088,-1.4088,-1.4088,-1.4088,-1.4088,-1.4088,-1.4088,-1.4088,-1.4088,-1.4088,-1.4088,-1.4088,-1.4088,-1.4088,-1.4095,-1.4202,-1.4616,-1.519,0.0,0.0,0.0,0.0,-0.867,0.0,0.0,0.0,-1.0528,0.0,-1.189,-1.2165,-1.2165,-1.2165,-1.2165,-1.2165,-1.1927,0.0,-1.1778,-1.1534,0.0,0.0,-1.1199,-1.1086,-1.1111,0.0,0.0,0.0,0.0,0.0,-1.1111,-1.1111,-1.1111,-1.1111,-1.1298,0.0,-1.1111,-1.126,-1.1186,-1.0925,-1.0325,-0.9765,-0.9279,-0.9203,-0.9927,-1.0879,-1.0143,-0.976,-0.9614,-0.9587,-0.9473,-0.9279,-0.9051,-0.9008,-0.8965,-0.8737,-0.9236,-0.9728,-0.9155,-0.9533,-0.9954,-0.9193,0.0,0.0,0.0,0.0,-0.9841,0.0,0.0,0.0,0.0,0.0,0.0,0.0,0.0,0.0,0.0,0.0,0.0,0.0,0.0,0.0,0.0,-1.1223,-1.1372,-1.1929,-1.1818,0.0,0.0,0.0,-1.2298,-1.2305,-1.2305,-1.2592,-1.32,-1.3213,-1.3507,-1.4088,-1.4088,-1.4088,-1.4088,-1.4088,-1.4088,-1.4088,-1.4088,-1.4088,-1.4088,-1.4088,-1.4088,-1.4088,-1.4088,-1.4108,-1.4162,-1.4442,-1.4903,-1.5438,-0.6911,-0.6911,-0.6948,0.0,-0.7953,-0.9018,0.0,0.0,0.0,0.0,-1.0747,-1.053,-1.053,-1.053,-1.053,-1.053,-1.029,0.0,0.0,0.0,0.0,-1.0423,-1.039,-1.0581,-1.108,-1.1111,0.0,-1.1111,0.0,0.0,-1.1111,-1.1111,-1.1111,-1.1111,0.0,0.0,-1.1074,-1.0663,-1.0062,-0.9268,-0.8508,-0.8592,0.0,0.0,-0.8149,-0.9199,-0.9511,-0.9568,-0.9515,-0.9448,-0.936,-0.9184,-0.8994,-0.8855,-0.8775,-0.8699,-0.8851,-0.897,-0.8813,-0.8927,-0.9041,-0.8813,-0.8775,-0.8818,0.0,0.0,0.0,0.0,0.0,0.0,0.0,0.0,0.0,0.0,0.0,0.0,0.0,0.0,0.0,0.0,0.0,0.0,0.0,0.0,-1.1595,-1.1781,-1.1855,0.0,0.0,0.0,0.0,-1.2305,-1.2305,-1.2592,-1.32,-1.3213,-1.3507,-1.4088,-1.4088,-1.4088,-1.4088,-1.4088,-1.4088,-1.4088,-1.4088,-1.4088,-1.4088,-1.4088,-1.4088,-1.4088,-1.4088,-1.4355,-1.4794,-1.4867,-1.5084,-1.5438,-0.63,0.0,0.0,-0.6497,0.0,0.0,-0.9124,0.0,0.0,-1.0789,-1.066,0.0,-1.0491,-1.0144,-0.9879,-0.9879,-0.9776,0.0,-0.9662,0.0,0.0,-0.9837,-0.9686,-0.9759,-1.0133,-1.0073,0.0,-1.0588,0.0,0.0,-1.1111,-1.1111,-1.0925,-1.0588,0.0,-1.0475,0.0,-0.9685,-0.9003,-0.8136,-0.7755,0.0,0.0,-0.7071,-0.7156,-0.7753,-0.8221,-0.8397,-0.8385,-0.8371,-0.826,-0.8091,-0.7974,-0.7868,-0.7814,-0.777,-0.7979,-0.8155,-0.7769,-0.7902,-0.8093,-0.7748,-0.7633,-0.7748,-0.8093,-0.8169,-0.8169,0.0,0.0,0.0,0.0,0.0,0.0,0.0,0.0,0.0,0.0,0.0,0.0,0.0,0.0,0.0,0.0,0.0,0.0,0.0,0.0,0.0,0.0,0.0,0.0,-1.2298,-1.2305,-1.2592,-1.32,-1.3213,-1.3507,-1.4088,-1.4088,-1.4088,-1.4088,-1.4088,-1.4088,-1.4088,-1.4088,-1.4088,-1.4088,-1.4088,-1.4088,-1.4095,-1.4229,-1.4556,-1.5022,-1.5149,-1.5337,-1.5611,0.0,0.0,0.0,0.0,0.0,0.0,0.0,-0.8652,0.0,-1.0469,0.0,-1.0755,-1.0755,-1.0014,-0.9531,-0.9531,0.0,-0.9531,-0.9531,-0.933,-0.9221,-0.9325,-0.8963,-0.8827,-0.8918,-0.8764,0.0,0.0,0.0,0.0,-1.0775,-1.0775,-1.04,0.0,0.0,0.0,0.0,-0.8551,-0.8106,-0.7374,-0.7482,-0.7129,-0.6546,-0.6678,-0.6742,-0.6776,-0.6866,-0.6943,-0.6975,-0.6996,-0.6868,-0.6729,-0.6729,-0.6715,-0.6675,-0.6539,-0.702,-0.7378,-0.656,-0.6828,-0.7204,-0.6497,-0.63,-0.649,-0.7176,-0.733,-0.733,-0.733,-0.7902,-0.7978,0.0,0.0,0.0,0.0,0.0,0.0,0.0,0.0,0.0,0.0,0.0,0.0,0.0,0.0,0.0,0.0,0.0,0.0,0.0,0.0,0.0,-1.2298,-1.2305,0.0,-1.32,0.0,-1.3507,-1.4088,-1.4088,-1.4088,-1.4088,-1.4088,-1.4088,-1.4088,-1.4088,-1.4088,-1.4088,-1.4088,-1.4108,-1.4175,-1.4462,-1.4756,-1.5102,-1.5344,-1.5611,-1.5784,0.0,0.0,0.0,0.0,0.0,-0.6968,-0.7215,-0.7329,-0.778,-0.8779,-0.8301,-0.7837,-0.7837,-0.7709,-0.7577,-0.7577,-0.7577,0.0,0.0,0.0,0.0,-0.8326,-0.8156,-0.8331,-0.8883,-0.8764,-0.8775,0.0,0.0,0.0,-0.9117,0.0,0.0,0.0,0.0,0.0,-0.771,-0.771,0.0,-0.6672,-0.6701,-0.6743,-0.6851,-0.6836,-0.6916,-0.7021,-0.7051,-0.701,-0.6948,-0.7064,-0.6983,-0.6846,-0.6846,-0.6803,-0.6695,-0.6668,-0.6785,-0.6828,-0.6555,-0.6553,-0.6605,-0.6369,-0.63,-0.6338,-0.6493,-0.649,-0.649,-0.649,-0.6606,-0.6834,-0.7215,0.0,0.0,0.0,0.0,0.0,0.0,0.0,0.0,0.0,0.0,0.0,0.0,0.0,0.0,0.0,0.0,0.0,0.0,0.0,0.0,0.0,-1.2305,0.0,0.0,0.0,-1.3507,-1.4088,-1.4088,-1.4088,-1.4088,-1.4088,-1.4088,-1.4088,-1.4088,-1.4088,-1.4088,-1.4088,-1.4229,-1.4476,-1.477,-1.5064,-1.5357,-1.5645,-1.5738,-1.5784,0.0,0.0,0.0,0.0,0.0,0.0,0.0,-0.7038,0.0,-0.8356,-0.8105,-0.7841,-0.7841,-0.7404,-0.7095,-0.7095,-0.7095,-0.7095,-0.7095,-0.7095,-0.7237,-0.7556,-0.7445,0.0,-0.7761,-0.7624,-0.7725,-0.8093,0.0,0.0,0.0,0.0,0.0,-0.8055,0.0,-0.7262,0.0,0.0,0.0,-0.6597,-0.6678,-0.6797,-0.6896,-0.6967,-0.7038,-0.7095,-0.7095,-0.7051,-0.7004,-0.7071,-0.7051,-0.6994,-0.6994,-0.6943,-0.6912,-0.6841,-0.6817,-0.6783,-0.663,-0.659,-0.6573,-0.6505,-0.647,-0.6409,-0.6409,-0.6354,-0.63,-0.63,-0.63,-0.6528,-0.7369,-0.7825,0.0,0.0,0.0,0.0,0.0,0.0,0.0,0.0,0.0,0.0,0.0,0.0,0.0,0.0,0.0,0.0,0.0,0.0,0.0,0.0,0.0,0.0,0.0,0.0,0.0,-1.4088,-1.4088,-1.4088,-1.4088,-1.4088,-1.4088,-1.4088,-1.4088,-1.4088,-1.4088,-1.4088,-1.4255,-1.4549,-1.485,-1.5137,-1.5431,-1.5718,-1.5784,-1.5784,0.0,-0.6892,0.0,0.0,-0.7021,0.0,-0.7095,-0.7095,-0.736,-0.8105,-0.8193,-0.8193,-0.8193,-0.7536,-0.7095,-0.7095,-0.7095,-0.7095,-0.7095,-0.7095,-0.7095,-0.7095,-0.696,-0.6829,-0.6753,-0.66,-0.678,0.0,0.0,0.0,0.0,0.0,0.0,0.0,0.0,0.0,0.0,0.0,-0.661,-0.6759,-0.6836,-0.6903,-0.6943,-0.7055,-0.7095,-0.7095,-0.7095,-0.7095,-0.7095,-0.7095,-0.7095,-0.7095,-0.7095,-0.7095,-0.7075,-0.6964,-0.693,-0.69,-0.679,-0.6749,-0.6742,-0.6709,-0.661,-0.6562,-0.6562,-0.645,-0.6344,-0.6344,-0.632,-0.649,-0.7138,-0.7253,0.0,0.0,0.0,0.0,0.0,0.0,0.0,0.0,0.0,0.0,0.0,0.0,0.0,0.0,0.0,-1.1298,-1.1663,-1.1515,0.0,0.0,0.0,-1.2538,-1.2797,0.0,-1.3712,0.0,-1.4088,-1.4088,-1.4088,-1.4088,-1.4088,-1.4088,-1.387,-1.3701,-1.3525,-1.354,-1.3732,-1.4014,-1.4302,-1.4721,-1.5185,-1.5408,-1.5635,-1.5784,0.0,0.0,0.0,0.0,0.0,0.0,0.0,-0.7095,-0.7139,-0.7228,-0.7228,-0.7228,-0.7228,-0.7139,-0.7095,-0.7095,-0.7095,-0.7095,-0.7095,-0.7095,-0.7095,-0.7095,-0.696,-0.6879,-0.6866,-0.6756,-0.6712,0.0,0.0,0.0,0.0,0.0,0.0,0.0,0.0,0.0,0.0,-0.6678,-0.6766,-0.6866,-0.6879,-0.6964,-0.7078,-0.7092,-0.7095,-0.7095,-0.7095,-0.7095,-0.7095,-0.7095,-0.7095,-0.7095,-0.7095,-0.7095,-0.7095,-0.7082,-0.7078,-0.7045,-0.6903,-0.6866,-0.6832,-0.6736,-0.6692,-0.6678,-0.6678,-0.6563,-0.6494,-0.6494,-0.6388,-0.6338,-0.6416,-0.6412,-0.6454,0.0,0.0,0.0,0.0,0.0,0.0,0.0,0.0,0.0,0.0,0.0,0.0,0.0,0.0,-1.0395,-1.064,-1.0602,-1.0714,-1.0932,0.0,-1.12,-1.1496,-1.271,-1.3457,-1.3737,-1.3997,-1.4088,-1.4088,-1.4088,-1.4088,-1.4039,-1.3179,-1.2357,-1.1602,-1.1767,-1.1998,-1.2279,-1.2486,-1.3307,-1.4405,-1.443,-1.5016,-1.5683,0.0,0.0,0.0,0.0,0.0,0.0,0.0,-0.7095,-0.7095,-0.7095,-0.7095,-0.7095,-0.7095,-0.7095,-0.7095,-0.7095,-0.7095,-0.7095,-0.7095,-0.7095,-0.7095,-0.7095,-0.7041,-0.697,-0.6886,-0.6825,-0.6793,0.0,0.0,0.0,0.0,0.0,0.0,0.0,0.0,-0.6695,-0.6837,-0.6837,-0.6879,-0.7011,-0.7011,-0.7045,-0.7095,-0.7095,-0.7095,-0.7095,-0.7095,-0.7095,-0.7095,-0.7095,-0.7095,-0.7095,-0.7095,-0.7095,-0.7095,-0.7095,-0.7095,-0.7085,-0.7028,-0.7011,-0.6997,-0.6937,-0.6902,-0.6837,-0.6837,-0.6719,-0.661,-0.661,-0.6532,-0.6402,-0.6317,-0.63,-0.63,0.0,0.0,0.0,0.0,0.0,0.0,0.0,0.0,0.0,0.0,0.0,0.0,0.0,0.0,0.0,-0.9744,-0.9669,-0.9732,-1.0012,0.0,-1.0412,-1.0646,-1.1341,-1.1725,-1.1826,-1.2126,-1.226,-1.2254,-1.2954,-1.3264,-1.3222,-1.2272,-1.1706,-1.1493,-1.1584,-1.1842,-1.2196,-1.2245,-1.2718,-1.3318,-1.3318,-1.3607,-1.389,-0.7095,0.0,-0.7095,0.0,-0.7095,-0.7095,-0.7095,-0.7095,-0.7095,-0.7095,-0.7095,-0.7095,-0.7095,-0.7095,-0.7095,-0.7095,-0.7095,-0.7095,-0.7095,-0.7095,-0.7095,-0.7095,-0.7095,0.0,-0.695,-0.6947,-0.6896,-0.6831,-0.679,0.0,0.0,0.0,0.0,0.0,-0.6766,-0.6851,-0.6947,-0.6947,-0.7004,-0.7095,-0.7095,-0.7095,-0.7095,-0.7095,-0.7095,-0.7095,-0.7095,-0.7095,-0.7095,-0.7095,-0.7095,-0.7095,-0.7095,-0.7095,-0.7095,-0.7095,-0.7095,-0.7095,-0.7095,-0.7095,-0.7095,-0.7095,-0.7021,-0.6947,-0.6947,-0.6875,-0.6756,-0.6709,-0.658,-0.648,-0.6381,-0.6327,-0.63,-0.63,0.0,0.0,0.0,0.0,0.0,0.0,-0.6337,-0.6344,-0.6303,0.0,0.0,0.0,0.0,0.0,0.0,-0.8751,0.0,0.0,0.0,0.0,0.0,-1.0205,-1.0524,-1.0524,-1.0826,-1.0999,-1.1042,-1.1875,-1.2143,-1.1843,-1.1223,-1.0901,-1.0786,-1.0915,-1.1154,-1.1442,-1.1507,-1.1814,-1.2242,-1.2242,-1.2387,-1.2533,-0.7095,-0.7095,-0.7095,-0.7095,-0.7095,-0.7095,-0.7095,-0.7095,-0.7095,-0.7095,-0.7095,-0.7095,-0.7095,-0.7095,-0.7095,-0.7095,-0.7095,-0.7095,-0.7095,-0.7095,-0.7095,0.0,0.0,-0.7095,-0.7095,-0.7095,-0.7092,-0.7092,0.0,0.0,-0.6879,0.0,-0.678,-0.6883,-0.6883,-0.696,-0.7095,-0.7095,-0.7095,-0.7095,-0.7095,-0.7095,-0.7095,-0.7095,-0.7095,-0.7095,-0.7095,-0.7095,-0.7095,-0.7095,-0.7095,-0.7095,-0.7095,-0.7095,-0.7095,-0.7095,-0.7095,-0.7095,-0.7095,-0.7095,-0.7095,-0.7095,-0.7095,-0.7095,-0.7095,-0.6984,-0.6839,-0.6732,-0.658,-0.6511,-0.6511,-0.6395,-0.63,-0.63,0.0,0.0,0.0,0.0,0.0,0.0,-0.6422,-0.6453,-0.6313,0.0,0.0,0.0,0.0,0.0,0.0,0.0,0.0,-0.8005,-0.8205,0.0,-0.831,-0.9647,-1.0313,-1.0313,-1.0783,-1.0999,-1.0999,-1.123,-1.0809,-0.9956,-1.011,-0.971,-0.8848,-0.9249,-0.9444,-0.9468,-0.9604,-1.0301,-1.1224,-1.1224,-1.1658,-1.2145,-0.7095,-0.7095,-0.7095,-0.7095,-0.7095,-0.7095,-0.7095,-0.7095,-0.7095,-0.7095,-0.7095,-0.7095,-0.7095,-0.7095,-0.7095,0.0,-0.7095,-0.7095,0.0,-0.7095,-0.7095,-0.7095,-0.7095,-0.7095,-0.7095,-0.7095,-0.7095,-0.7095,0.0,0.0,0.0,-0.6977,-0.6984,-0.7028,-0.7028,-0.7055,-0.7095,-0.7095,-0.7095,-0.7095,-0.7095,-0.7095,-0.7095,-0.7095,-0.7095,-0.7095,-0.7095,-0.7095,-0.7095,-0.7095,-0.7095,-0.7095,-0.7095,-0.7095,-0.7095,-0.7095,-0.7095,-0.7095,-0.7095,-0.7095,-0.7095,-0.7095,-0.7095,-0.7095,-0.7095,-0.7061,-0.6987,-0.6846,-0.6817,-0.6753,-0.6647,-0.6545,-0.6446,-0.6446,-0.6364,0.0,0.0,0.0,0.0,0.0,-0.634,-0.6351,0.0,-0.63,0.0,0.0,0.0,0.0,0.0,0.0,0.0,0.0,-0.7296,0.0,-0.7501,-0.7899,-0.8097,-0.8141,-0.8452,-0.9017,-0.9753,-0.924,-0.9231,-0.9625,-0.9197,-0.9004,-0.8958,-0.9072,-0.9284,-0.9498,-0.9361,-0.9624,-1.0109,-1.0109,-1.0158,-1.0158,-0.7095,-0.7095,-0.7095,-0.7095,-0.7095,-0.7095,-0.7095,-0.7095,-0.7095,-0.7095,-0.7095,-0.7095,-0.7095,-0.7095,0.0,-0.7095,-0.7095,-0.7095,-0.7095,-0.7095,-0.7095,-0.7095,-0.7095,-0.7095,-0.7095,0.0,0.0,-0.7095,-0.7095,-0.7095,-0.7095,-0.7095,-0.7095,-0.7095,-0.7095,-0.7095,-0.7095,-0.7095,-0.7095,-0.7095,-0.7095,-0.7095,-0.7095,-0.7095,-0.7095,-0.7095,-0.7095,-0.7095,-0.7095,-0.7095,-0.7095,-0.7095,-0.7095,-0.7095,-0.7095,-0.7095,-0.7095,-0.7095,-0.7095,-0.7095,-0.7095,-0.7095,-0.7095,-0.7095,-0.7095,-0.7095,-0.7071,-0.698,-0.6923,-0.6856,-0.6803,-0.6661,-0.6559,-0.6559,-0.6525,-0.6446,-0.6388,0.0,0.0,0.0,0.0,0.0,0.0,-0.6378,0.0,0.0,0.0,0.0,0.0,0.0,0.0,-0.6879,-0.6937,0.0,-0.7095,-0.7095,-0.7095,-0.7095,-0.737,-0.794,-0.8675,-0.8182,-0.836,-0.896,-0.8644,-0.8636,-0.8835,-0.8896,-0.9078,-0.9278,-0.913,-0.913,-0.9278,-0.9278,-0.913,-0.8886,-0.7095,-0.7095,0.0,0.0,-0.7095,0.0,-0.7095,-0.7095,-0.7095,-0.7095,-0.7095,-0.7095,-0.7095,-0.7095,-0.7095,-0.7095,0.0,0.0,0.0,-0.7095,-0.7095,-0.7095,-0.7095,-0.7095,-0.7095,-0.7095,-0.7095,-0.7095,-0.7095,-0.7095,-0.7095,-0.7095,-0.7095,-0.7095,-0.7095,-0.7095,-0.7095,-0.7095,-0.7095,-0.7095,-0.7095,-0.7095,-0.7095,-0.7095,-0.7095,-0.7095,-0.7095,-0.7095,-0.7095,-0.7095,-0.7095,-0.7095,-0.7095,-0.7095,-0.7095,-0.7095,-0.7095,-0.7095,-0.7095,-0.7095,-0.7095,-0.7095,-0.7095,-0.7095,-0.7095,-0.7095,-0.7095,-0.7095,-0.6991,-0.69,-0.69,-0.6817,-0.6715,-0.6715,-0.6709,-0.6651,-0.6549,0.0,0.0,0.0,0.0,0.0,0.0,-0.6528,-0.6549,0.0,0.0,0.0,0.0,0.0,-0.69,-0.69,-0.7028,-0.7095,-0.7095,-0.7095,-0.7095,-0.7095,-0.7367,-0.7598,-0.7875,-0.799,-0.8071,-0.8108,-0.8412,-0.8598,-0.862,-0.8716,-0.8775,-0.8775,-0.8775,-0.8775,-0.8825,-0.8825,-0.8627,-0.8382,0.0,0.0,-0.7095,-0.7095,-0.7095,-0.7095,-0.7095,-0.7095,-0.7095,-0.7095,-0.7095,-0.7095,-0.7095,-0.7095,-0.7095,-0.7095,-0.7095,-0.7095,-0.7095,-0.7095,-0.7095,-0.7095,-0.7095,-0.7095,-0.7095,-0.7095,-0.7095,-0.7095,-0.7095,-0.7095,-0.7095,-0.7095,-0.7095,-0.7095,-0.7095,-0.7095,-0.7095,-0.7095,-0.7095,-0.7095,-0.7095,-0.7095,-0.7095,-0.7095,-0.7095,-0.7095,-0.7095,-0.7095,-0.7095,-0.7095,-0.7095,-0.7095,-0.7095,-0.7095,-0.7095,-0.7095,-0.7095,-0.7095,-0.7095,-0.7095,-0.7095,-0.7095,-0.7095,-0.7095,-0.7095,-0.7095,-0.7095,-0.7095,-0.7068,-0.7048,-0.7048,-0.693,-0.6832,-0.6832,-0.6776,-0.6688,-0.6651,-0.6647,0.0,0.0,-0.6597,-0.661,-0.6644,-0.6647,-0.6661,0.0,0.0,0.0,0.0,-0.6987,-0.7048,-0.7048,-0.7078,-0.7095,-0.7095,-0.7095,-0.7095,-0.7095,-0.7143,-0.7293,-0.75,-0.7538,-0.7681,-0.7903,-0.8172,-0.8369,-0.8431,-0.8467,-0.8627,-0.8775,-0.8581,-0.863,-0.8825,-0.8825,-0.8627,-0.8382,-0.7095,-0.7095,-0.7095,-0.7095,-0.7095,-0.7095,-0.7095,-0.7095,-0.7095,-0.7095,-0.7095,-0.7095,-0.7095,-0.7095,-0.7095,-0.7095,-0.7095,-0.7095,-0.7095,-0.7095,-0.7095,-0.7095,-0.7095,-0.7095,-0.7095,-0.7095,-0.7095,-0.7095,-0.7095,-0.7095,-0.7095,-0.7095,-0.7095,-0.7095,-0.7095,-0.7095,-0.7095,-0.7095,-0.7095,-0.7095,-0.7095,-0.7095,-0.7095,-0.7095,-0.7095,-0.7095,-0.7095,-0.7095,-0.7095,-0.7095,-0.7095,-0.7095,-0.7095,-0.7095,-0.7095,-0.7095,-0.7095,-0.7095,-0.7095,-0.7095,-0.7095,-0.7095,-0.7095,-0.7095,-0.7095,-0.7095,-0.7095,-0.7095,-0.7095,-0.7095,-0.7095,-0.7034,-0.698,-0.698,-0.6913,-0.6878,-0.6814,-0.6803,0.0,-0.6709,-0.6702,-0.6729,-0.68,-0.6803,-0.6831,-0.6898,-0.6937,0.0,-0.698,-0.7055,-0.7095,-0.7095,-0.7095,-0.7095,-0.7095,-0.7095,-0.7095,-0.7095,-0.721,-0.7288,-0.7422,-0.7509,-0.7658,-0.7814,-0.8035,-0.8164,-0.8237,-0.8237,-0.8283,-0.8432,-0.8283,-0.8283,-0.8432,-0.8432,-0.8333,-0.8237,-0.7095,-0.7095,-0.7095,-0.7095,-0.7095,-0.7095,-0.7095,-0.7095,-0.7095,-0.7095,-0.7095,-0.7095,-0.7095,-0.7095,-0.7095,-0.7095,-0.7095,-0.7095,-0.7095,-0.7095,-0.7095,-0.7095,-0.7095,-0.7095,-0.7095,-0.7095,-0.7095,-0.7095,-0.7095,-0.7095,-0.7095,-0.7095,-0.7095,-0.7095,-0.7095,-0.7095,-0.7095,-0.7095,-0.7095,-0.7095,-0.7095,-0.7095,-0.7095,-0.7095,-0.7095,-0.7095,-0.7095,-0.7095,-0.7095,-0.7095,-0.7095,-0.7095,-0.7095,-0.7095,-0.7095,-0.7095,-0.7095,-0.7095,-0.7095,-0.7095,-0.7095,-0.7095,-0.7095,-0.7095,-0.7095,-0.7095,-0.7095,-0.7095,-0.7095,-0.7095,-0.7095,-0.7095,-0.7095,-0.7095,-0.7095,-0.7055,-0.6933,0.0,-0.6869,-0.6783,-0.6766,-0.6817,-0.6906,-0.6916,-0.6967,-0.7088,-0.7095,-0.7095,-0.7095,-0.7095,-0.7095,-0.7095,-0.7095,-0.7095,-0.7095,-0.7095,-0.7109,-0.7132,-0.7309,-0.7439,-0.7448,-0.7695,-0.7824,-0.7851,-0.7934,-0.7988,-0.7988,-0.7988,-0.7988,-0.7988,-0.7988,-0.7988,-0.7988,-0.7988,-0.7988,-0.7988,-0.7095,-0.7095,-0.7095,-0.7095,-0.7095,-0.7095,-0.7095,-0.7095,-0.7095,-0.7095,-0.7095,-0.7095,-0.7095,-0.7095,-0.7095,-0.7095,-0.7095,-0.7095,-0.7095,-0.7095,-0.7095,-0.7095,-0.7095,-0.7095,-0.7095,-0.7095,-0.7095,-0.7095,-0.7095,-0.7095,-0.7095,-0.7095,-0.7095,-0.7095,-0.7095,-0.7095,-0.7095,-0.7095,-0.7095,-0.7095,-0.7095,-0.7095,-0.7095,-0.7095,-0.7095,-0.7095,-0.7095,-0.7095,-0.7095,-0.7095,-0.7095,-0.7095,-0.7095,-0.7095,-0.7095,-0.7095,-0.7095,-0.7095,-0.7095,-0.7095,-0.7095,-0.7095,-0.7095,-0.7095,-0.7095,-0.7095,-0.7095,-0.7095,-0.7095,-0.7095,-0.7095,-0.7095,-0.7095,-0.7095,-0.7095,-0.7088,-0.7065,0.0,-0.7055,-0.7031,-0.7028,-0.7038,-0.7061,-0.7061,-0.7071,-0.7095,-0.7095,-0.7095,-0.7095,-0.7095,-0.7095,-0.7095,-0.7095,-0.7095,-0.7095,-0.7095,-0.7207,-0.7336,-0.7405,-0.7502,-0.7743,-0.779,-0.7882,-0.7958,-0.7978,-0.7988,-0.7988,-0.7988,-0.7988,-0.7988,-0.7988,-0.7988,-0.7988,-0.7988,-0.7988,-0.7988,-0.7095,-0.7095,-0.7095,-0.7095,-0.7095,-0.7095,-0.7095,-0.7095,-0.7095,-0.7095,-0.665,-0.6517,-0.7051,-0.665,-0.6564,-0.7051,-0.6653,-0.634,-0.634,-0.683,-0.7095,-0.7095,-0.7095,-0.7095,-0.7095,-0.7095,-0.683,-0.634,-0.634,-0.6071,-0.5578,-0.5578,-0.5847,-0.634,-0.634,-0.6609,-0.7095,-0.7095,-0.7095,-0.7051,-0.6564,-0.634,-0.634,-0.634,-0.634,-0.6428,-0.6918,-0.7095,-0.7095,-0.7095,-0.7095,-0.7095,-0.7095,-0.7095,-0.7095,-0.7095,-0.7095,-0.7095,-0.7095,-0.7095,-0.7095,-0.7095,-0.7095,-0.7095,-0.7095,-0.7095,-0.7095,-0.7095,-0.7095,-0.7095,-0.7095,-0.7095,-0.7095,-0.7095,-0.7095,0.0,0.0,-0.7095,-0.7095,-0.7095,-0.7095,-0.7095,-0.7095,-0.7095,-0.7095,-0.7095,-0.7095,-0.7095,-0.7095,-0.7095,-0.7095,-0.7095,-0.7095,-0.7095,-0.7095,-0.7224,-0.7299,-0.7419,-0.7533,-0.7678,-0.7814,-0.7896,-0.7924,-0.7988,-0.7988,-0.7988,-0.7988,-0.7988,-0.7988,-0.7988,-0.7988,-0.7988,-0.7988,-0.7988,-0.7988,-0.7988,-0.647,-0.647,-0.647,-0.647,-0.647,-0.647,-0.647,-0.647,-0.647,-0.647,-0.5805,-0.5628,-0.6381,-0.5805,-0.5672,-0.6381,-0.5805,-0.5361,-0.5361,-0.6027,-0.647,-0.647,-0.647,-0.6441,-0.6427,-0.6427,-0.6084,-0.5395,-0.5395,-0.502,-0.432,-0.432,-0.4667,-0.5361,-0.5361,-0.5761,-0.647,-0.647,-0.647,-0.6384,-0.5657,-0.5357,-0.536,-0.5385,-0.5395,-0.5485,-0.6206,-0.6475,-0.6475,-0.6475,-0.6475,-0.6475,-0.6475,-0.6475,-0.6475,-0.6475,-0.6475,-0.6514,-0.6754,-0.6815,-0.6793,-0.652,-0.6475,-0.6475,-0.6475,-0.6475,-0.6475,-0.6475,-0.6475,-0.6475,-0.6475,-0.6655,-0.6837,-0.6837,0.0,0.0,0.0,-0.7149,-0.7136,-0.7098,-0.7095,-0.7095,-0.7095,-0.7095,-0.7095,-0.7095,-0.7095,-0.7095,-0.7095,-0.7095,-0.7112,-0.7149,-0.7115,-0.7112,-0.7149,-0.7312,-0.7453,-0.7478,-0.7702,-0.7831,-0.7868,-0.7934,-0.7988,-0.7988,-0.7988,-0.7988,-0.7988,-0.7988,-0.7988,-0.7988,-0.7988,-0.7988,-0.7988,-0.7988,-0.7988,-0.7988,-0.4512,-0.4512,-0.4512,-0.4512,-0.4512,-0.4512,-0.4512,-0.4512,-0.4512,-0.4512,-0.4467,-0.4423,-0.4512,-0.4467,-0.4423,-0.4512,-0.4423,-0.4423,-0.4423,-0.4465,-0.4512,-0.4512,-0.4512,-0.4508,-0.4503,-0.4505,-0.4501,-0.4493,-0.4493,-0.4451,-0.4322,-0.4322,-0.4324,-0.4423,-0.4423,-0.4423,-0.4512,-0.4512,-0.4512,-0.4518,-0.4427,-0.4414,-0.4422,-0.4461,-0.4493,-0.4493,-0.4588,-0.4588,-0.4588,-0.4588,-0.4588,-0.4588,-0.4588,-0.4588,-0.4588,-0.4588,-0.4588,-0.4804,-0.5639,-0.5964,-0.5855,-0.487,-0.4588,-0.4588,-0.4588,-0.4588,-0.4588,-0.4588,-0.4588,-0.4588,-0.4588,-0.5432,-0.6092,-0.6092,0.0,0.0,-0.7373,-0.7398,-0.7299,-0.7112,-0.7095,-0.7095,-0.7095,-0.7095,-0.7095,-0.7095,-0.7095,-0.7095,-0.7095,-0.7095,-0.7207,-0.735,-0.7214,-0.721,-0.7353,-0.7412,-0.7509,-0.778,-0.7801,-0.7885,-0.7975,-0.7985,-0.7988,-0.7988,-0.7988,-0.7988,-0.7988,-0.7988,-0.7988,-0.7988,-0.7988,-0.7988,-0.7988,-0.7988,-0.7988,-0.7988,-0.4289,-0.4289,-0.4289,-0.4289,-0.4289,-0.4289,-0.4289,-0.4289,-0.4289,-0.4289,-0.3801,-0.3667,-0.4245,-0.3799,-0.3667,-0.4245,-0.3757,-0.3444,-0.3444,-0.2864,-0.3041,-0.4245,-0.4297,-0.4296,-0.4284,-0.434,-0.4103,-0.3521,-0.3521,-0.3223,-0.2541,-0.2541,-0.2905,-0.3488,-0.3488,-0.381,-0.4364,-0.4364,-0.4364,-0.4322,-0.375,-0.348,-0.3484,-0.351,-0.3521,-0.3615,-0.4182,-0.4417,-0.4417,-0.4417,-0.4417,-0.4417,-0.4417,-0.4417,-0.4417,-0.4417,-0.4456,-0.4444,-0.4124,-0.4528,-0.489,-0.4512,-0.4417,-0.4417,-0.4417,-0.4417,-0.4417,-0.4417,-0.4417,-0.4417,-0.4417,-0.4748,-0.5221,-0.5881,0.0,-0.6694,-0.7334,-0.7288,-0.7207,-0.7102,-0.7095,-0.7095,-0.7095,-0.7095,-0.7095,-0.7095,-0.7095,-0.7095,-0.7095,-0.7231,-0.7312,-0.7415,-0.7407,-0.7455,-0.7512,-0.76,-0.7699,-0.7814,-0.7909,-0.7934,-0.7988,-0.7988,-0.7988,-0.7988,-0.7988,-0.7988,-0.7988,-0.7988,-0.7988,-0.7988,-0.7988,-0.7988,-0.7988,-0.7988,-0.7988,-0.7988,-0.3398,-0.3398,-0.3398,-0.3398,-0.3398,-0.3398,-0.3398,-0.3398,-0.3398,-0.3398,-0.282,-0.2688,-0.3309,-0.282,-0.2686,-0.3353,-0.282,-0.2419,-0.2419,-0.1793,-0.2022,-0.3342,-0.3433,-0.3435,-0.3432,-0.3479,-0.3227,-0.2573,-0.2475,-0.2129,-0.154,-0.1348,-0.1678,-0.2382,-0.2334,-0.2617,-0.3232,-0.3232,-0.328,-0.333,-0.2684,-0.2452,-0.2454,-0.2421,-0.2378,-0.2378,-0.3053,-0.3293,-0.3293,-0.3293,-0.3293,-0.3293,-0.3293,-0.3293,-0.3293,-0.3293,-0.3325,-0.3261,-0.2521,-0.2789,-0.3293,-0.3488,-0.3536,-0.3536,-0.3536,-0.3536,-0.3536,-0.3536,-0.3536,-0.3536,-0.3536,-0.3776,-0.4259,-0.498,-0.5327,-0.5717,-0.6423,-0.6394,-0.6251,-0.621,-0.6473,-0.665,-0.665,-0.6918,-0.7095,-0.7095,-0.7095,-0.7119,-0.721,-0.736,-0.7461,-0.7509,-0.7611,-0.7498,-0.7206,-0.7591,-0.7834,-0.7885,-0.7938,-0.7988,-0.7988,-0.7988,-0.7988,-0.7988,-0.7988,-0.7988,-0.7988,-0.7988,-0.7988,-0.7988,-0.7988,-0.7988,-0.7988,-0.7988,-0.7988,-0.7988,-0.1391,-0.1391,-0.1391,-0.1391,-0.1391,-0.1391,-0.1391,-0.1391,-0.1391,-0.1391,-0.1391,-0.1391,-0.1391,-0.1391,-0.1391,-0.1391,-0.1391,-0.1391,-0.1391,-0.1391,-0.1449,-0.148,-0.1481,-0.1509,-0.1619,-0.1572,-0.1586,-0.1617,-0.1314,-0.1351,-0.1572,-0.1031,-0.0923,-0.1097,-0.0811,-0.0716,-0.0716,-0.0716,-0.0859,-0.1099,-0.1169,-0.1178,-0.1181,-0.1204,-0.101,-0.0808,-0.0808,-0.0808,-0.0808,-0.0808,-0.0808,-0.0808,-0.0808,-0.0808,-0.0808,-0.0808,-0.0808,-0.0808,-0.0808,-0.0808,-0.0909,-0.1465,-0.1617,-0.1617,-0.1617,-0.1617,-0.1617,-0.1617,-0.1617,-0.1617,-0.1617,-0.2471,-0.3173,-0.3173,-0.4108,-0.4756,-0.4621,-0.453,-0.4437,-0.43,-0.5137,-0.5675,-0.5675,-0.6517,-0.7095,-0.7095,-0.7098,-0.7162,-0.7366,-0.7519,-0.7617,-0.7759,-0.7762,-0.7345,-0.6384,-0.7348,-0.7889,-0.7988,-0.7988,-0.7988,-0.7988,-0.7988,-0.7988,-0.7988,-0.7988,-0.7988,-0.7988,-0.7988,-0.7988,-0.7988,-0.7988,-0.7988,-0.7988,-0.7988,-0.7988,-0.7988,-0.1391,-0.1391,-0.1391,-0.1391,-0.1391,-0.1391,-0.1391,-0.1391,-0.1391,-0.1391,-0.1391,-0.1391,-0.1391,-0.1391,-0.1391,-0.1391,-0.1391,-0.1391,-0.1391,-0.1273,-0.1203,-0.1227,-0.1228,-0.1244,-0.1325,-0.1144,-0.1055,-0.1061,-0.096,-0.0957,-0.1052,-0.0851,-0.0849,-0.0894,-0.0795,-0.0795,-0.0795,-0.0795,-0.0795,-0.0895,-0.09,-0.0902,-0.0902,-0.0907,-0.0859,-0.0808,-0.0808,-0.0808,-0.0808,-0.0808,-0.0808,-0.0808,-0.0808,-0.0808,-0.0808,-0.0808,-0.0808,-0.0808,-0.0808,-0.0808,-0.0859,-0.101,-0.1061,-0.1061,-0.1061,-0.1061,-0.1061,-0.1061,-0.1061,-0.1061,-0.1061,-0.1313,-0.1816,-0.2771,-0.3087,-0.3494,-0.447,-0.4474,-0.4365,-0.4291,-0.4556,-0.4734,-0.4734,-0.4956,-0.5134,-0.5134,-0.5115,-0.5204,-0.5312,-0.542,-0.5492,-0.5572,-0.5642,-0.5544,-0.5277,-0.7044,-0.7595,-0.6886,-0.7637,-0.7988,-0.7988,-0.7988,-0.7988,-0.7988,-0.7988,-0.7988,-0.7988,-0.7988,-0.7988,-0.7988,-0.7988,-0.7988,-0.7988,-0.7988,-0.7988,-0.7988,-0.1391,-0.1391,-0.1391,-0.1391,-0.1391,-0.1391,-0.1391,-0.1391,-0.1391,-0.1391,-0.1391,-0.1391,-0.1391,-0.1391,-0.1391,-0.1391,-0.1345,-0.1256,-0.1121,-0.1006,-0.0934,-0.1,-0.0865,-0.0876,-0.1042,-0.0904,-0.0808,-0.0808,-0.0707,-0.0707,-0.0808,-0.0606,-0.0556,-0.0657,-0.0556,-0.0505,-0.0505,-0.0505,-0.0556,-0.0657,-0.0657,-0.0657,-0.0657,-0.0657,-0.0556,-0.0505,-0.0505,-0.0505,-0.0505,-0.0505,-0.0505,-0.0505,-0.0505,-0.0505,-0.0505,-0.0505,-0.0505,-0.0505,-0.0505,-0.0505,-0.0505,-0.0505,-0.0657,-0.0808,-0.0808,-0.0808,-0.0808,-0.0808,-0.0808,-0.0808,-0.0808,-0.0808,-0.106,-0.1865,-0.1905,-0.2142,-0.2996,-0.2985,-0.2906,-0.3041,-0.3353,-0.3621,-0.3757,-0.4067,-0.4304,-0.4293,-0.4366,-0.4415,-0.4468,-0.4602,-0.4697,-0.4697,-0.4748,-0.4574,-0.4175,-0.5879,-0.6431,-0.5782,-0.6431,-0.6731,-0.6731,-0.6731,-0.6731,-0.6731,-0.6731,-0.6731,-0.6731,-0.6731,-0.6731,-0.6731,-0.6731,-0.6731,-0.6783,-0.7185,-0.7388,-0.7437,-0.1391,-0.1391,-0.1391,-0.1391,-0.1391,-0.1391,-0.1391,-0.1391,-0.1391,-0.1391,-0.1391,-0.139,-0.139,-0.1345,-0.1345,-0.1345,-0.1166,-0.0942,-0.0718,-0.0687,-0.0701,-0.0762,-0.0487,-0.0496,-0.0707,-0.0707,-0.0707,-0.0707,-0.0505,-0.0505,-0.0707,-0.0253,-0.0152,-0.0354,-0.0101,0.0,0.0,0.0,-0.0152,-0.0354,-0.0354,-0.0354,-0.0354,-0.0354,-0.0202,0.0,0.0,0.0,0.0,0.0,0.0,0.0,0.0,0.0,0.0,0.0,0.0,0.0,0.0,0.0,0.0,0.0,-0.0354,-0.0707,-0.0707,-0.0707,-0.0707,-0.0707,-0.0707,-0.0707,-0.0707,-0.0707,-0.0758,-0.0758,-0.0784,-0.0764,-0.0811,-0.0738,-0.0809,-0.1031,-0.1837,-0.2418,-0.2688,-0.3494,-0.398,-0.3979,-0.4172,-0.4309,-0.4317,-0.4436,-0.4524,-0.4524,-0.4524,-0.4024,-0.3074,-0.4024,-0.4574,-0.4674,-0.4774,-0.4824,-0.4824,-0.4824,-0.4824,-0.4824,-0.4824,-0.4824,-0.4824,-0.4824,-0.4824,-0.4824,-0.4824,-0.4824,-0.4924,-0.5882,-0.6234,-0.6434,-0.1391,-0.1391,-0.1391,-0.1391,-0.1391,-0.1391,-0.1391,-0.1391,-0.1391,-0.1391,-0.1256,-0.1166,-0.1166,-0.0987,-0.0852,-0.0852,-0.0807,-0.0762,-0.0718,-0.0557,-0.0474,-0.0477,-0.0247,-0.0101,-0.0152,-0.0152,-0.0152,-0.0152,-0.0101,-0.0101,-0.0152,-0.0051,-0.0051,-0.0101,-0.0051,0.0,0.0,0.0,-0.0051,-0.0101,-0.0101,-0.0101,-0.0101,-0.0101,-0.0051,0.0,0.0,0.0,0.0,0.0,0.0,0.0,0.0,0.0,0.0,0.0,0.0,0.0,0.0,0.0,0.0,0.0,-0.0101,-0.0152,-0.0152,-0.0152,-0.0152,-0.0152,-0.0152,-0.0152,-0.0152,-0.0152,-0.0253,-0.0455,-0.0495,-0.0582,-0.0765,-0.0747,-0.0731,-0.0764,-0.0986,-0.1121,-0.1165,-0.1364,-0.1491,-0.1545,-0.1806,-0.1925,-0.1955,-0.2165,-0.227,-0.227,-0.227,-0.217,-0.1969,-0.217,-0.2722,-0.3574,-0.4373,-0.4824,-0.4824,-0.4824,-0.4824,-0.4824,-0.4824,-0.4824,-0.4824,-0.4824,-0.4824,-0.4824,-0.4824,-0.4824,-0.4824,-0.5074,-0.5127,-0.5277,-0.1391,-0.1391,-0.1391,-0.1391,-0.1391,-0.1391,-0.1391,-0.13,-0.1256,-0.1256,-0.1076,-0.0897,-0.0897,-0.0762,-0.0673,-0.0583,-0.0538,-0.0495,-0.0364,-0.0281,-0.0191,-0.0193,-0.0099,0.0,0.0,0.0,0.0,0.0,0.0,0.0,0.0,0.0,0.0,0.0,0.0,0.0,0.0,0.0,0.0,0.0,0.0,0.0,0.0,0.0,0.0,0.0,0.0,0.0,0.0,0.0,0.0,0.0,0.0,0.0,0.0,0.0,0.0,0.0,0.0,0.0,0.0,0.0,0.0,0.0,0.0,0.0,0.0,0.0,0.0,0.0,0.0,0.0,-0.0051,-0.0202,-0.0199,-0.0244,-0.0382,-0.0375,-0.0413,-0.0539,-0.0538,-0.0585,-0.0682,-0.0749,-0.0768,-0.0784,-0.0941,-0.1,-0.101,-0.1162,-0.1212,-0.1212,-0.1212,-0.1263,-0.1415,-0.1415,-0.1767,-0.2421,-0.3022,-0.3274,-0.3274,-0.3274,-0.3274,-0.3274,-0.3274,-0.3274,-0.3274,-0.3274,-0.3274,-0.3274,-0.3274,-0.3274,-0.3323,-0.3823,-0.4373,-0.4874,-0.1391,-0.1345,-0.13,-0.1345,-0.13,-0.13,-0.13,-0.1121,-0.1031,-0.1031,-0.0807,-0.0628,-0.0628,-0.0628,-0.0494,-0.0359,-0.0315,-0.0227,0.0,0.0,0.0,0.0,0.0,0.0,0.0,0.0,0.0,0.0,0.0,0.0,0.0,0.0,0.0,0.0,0.0,0.0,0.0,0.0,0.0,0.0,0.0,0.0,0.0,0.0,0.0,0.0,0.0,0.0,0.0,0.0,0.0,0.0,0.0,0.0,0.0,0.0,0.0,0.0,0.0,0.0,0.0,0.0,0.0,0.0,0.0,0.0,0.0,0.0,0.0,0.0,0.0,0.0,0.0,0.0,0.0,0.0,0.0,0.0,-0.0092,-0.0316,-0.0316,-0.0411,-0.056,-0.0626,-0.0639,-0.0641,-0.0701,-0.0707,-0.0707,-0.0758,-0.0808,-0.0808,-0.0808,-0.0909,-0.1111,-0.1111,-0.1263,-0.1465,-0.1465,-0.1516,-0.1617,-0.1617,-0.1617,-0.1617,-0.1617,-0.1617,-0.1617,-0.1617,-0.1617,-0.1617,-0.1617,-0.1617,-0.1718,-0.2622,-0.3473,-0.4275,-0.1345,-0.1076,-0.0852,-0.1121,-0.0942,-0.0807,-0.0807,-0.0762,-0.0762,-0.0762,-0.0583,-0.0448,-0.0448,-0.0224,-0.009,-0.0045,-0.0046,-0.0046,0.0,0.0,0.0,0.0,0.0,0.0,0.0,0.0,0.0,0.0,0.0,0.0,0.0,0.0,0.0,0.0,0.0,0.0,0.0,0.0,0.0,0.0,0.0,0.0,0.0,0.0,0.0,0.0,0.0,0.0,0.0,0.0,0.0,0.0,0.0,0.0,0.0,0.0,0.0,0.0,0.0,0.0,0.0,0.0,0.0,0.0,0.0,0.0,0.0,0.0,0.0,0.0,0.0,0.0,0.0,0.0,0.0,0.0,0.0,0.0,0.0,-0.0046,-0.0047,-0.0048,-0.0097,-0.0098,-0.0099,-0.0101,-0.0303,-0.0455,-0.0455,-0.0657,-0.0808,-0.0808,-0.0808,-0.0808,-0.0859,-0.0859,-0.0859,-0.0909,-0.0909,-0.1162,-0.1617,-0.1617,-0.1617,-0.1617,-0.1617,-0.1617,-0.1617,-0.1617,-0.1617,-0.1617,-0.1617,-0.1617,-0.1617,-0.1768,-0.1919,-0.217,-0.0987,-0.0852,-0.0718,-0.0852,-0.0762,-0.0718,-0.0718,-0.0583,-0.0538,-0.0538,-0.0314,-0.018,-0.018,-0.0091,0.0,0.0,0.0,0.0,0.0,0.0,0.0,0.0,0.0,0.0,0.0,0.0,0.0,0.0,0.0,0.0,0.0,0.0,0.0,0.0,0.0,0.0,0.0,0.0,0.0,0.0,0.0,0.0,0.0,0.0,0.0,0.0,0.0,0.0,0.0,0.0,0.0,0.0,0.0,0.0,0.0,0.0,0.0,0.0,0.0,0.0,0.0,0.0,0.0,0.0,0.0,0.0,0.0,0.0,0.0,0.0,0.0,0.0,0.0,0.0,0.0,0.0,0.0,0.0,0.0,0.0,0.0,0.0,0.0,0.0,0.0,0.0,-0.0101,-0.0152,-0.0152,-0.0303,-0.0354,-0.0354,-0.0354,-0.0404,-0.0556,-0.0556,-0.0657,-0.0808,-0.0808,-0.0909,-0.1162,-0.1162,-0.1162,-0.1162,-0.1162,-0.1162,-0.1162,-0.1162,-0.1263,-0.1364,-0.1364,-0.1364,-0.1364,-0.1212,-0.1263,-0.1465]}]]